| time (UTC) | temp C | wind direction | speed KPH | gust KPH | rain 1hr cm | rain 24hr cm | rain mn cm | humidity % | barometer mb |
| 20260905194001 | 27 | 200 | 8.0 | 14.5 | 0.00 | 0.00 | 0.00 | 75 | 1018.2 |
| 20260905193905 | 27 | 236 | 9.7 | 14.5 | 0.00 | 0.00 | 0.00 | 74 | 1018.2 |
| 20260905193810 | 27 | 259 | 9.7 | 14.5 | 0.00 | 0.00 | 0.00 | 73 | 1018.2 |
| 20260905193714 | 27 | 267 | 9.7 | 14.5 | 0.00 | 0.00 | 0.00 | 74 | 1018.1 |
| 20260905193603 | 27 | 223 | 8.0 | 12.9 | 0.00 | 0.00 | 0.00 | 73 | 1018.2 |
| 20260905193508 | 27 | 219 | 8.0 | 12.9 | 0.00 | 0.00 | 0.00 | 74 | 1018.2 |
| 20260905193433 | 27 | 225 | 6.4 | 12.9 | 0.00 | 0.00 | 0.00 | 75 | 1018.2 |
| 20260905193315 | 27 | 296 | 6.4 | 11.3 | 0.00 | 0.00 | 0.00 | 75 | 1018.2 |
| 20260905193218 | 27 | 209 | 3.2 | 11.3 | 0.00 | 0.00 | 0.00 | 75 | 1018.3 |
| 20260905193122 | 27 | 215 | 1.6 | 11.3 | 0.00 | 0.00 | 0.00 | 75 | 1018.3 |
| 20260905193000 | 26 | 215 | 4.8 | 11.3 | 0.00 | 0.00 | 0.00 | 75 | 1018.3 |
| 20260905192909 | 26 | 215 | 6.4 | 11.3 | 0.00 | 0.00 | 0.00 | 75 | 1018.3 |
| 20260905192833 | 27 | 214 | 6.4 | 11.3 | 0.00 | 0.00 | 0.00 | 75 | 1018.3 |
| 20260905192657 | 27 | 211 | 6.4 | 11.3 | 0.00 | 0.00 | 0.00 | 75 | 1018.3 |
| 20260905192601 | 27 | 205 | 4.8 | 11.3 | 0.00 | 0.00 | 0.00 | 75 | 1018.3 |
| 20260905192507 | 27 | 192 | 4.8 | 11.3 | 0.00 | 0.00 | 0.00 | 75 | 1018.4 |
| 20260905192411 | 27 | 199 | 6.4 | 11.3 | 0.00 | 0.00 | 0.00 | 75 | 1018.4 |
| 20260905192320 | 27 | 198 | 6.4 | 11.3 | 0.00 | 0.00 | 0.00 | 75 | 1018.3 |
| 20260905192158 | 26 | 182 | 3.2 | 11.3 | 0.00 | 0.00 | 0.00 | 75 | 1018.4 |
| 20260905192103 | 26 | 179 | 3.2 | 11.3 | 0.00 | 0.00 | 0.00 | 75 | 1018.3 |
| 20260905192008 | 26 | 179 | 4.8 | 11.3 | 0.00 | 0.00 | 0.00 | 75 | 1018.3 |
| 20260905191933 | 26 | 179 | 8.0 | 11.3 | 0.00 | 0.00 | 0.00 | 75 | 1018.3 |
| 20260905191757 | 27 | 192 | 8.0 | 11.3 | 0.00 | 0.00 | 0.00 | 75 | 1018.3 |
| 20260905191705 | 26 | 205 | 6.4 | 12.9 | 0.00 | 0.00 | 0.00 | 75 | 1018.3 |
| 20260905191610 | 26 | 229 | 6.4 | 12.9 | 0.00 | 0.00 | 0.00 | 75 | 1018.3 |
| 20260905191514 | 26 | 234 | 8.0 | 12.9 | 0.00 | 0.00 | 0.00 | 76 | 1018.3 |
| 20260905191359 | 26 | 251 | 8.0 | 12.9 | 0.00 | 0.00 | 0.00 | 76 | 1018.3 |
| 20260905191302 | 26 | 228 | 6.4 | 11.3 | 0.00 | 0.00 | 0.00 | 76 | 1018.4 |
| 20260905191207 | 26 | 169 | 6.4 | 11.3 | 0.00 | 0.00 | 0.00 | 76 | 1018.4 |
| 20260905191116 | 26 | 196 | 6.4 | 11.3 | 0.00 | 0.00 | 0.00 | 76 | 1018.3 |
| 20260905191020 | 26 | 214 | 4.8 | 9.7 | 0.00 | 0.00 | 0.00 | 76 | 1018.3 |
| 20260905190857 | 26 | 190 | 6.4 | 11.3 | 0.00 | 0.00 | 0.00 | 77 | 1018.3 |
| 20260905190800 | 26 | 182 | 3.2 | 11.3 | 0.00 | 0.00 | 0.00 | 78 | 1018.3 |
| 20260905190705 | 26 | 218 | 1.6 | 14.5 | 0.00 | 0.00 | 0.00 | 77 | 1018.3 |
| 20260905190610 | 26 | 218 | 4.8 | 14.5 | 0.00 | 0.00 | 0.00 | 77 | 1018.3 |
| 20260905190459 | 26 | 218 | 4.8 | 14.5 | 0.00 | 0.00 | 0.00 | 76 | 1018.4 |
| 20260905190404 | 26 | 217 | 4.8 | 14.5 | 0.00 | 0.00 | 0.00 | 77 | 1018.3 |
| 20260905190310 | 26 | 216 | 6.4 | 14.5 | 0.00 | 0.00 | 0.00 | 77 | 1018.3 |
| 20260905190214 | 26 | 213 | 6.4 | 14.5 | 0.00 | 0.00 | 0.00 | 77 | 1018.3 |
| 20260905190100 | 26 | 211 | 8.0 | 14.5 | 0.00 | 0.00 | 0.00 | 77 | 1018.3 |
| 20260905190024 | 26 | 224 | 9.7 | 14.5 | 0.00 | 0.00 | 0.00 | 77 | 1018.3 |
| 20260905185911 | 26 | 204 | 8.0 | 14.5 | 0.00 | 0.00 | 0.00 | 78 | 1018.3 |
| 20260905185757 | 26 | 198 | 4.8 | 16.1 | 0.00 | 0.00 | 0.00 | 78 | 1018.3 |
| 20260905185721 | 26 | 254 | 4.8 | 16.1 | 0.00 | 0.00 | 0.00 | 78 | 1018.3 |
| 20260905185604 | 26 | 244 | 6.4 | 16.1 | 0.00 | 0.00 | 0.00 | 77 | 1018.3 |
| 20260905185509 | 26 | 244 | 8.0 | 16.1 | 0.00 | 0.00 | 0.00 | 77 | 1018.3 |
| 20260905185414 | 26 | 248 | 9.7 | 16.1 | 0.00 | 0.00 | 0.00 | 77 | 1018.3 |
| 20260905185305 | 26 | 250 | 11.3 | 16.1 | 0.00 | 0.00 | 0.00 | 77 | 1018.3 |
| 20260905185207 | 26 | 243 | 11.3 | 16.1 | 0.00 | 0.00 | 0.00 | 77 | 1018.3 |
| 20260905185112 | 26 | 208 | 11.3 | 16.1 | 0.00 | 0.00 | 0.00 | 77 | 1018.3 |
| 20260905184957 | 26 | 257 | 12.9 | 16.1 | 0.00 | 0.00 | 0.00 | 77 | 1018.4 |
| 20260905184902 | 26 | 250 | 12.9 | 16.1 | 0.00 | 0.00 | 0.00 | 78 | 1018.3 |
| 20260905184826 | 26 | 263 | 8.0 | 16.1 | 0.00 | 0.00 | 0.00 | 79 | 1018.3 |
| 20260905184710 | 26 | 254 | 4.8 | 12.9 | 0.00 | 0.00 | 0.00 | 81 | 1018.3 |
| 20260905184618 | 26 | 274 | 3.2 | 9.7 | 0.00 | 0.00 | 0.00 | 80 | 1018.3 |
| 20260905184543 | 25 | 96 | 3.2 | 9.7 | 0.00 | 0.00 | 0.00 | 79 | 1018.3 |
| 20260905184401 | 25 | 114 | 4.8 | 9.7 | 0.00 | 0.00 | 0.00 | 78 | 1018.3 |
| 20260905184305 | 25 | 119 | 3.2 | 12.9 | 0.00 | 0.00 | 0.00 | 78 | 1018.3 |
| 20260905184210 | 25 | 165 | 3.2 | 12.9 | 0.00 | 0.00 | 0.00 | 79 | 1018.3 |
| 20260905184003 | 25 | 166 | 4.8 | 12.9 | 0.00 | 0.00 | 0.00 | 79 | 1018.4 |
| 20260905183908 | 25 | 200 | 6.4 | 12.9 | 0.00 | 0.00 | 0.00 | 79 | 1018.4 |
| 20260905183813 | 25 | 200 | 8.0 | 12.9 | 0.00 | 0.00 | 0.00 | 79 | 1018.3 |
| 20260905183659 | 25 | 190 | 6.4 | 12.9 | 0.00 | 0.00 | 0.00 | 80 | 1018.4 |
| 20260905183604 | 25 | 202 | 6.4 | 12.9 | 0.00 | 0.00 | 0.00 | 79 | 1018.4 |
| 20260905183508 | 25 | 180 | 6.4 | 12.9 | 0.00 | 0.00 | 0.00 | 79 | 1018.4 |
| 20260905183357 | 25 | 175 | 4.8 | 11.3 | 0.00 | 0.00 | 0.00 | 79 | 1018.5 |
| 20260905183321 | 25 | 173 | 6.4 | 11.3 | 0.00 | 0.00 | 0.00 | 80 | 1018.5 |
| 20260905183225 | 25 | 172 | 6.4 | 11.3 | 0.00 | 0.00 | 0.00 | 80 | 1018.5 |
| 20260905183109 | 25 | 177 | 4.8 | 11.3 | 0.00 | 0.00 | 0.00 | 81 | 1018.5 |
| 20260905183014 | 25 | 175 | 6.4 | 12.9 | 0.00 | 0.00 | 0.00 | 80 | 1018.5 |
| 20260905182859 | 25 | 176 | 9.7 | 14.5 | 0.00 | 0.00 | 0.00 | 80 | 1018.5 |
| 20260905182808 | 25 | 184 | 9.7 | 14.5 | 0.00 | 0.00 | 0.00 | 81 | 1018.5 |
| 20260905182733 | 25 | 219 | 9.7 | 14.5 | 0.00 | 0.00 | 0.00 | 80 | 1018.5 |
| 20260905182556 | 25 | 215 | 8.0 | 14.5 | 0.00 | 0.00 | 0.00 | 80 | 1018.5 |
| 20260905182522 | 25 | 180 | 8.0 | 14.5 | 0.00 | 0.00 | 0.00 | 80 | 1018.6 |
| 20260905182405 | 25 | 188 | 8.0 | 14.5 | 0.00 | 0.00 | 0.00 | 80 | 1018.6 |
| 20260905182310 | 25 | 191 | 9.7 | 14.5 | 0.00 | 0.00 | 0.00 | 81 | 1018.6 |
| 20260905182215 | 25 | 182 | 8.0 | 14.5 | 0.00 | 0.00 | 0.00 | 81 | 1018.6 |
| 20260905182102 | 25 | 198 | 3.2 | 11.3 | 0.00 | 0.00 | 0.00 | 81 | 1018.5 |
| 20260905182007 | 25 | 200 | 4.8 | 11.3 | 0.00 | 0.00 | 0.00 | 81 | 1018.5 |
| 20260905181913 | 25 | 200 | 8.0 | 11.3 | 0.00 | 0.00 | 0.00 | 81 | 1018.6 |
| 20260905181817 | 25 | 211 | 4.8 | 11.3 | 0.00 | 0.00 | 0.00 | 82 | 1018.7 |
| 20260905181701 | 25 | 198 | 3.2 | 8.0 | 0.00 | 0.00 | 0.00 | 82 | 1018.6 |
| 20260905181606 | 25 | 197 | 1.6 | 8.0 | 0.00 | 0.00 | 0.00 | 82 | 1018.5 |
| 20260905181511 | 25 | 197 | 1.6 | 12.9 | 0.00 | 0.00 | 0.00 | 81 | 1018.5 |
| 20260905181400 | 25 | 197 | 1.6 | 12.9 | 0.00 | 0.00 | 0.00 | 81 | 1018.6 |
| 20260905181304 | 25 | 197 | 1.6 | 12.9 | 0.00 | 0.00 | 0.00 | 81 | 1018.6 |
| 20260905181209 | 25 | 197 | 1.6 | 17.7 | 0.00 | 0.00 | 0.00 | 81 | 1018.6 |
| 20260905181113 | 25 | 197 | 1.6 | 17.7 | 0.00 | 0.00 | 0.00 | 81 | 1018.6 |
| 20260905180959 | 25 | 197 | 3.2 | 17.7 | 0.00 | 0.00 | 0.00 | 81 | 1018.7 |
| 20260905180907 | 25 | 197 | 3.2 | 17.7 | 0.00 | 0.00 | 0.00 | 81 | 1018.7 |
| 20260905180812 | 25 | 197 | 6.4 | 17.7 | 0.00 | 0.00 | 0.00 | 81 | 1018.7 |
| 20260905180715 | 25 | 197 | 8.0 | 17.7 | 0.00 | 0.00 | 0.00 | 81 | 1018.7 |
| 20260905180601 | 25 | 167 | 9.7 | 17.7 | 0.00 | 0.00 | 0.00 | 82 | 1018.7 |
| 20260905180505 | 25 | 173 | 11.3 | 17.7 | 0.00 | 0.00 | 0.00 | 82 | 1018.7 |
| 20260905180410 | 25 | 167 | 11.3 | 17.7 | 0.00 | 0.00 | 0.00 | 82 | 1018.7 |
| 20260905180258 | 25 | 196 | 11.3 | 14.5 | 0.00 | 0.00 | 0.00 | 83 | 1018.7 |
| 20260905180222 | 25 | 178 | 9.7 | 14.5 | 0.00 | 0.00 | 0.00 | 83 | 1018.7 |
| 20260905180100 | 25 | 186 | 8.0 | 12.9 | 0.00 | 0.00 | 0.00 | 83 | 1018.8 |
| 20260905180023 | 24 | 188 | 4.8 | 11.3 | 0.00 | 0.00 | 0.00 | 83 | 1018.8 |
| 20260905175900 | 24 | 211 | 4.8 | 11.3 | 0.00 | 0.00 | 0.00 | 83 | 1018.8 |
| 20260905175806 | 24 | 211 | 8.0 | 11.3 | 0.00 | 0.00 | 0.00 | 83 | 1018.8 |
| 20260905175710 | 24 | 201 | 8.0 | 11.3 | 0.00 | 0.00 | 0.00 | 83 | 1018.8 |
| 20260905175618 | 24 | 240 | 6.4 | 12.9 | 0.00 | 0.00 | 0.00 | 84 | 1018.8 |
| 20260905175522 | 24 | 236 | 6.4 | 12.9 | 0.00 | 0.00 | 0.00 | 84 | 1018.8 |
| 20260905175406 | 24 | 196 | 4.8 | 12.9 | 0.00 | 0.00 | 0.00 | 84 | 1018.8 |
| 20260905175311 | 24 | 161 | 3.2 | 12.9 | 0.00 | 0.00 | 0.00 | 84 | 1018.8 |
| 20260905175216 | 24 | 161 | 1.6 | 12.9 | 0.00 | 0.00 | 0.00 | 84 | 1018.8 |
| 20260905175101 | 24 | 180 | 3.2 | 12.9 | 0.00 | 0.00 | 0.00 | 84 | 1018.8 |
| 20260905175009 | 24 | 180 | 6.4 | 12.9 | 0.00 | 0.00 | 0.00 | 84 | 1018.8 |
| 20260905174934 | 24 | 180 | 8.0 | 12.9 | 0.00 | 0.00 | 0.00 | 85 | 1018.8 |
| 20260905174818 | 24 | 196 | 8.0 | 12.9 | 0.00 | 0.00 | 0.00 | 85 | 1018.8 |
| 20260905174721 | 24 | 202 | 6.4 | 14.5 | 0.00 | 0.00 | 0.00 | 85 | 1018.8 |
| 20260905174603 | 24 | 209 | 6.4 | 14.5 | 0.00 | 0.00 | 0.00 | 85 | 1018.8 |
| 20260905174508 | 23 | 155 | 4.8 | 14.5 | 0.00 | 0.00 | 0.00 | 85 | 1018.8 |
| 20260905174413 | 23 | 155 | 6.4 | 14.5 | 0.00 | 0.00 | 0.00 | 85 | 1018.8 |
| 20260905174318 | 23 | 146 | 8.0 | 14.5 | 0.00 | 0.00 | 0.00 | 85 | 1018.8 |
| 20260905174206 | 23 | 154 | 8.0 | 19.3 | 0.00 | 0.00 | 0.00 | 85 | 1018.8 |
| 20260905174110 | 23 | 171 | 8.0 | 19.3 | 0.00 | 0.00 | 0.00 | 85 | 1018.8 |
| 20260905174015 | 23 | 129 | 6.4 | 19.3 | 0.00 | 0.00 | 0.00 | 86 | 1018.8 |
| 20260905173920 | 23 | 178 | 6.4 | 19.3 | 0.00 | 0.00 | 0.00 | 85 | 1018.9 |
| 20260905173823 | 23 | 165 | 9.7 | 19.3 | 0.00 | 0.00 | 0.00 | 85 | 1018.9 |
| 20260905173727 | 23 | 193 | 9.7 | 19.3 | 0.00 | 0.00 | 0.00 | 86 | 1018.9 |
| 20260905173611 | 23 | 188 | 9.7 | 19.3 | 0.00 | 0.00 | 0.00 | 86 | 1018.9 |
| 20260905173535 | 23 | 184 | 12.9 | 19.3 | 0.00 | 0.00 | 0.00 | 86 | 1018.9 |
| 20260905173422 | 23 | 195 | 11.3 | 19.3 | 0.00 | 0.00 | 0.00 | 87 | 1018.9 |
| 20260905173300 | 23 | 198 | 9.7 | 12.9 | 0.00 | 0.00 | 0.00 | 87 | 1018.8 |
| 20260905173205 | 23 | 205 | 9.7 | 12.9 | 0.00 | 0.00 | 0.00 | 86 | 1018.8 |
| 20260905173109 | 23 | 202 | 6.4 | 11.3 | 0.00 | 0.00 | 0.00 | 87 | 1018.8 |
| 20260905173034 | 23 | 221 | 6.4 | 12.9 | 0.00 | 0.00 | 0.00 | 87 | 1018.8 |
| 20260905172857 | 23 | 173 | 6.4 | 11.3 | 0.00 | 0.00 | 0.00 | 88 | 1018.8 |
| 20260905172802 | 23 | 165 | 3.2 | 11.3 | 0.00 | 0.00 | 0.00 | 89 | 1018.7 |
| 20260905172730 | 23 | 120 | 3.2 | 11.3 | 0.00 | 0.00 | 0.00 | 88 | 1018.7 |
| 20260905172634 | 23 | 119 | 4.8 | 11.3 | 0.00 | 0.00 | 0.00 | 88 | 1018.7 |
| 20260905172518 | 23 | 118 | 8.0 | 11.3 | 0.00 | 0.00 | 0.00 | 88 | 1018.7 |
| 20260905172442 | 23 | 158 | 8.0 | 11.3 | 0.00 | 0.00 | 0.00 | 88 | 1018.7 |
| 20260905172257 | 23 | 180 | 6.4 | 14.5 | 0.00 | 0.00 | 0.00 | 88 | 1018.7 |
| 20260905172220 | 23 | 161 | 6.4 | 14.5 | 0.00 | 0.00 | 0.00 | 88 | 1018.7 |
| 20260905172057 | 23 | 166 | 6.4 | 14.5 | 0.00 | 0.00 | 0.00 | 88 | 1018.7 |
| 20260905172022 | 23 | 158 | 4.8 | 14.5 | 0.00 | 0.00 | 0.00 | 88 | 1018.8 |
| 20260905171929 | 23 | 169 | 8.0 | 14.5 | 0.00 | 0.00 | 0.00 | 88 | 1018.8 |
| 20260905171812 | 23 | 178 | 9.7 | 20.9 | 0.00 | 0.00 | 0.00 | 88 | 1018.8 |
| 20260905171716 | 23 | 164 | 9.7 | 20.9 | 0.00 | 0.00 | 0.00 | 88 | 1018.8 |
| 20260905171642 | 23 | 172 | 9.7 | 20.9 | 0.00 | 0.00 | 0.00 | 88 | 1018.8 |
| 20260905171457 | 23 | 163 | 9.7 | 20.9 | 0.00 | 0.00 | 0.00 | 88 | 1018.9 |
| 20260905171402 | 23 | 158 | 11.3 | 20.9 | 0.00 | 0.00 | 0.00 | 88 | 1018.8 |
| 20260905171307 | 23 | 198 | 11.3 | 20.9 | 0.00 | 0.00 | 0.00 | 88 | 1018.8 |
| 20260905171216 | 23 | 192 | 11.3 | 20.9 | 0.00 | 0.00 | 0.00 | 88 | 1018.8 |
| 20260905171118 | 23 | 175 | 12.9 | 20.9 | 0.00 | 0.00 | 0.00 | 88 | 1018.8 |
| 20260905171043 | 23 | 178 | 12.9 | 20.9 | 0.00 | 0.00 | 0.00 | 89 | 1018.8 |
| 20260905170859 | 23 | 205 | 9.7 | 14.5 | 0.00 | 0.00 | 0.00 | 89 | 1018.8 |
| 20260905170803 | 23 | 168 | 9.7 | 14.5 | 0.00 | 0.00 | 0.00 | 89 | 1018.8 |
| 20260905170727 | 23 | 178 | 11.3 | 14.5 | 0.00 | 0.00 | 0.00 | 89 | 1018.8 |
| 20260905170610 | 23 | 188 | 9.7 | 14.5 | 0.00 | 0.00 | 0.00 | 90 | 1018.8 |
| 20260905170459 | 22 | 209 | 8.0 | 11.3 | 0.00 | 0.00 | 0.00 | 89 | 1018.9 |
| 20260905170404 | 22 | 223 | 8.0 | 14.5 | 0.00 | 0.00 | 0.00 | 90 | 1018.9 |
| 20260905170309 | 22 | 221 | 6.4 | 14.5 | 0.00 | 0.00 | 0.00 | 90 | 1018.9 |
| 20260905170234 | 22 | 222 | 4.8 | 14.5 | 0.00 | 0.00 | 0.00 | 90 | 1019.0 |
| 20260905170118 | 22 | 217 | 6.4 | 14.5 | 0.00 | 0.00 | 0.00 | 90 | 1019.1 |
| 20260905165956 | 22 | 218 | 8.0 | 14.5 | 0.00 | 0.00 | 0.00 | 90 | 1019.2 |
| 20260905165921 | 22 | 219 | 6.4 | 14.5 | 0.00 | 0.00 | 0.00 | 90 | 1019.2 |
| 20260905165808 | 22 | 222 | 6.4 | 14.5 | 0.00 | 0.00 | 0.00 | 90 | 1019.2 |
| 20260905165733 | 22 | 224 | 8.0 | 14.5 | 0.00 | 0.00 | 0.00 | 90 | 1019.1 |
| 20260905165616 | 22 | 226 | 11.3 | 14.5 | 0.00 | 0.00 | 0.00 | 90 | 1019.2 |
| 20260905165520 | 22 | 248 | 11.3 | 14.5 | 0.00 | 0.00 | 0.00 | 90 | 1019.2 |
| 20260905165356 | 22 | 224 | 6.4 | 14.5 | 0.00 | 0.00 | 0.00 | 91 | 1019.2 |
| 20260905165302 | 22 | 223 | 6.4 | 14.5 | 0.00 | 0.00 | 0.00 | 91 | 1019.2 |
| 20260905165210 | 22 | 174 | 6.4 | 14.5 | 0.00 | 0.00 | 0.00 | 91 | 1019.2 |
| 20260905165114 | 22 | 168 | 8.0 | 14.5 | 0.00 | 0.00 | 0.00 | 91 | 1019.1 |
| 20260905164959 | 22 | 152 | 8.0 | 14.5 | 0.00 | 0.00 | 0.00 | 91 | 1019.0 |
| 20260905164904 | 22 | 167 | 9.7 | 14.5 | 0.00 | 0.00 | 0.00 | 91 | 1019.1 |
| 20260905164807 | 22 | 152 | 8.0 | 14.5 | 0.00 | 0.00 | 0.00 | 92 | 1019.0 |
| 20260905164711 | 22 | 167 | 6.4 | 12.9 | 0.00 | 0.00 | 0.00 | 92 | 1019.0 |
| 20260905164559 | 22 | 181 | 8.0 | 12.9 | 0.00 | 0.00 | 0.00 | 92 | 1019.1 |
| 20260905164524 | 22 | 185 | 9.7 | 12.9 | 0.00 | 0.00 | 0.00 | 92 | 1019.0 |
| 20260905164407 | 22 | 184 | 9.7 | 12.9 | 0.00 | 0.00 | 0.00 | 93 | 1019.0 |
| 20260905164312 | 22 | 180 | 9.7 | 12.9 | 0.00 | 0.00 | 0.00 | 93 | 1019.1 |
| 20260905164157 | 22 | 192 | 8.0 | 12.9 | 0.00 | 0.00 | 0.00 | 93 | 1019.1 |
| 20260905164103 | 22 | 200 | 9.7 | 12.9 | 0.00 | 0.00 | 0.00 | 93 | 1019.2 |
| 20260905164011 | 22 | 197 | 9.7 | 12.9 | 0.00 | 0.00 | 0.00 | 93 | 1019.2 |
| 20260905163856 | 22 | 197 | 9.7 | 12.9 | 0.00 | 0.00 | 0.00 | 93 | 1019.2 |
| 20260905163821 | 22 | 196 | 8.0 | 11.3 | 0.00 | 0.00 | 0.00 | 93 | 1019.2 |
| 20260905163658 | 22 | 180 | 4.8 | 9.7 | 0.00 | 0.00 | 0.00 | 94 | 1019.1 |
| 20260905163623 | 22 | 175 | 4.8 | 9.7 | 0.00 | 0.00 | 0.00 | 94 | 1019.2 |
| 20260905163506 | 22 | 150 | 3.2 | 9.7 | 0.00 | 0.00 | 0.00 | 94 | 1019.1 |
| 20260905163408 | 22 | 149 | 3.2 | 9.7 | 0.00 | 0.00 | 0.00 | 94 | 1019.1 |
| 20260905163257 | 22 | 149 | 4.8 | 9.7 | 0.00 | 0.00 | 0.00 | 94 | 1019.2 |
| 20260905163202 | 21 | 148 | 6.4 | 9.7 | 0.00 | 0.00 | 0.00 | 94 | 1019.1 |
| 20260905163106 | 21 | 149 | 6.4 | 9.7 | 0.00 | 0.00 | 0.00 | 94 | 1019.1 |
| 20260905163010 | 21 | 170 | 4.8 | 8.0 | 0.00 | 0.00 | 0.00 | 94 | 1019.1 |
| 20260905162915 | 21 | 175 | 4.8 | 8.0 | 0.00 | 0.00 | 0.00 | 94 | 1019.1 |
| 20260905162820 | 21 | 176 | 4.8 | 6.4 | 0.00 | 0.00 | 0.00 | 95 | 1019.2 |
| 20260905162708 | 21 | 177 | 4.8 | 6.4 | 0.00 | 0.00 | 0.00 | 95 | 1019.2 |
| 20260905162614 | 21 | 178 | 3.2 | 6.4 | 0.00 | 0.00 | 0.00 | 95 | 1019.1 |
| 20260905162518 | 21 | 178 | 3.2 | 6.4 | 0.00 | 0.00 | 0.00 | 95 | 1019.2 |
| 20260905162356 | 21 | 178 | 3.2 | 4.8 | 0.00 | 0.00 | 0.00 | 95 | 1019.3 |
| 20260905162300 | 21 | 178 | 3.2 | 4.8 | 0.00 | 0.00 | 0.00 | 95 | 1019.3 |
| 20260905162204 | 21 | 178 | 3.2 | 4.8 | 0.00 | 0.00 | 0.00 | 95 | 1019.4 |
| 20260905162109 | 21 | 178 | 3.2 | 4.8 | 0.00 | 0.00 | 0.00 | 95 | 1019.4 |
| 20260905162017 | 21 | 178 | 4.8 | 4.8 | 0.00 | 0.00 | 0.00 | 95 | 1019.4 |
| 20260905161901 | 21 | 178 | 3.2 | 4.8 | 0.00 | 0.00 | 0.00 | 95 | 1019.4 |
| 20260905161806 | 21 | 178 | 3.2 | 4.8 | 0.00 | 0.00 | 0.00 | 95 | 1019.5 |
| 20260905161730 | 21 | 178 | 1.6 | 4.8 | 0.00 | 0.00 | 0.00 | 95 | 1019.5 |
| 20260905161614 | 21 | 178 | 1.6 | 4.8 | 0.00 | 0.00 | 0.00 | 95 | 1019.5 |
| 20260905161459 | 21 | 178 | 1.6 | 4.8 | 0.00 | 0.00 | 0.00 | 95 | 1019.5 |
| 20260905161407 | 21 | 178 | 0.0 | 4.8 | 0.00 | 0.00 | 0.00 | 96 | 1019.5 |
| 20260905161312 | 21 | 178 | 1.6 | 6.4 | 0.00 | 0.00 | 0.00 | 95 | 1019.5 |
| 20260905161237 | 21 | 178 | 1.6 | 6.4 | 0.00 | 0.00 | 0.00 | 96 | 1019.4 |
| 20260905161101 | 21 | 178 | 3.2 | 6.4 | 0.00 | 0.00 | 0.00 | 96 | 1019.4 |
| 20260905161004 | 21 | 178 | 3.2 | 6.4 | 0.00 | 0.00 | 0.00 | 96 | 1019.5 |
| 20260905160928 | 21 | 178 | 3.2 | 6.4 | 0.00 | 0.00 | 0.00 | 96 | 1019.4 |
| 20260905160811 | 21 | 178 | 3.2 | 6.4 | 0.00 | 0.00 | 0.00 | 96 | 1019.4 |
| 20260905160721 | 21 | 179 | 3.2 | 6.4 | 0.00 | 0.00 | 0.00 | 96 | 1019.3 |
| 20260905160557 | 21 | 180 | 4.8 | 8.0 | 0.00 | 0.00 | 0.00 | 96 | 1019.3 |
| 20260905160522 | 21 | 180 | 4.8 | 8.0 | 0.00 | 0.00 | 0.00 | 97 | 1019.3 |
| 20260905160400 | 21 | 190 | 3.2 | 8.0 | 0.00 | 0.00 | 0.00 | 97 | 1019.4 |
| 20260905160325 | 21 | 190 | 3.2 | 8.0 | 0.00 | 0.00 | 0.00 | 97 | 1019.4 |
| 20260905160208 | 21 | 190 | 1.6 | 8.0 | 0.00 | 0.00 | 0.00 | 97 | 1019.5 |
| 20260905160131 | 21 | 190 | 1.6 | 8.0 | 0.00 | 0.00 | 0.00 | 97 | 1019.5 |
| 20260905160020 | 21 | 190 | 4.8 | 8.0 | 0.00 | 0.00 | 0.00 | 97 | 1019.4 |
| 20260905155904 | 21 | 190 | 4.8 | 8.0 | 0.00 | 0.00 | 0.00 | 97 | 1019.4 |
| 20260905155828 | 21 | 190 | 4.8 | 8.0 | 0.00 | 0.00 | 0.00 | 97 | 1019.4 |
| 20260905155732 | 21 | 190 | 4.8 | 8.0 | 0.00 | 0.00 | 0.00 | 97 | 1019.4 |
| 20260905155615 | 21 | 189 | 6.4 | 8.0 | 0.00 | 0.00 | 0.00 | 97 | 1019.3 |
| 20260905155521 | 21 | 188 | 6.4 | 9.7 | 0.00 | 0.00 | 0.00 | 97 | 1019.3 |
| 20260905155404 | 21 | 188 | 4.8 | 9.7 | 0.00 | 0.00 | 0.00 | 97 | 1019.3 |
| 20260905155309 | 21 | 188 | 3.2 | 9.7 | 0.00 | 0.00 | 0.00 | 97 | 1019.3 |
| 20260905155159 | 21 | 188 | 4.8 | 9.7 | 0.00 | 0.00 | 0.00 | 97 | 1019.5 |
| 20260905155123 | 21 | 189 | 3.2 | 11.3 | 0.00 | 0.00 | 0.00 | 97 | 1019.4 |
| 20260905155007 | 21 | 189 | 1.6 | 11.3 | 0.00 | 0.00 | 0.00 | 97 | 1019.4 |
| 20260905154912 | 21 | 189 | 1.6 | 16.1 | 0.00 | 0.00 | 0.00 | 97 | 1019.4 |
| 20260905154757 | 21 | 189 | 4.8 | 16.1 | 0.00 | 0.00 | 0.00 | 98 | 1019.3 |
| 20260905154702 | 21 | 189 | 6.4 | 16.1 | 0.00 | 0.00 | 0.00 | 98 | 1019.2 |
| 20260905154611 | 21 | 188 | 8.0 | 16.1 | 0.00 | 0.00 | 0.00 | 98 | 1019.2 |
| 20260905154514 | 21 | 200 | 8.0 | 16.1 | 0.00 | 0.00 | 0.00 | 98 | 1019.1 |
| 20260905154400 | 21 | 233 | 8.0 | 16.1 | 0.00 | 0.00 | 0.00 | 98 | 1019.0 |
| 20260905154304 | 21 | 221 | 8.0 | 16.1 | 0.00 | 0.00 | 0.00 | 98 | 1019.0 |
| 20260905154208 | 21 | 171 | 9.7 | 16.1 | 0.00 | 0.00 | 0.00 | 98 | 1019.0 |
| 20260905154057 | 21 | 189 | 9.7 | 16.1 | 0.00 | 0.00 | 0.00 | 98 | 1018.9 |
| 20260905154019 | 21 | 205 | 8.0 | 12.9 | 0.00 | 0.00 | 0.00 | 98 | 1018.9 |
| 20260905153922 | 21 | 175 | 6.4 | 12.9 | 0.00 | 0.00 | 0.00 | 98 | 1018.9 |
| 20260905153759 | 21 | 164 | 4.8 | 12.9 | 0.00 | 0.00 | 0.00 | 98 | 1018.8 |
| 20260905153723 | 21 | 165 | 6.4 | 12.9 | 0.00 | 0.00 | 0.00 | 98 | 1018.7 |
| 20260905153608 | 21 | 167 | 8.0 | 16.1 | 0.00 | 0.00 | 0.00 | 98 | 1018.7 |
| 20260905153512 | 21 | 188 | 8.0 | 16.1 | 0.00 | 0.00 | 0.00 | 98 | 1018.7 |
| 20260905153417 | 20 | 175 | 6.4 | 16.1 | 0.00 | 0.00 | 0.00 | 98 | 1018.7 |
| 20260905153325 | 20 | 199 | 8.0 | 16.1 | 0.00 | 0.00 | 0.00 | 98 | 1018.7 |
| 20260905153209 | 20 | 181 | 8.0 | 16.1 | 0.00 | 0.00 | 0.00 | 98 | 1018.7 |
| 20260905153113 | 20 | 155 | 8.0 | 16.1 | 0.00 | 0.00 | 0.00 | 98 | 1018.7 |
| 20260905152958 | 20 | 158 | 6.4 | 16.1 | 0.00 | 0.00 | 0.00 | 98 | 1018.7 |
| 20260905152903 | 20 | 193 | 8.0 | 16.1 | 0.00 | 0.00 | 0.00 | 98 | 1018.7 |
| 20260905152828 | 20 | 173 | 8.0 | 16.1 | 0.00 | 0.00 | 0.00 | 98 | 1018.7 |
| 20260905152712 | 20 | 151 | 6.4 | 14.5 | 0.00 | 0.00 | 0.00 | 98 | 1018.7 |
| 20260905152620 | 20 | 170 | 3.2 | 14.5 | 0.00 | 0.00 | 0.00 | 98 | 1018.7 |
| 20260905152504 | 20 | 170 | 4.8 | 14.5 | 0.00 | 0.00 | 0.00 | 98 | 1018.7 |
| 20260905152427 | 20 | 170 | 8.0 | 14.5 | 0.00 | 0.00 | 0.00 | 98 | 1018.8 |
| 20260905152331 | 20 | 175 | 8.0 | 14.5 | 0.00 | 0.00 | 0.00 | 98 | 1018.8 |
| 20260905152215 | 20 | 150 | 8.0 | 14.5 | 0.00 | 0.00 | 0.00 | 98 | 1018.8 |
| 20260905152120 | 20 | 140 | 9.7 | 14.5 | 0.00 | 0.00 | 0.00 | 98 | 1018.8 |
| 20260905152003 | 20 | 142 | 8.0 | 12.9 | 0.00 | 0.00 | 0.00 | 98 | 1018.7 |
| 20260905151912 | 20 | 159 | 6.4 | 12.9 | 0.00 | 0.00 | 0.00 | 98 | 1018.7 |
| 20260905151837 | 20 | 156 | 4.8 | 12.9 | 0.00 | 0.00 | 0.00 | 98 | 1018.8 |
| 20260905151720 | 20 | 152 | 6.4 | 12.9 | 0.00 | 0.00 | 0.00 | 98 | 1018.7 |
| 20260905151557 | 20 | 153 | 6.4 | 12.9 | 0.00 | 0.00 | 0.00 | 98 | 1018.8 |
| 20260905151502 | 20 | 155 | 6.4 | 12.9 | 0.00 | 0.00 | 0.00 | 98 | 1018.8 |
| 20260905151407 | 20 | 198 | 6.4 | 12.9 | 0.00 | 0.00 | 0.00 | 98 | 1018.7 |
| 20260905151311 | 20 | 151 | 3.2 | 12.9 | 0.00 | 0.00 | 0.00 | 98 | 1018.7 |
| 20260905151220 | 20 | 149 | 3.2 | 12.9 | 0.00 | 0.00 | 0.00 | 98 | 1018.8 |
| 20260905151103 | 20 | 149 | 6.4 | 12.9 | 0.00 | 0.00 | 0.00 | 98 | 1018.7 |
| 20260905151009 | 20 | 149 | 6.4 | 12.9 | 0.00 | 0.00 | 0.00 | 98 | 1018.7 |
| 20260905150913 | 20 | 146 | 4.8 | 12.9 | 0.00 | 0.00 | 0.00 | 98 | 1018.7 |
| 20260905150758 | 20 | 154 | 4.8 | 12.9 | 0.00 | 0.00 | 0.00 | 98 | 1018.7 |
| 20260905150702 | 20 | 154 | 8.0 | 12.9 | 0.00 | 0.00 | 0.00 | 98 | 1018.7 |
| 20260905150611 | 20 | 163 | 8.0 | 12.9 | 0.00 | 0.00 | 0.00 | 98 | 1018.7 |
| 20260905150516 | 20 | 139 | 4.8 | 12.9 | 0.00 | 0.00 | 0.00 | 98 | 1018.7 |
| 20260905150400 | 20 | 157 | 4.8 | 8.0 | 0.00 | 0.00 | 0.00 | 98 | 1018.7 |
| 20260905150306 | 20 | 156 | 4.8 | 8.0 | 0.00 | 0.00 | 0.00 | 98 | 1018.8 |
| 20260905150210 | 20 | 155 | 4.8 | 8.0 | 0.00 | 0.00 | 0.00 | 98 | 1018.8 |
| 20260905150114 | 20 | 150 | 4.8 | 6.4 | 0.00 | 0.00 | 0.00 | 98 | 1018.8 |
| 20260905150003 | 20 | 146 | 4.8 | 6.4 | 0.00 | 0.00 | 0.00 | 98 | 1018.8 |
| 20260905145928 | 20 | 146 | 4.8 | 9.7 | 0.00 | 0.00 | 0.00 | 98 | 1018.8 |
| 20260905145812 | 20 | 146 | 3.2 | 9.7 | 0.00 | 0.00 | 0.00 | 98 | 1018.8 |
| 20260905145715 | 19 | 146 | 3.2 | 9.7 | 0.00 | 0.00 | 0.00 | 98 | 1018.8 |
| 20260905145620 | 19 | 146 | 3.2 | 9.7 | 0.00 | 0.00 | 0.00 | 98 | 1018.8 |
| 20260905145504 | 19 | 148 | 3.2 | 9.7 | 0.00 | 0.00 | 0.00 | 98 | 1018.9 |
| 20260905145409 | 19 | 148 | 4.8 | 9.7 | 0.00 | 0.00 | 0.00 | 98 | 1018.9 |
| 20260905145258 | 19 | 148 | 4.8 | 9.7 | 0.00 | 0.00 | 0.00 | 98 | 1018.9 |
| 20260905145202 | 19 | 140 | 4.8 | 9.7 | 0.00 | 0.00 | 0.00 | 98 | 1018.9 |
| 20260905145107 | 19 | 122 | 4.8 | 9.7 | 0.00 | 0.00 | 0.00 | 98 | 1018.9 |
| 20260905145012 | 19 | 124 | 4.8 | 9.7 | 0.00 | 0.00 | 0.00 | 98 | 1018.9 |
| 20260905144937 | 19 | 124 | 4.8 | 8.0 | 0.00 | 0.00 | 0.00 | 98 | 1018.9 |
| 20260905144820 | 19 | 123 | 3.2 | 6.4 | 0.00 | 0.00 | 0.00 | 98 | 1018.9 |
| 20260905144723 | 19 | 123 | 3.2 | 6.4 | 0.00 | 0.00 | 0.00 | 98 | 1018.8 |
| 20260905144627 | 19 | 123 | 4.8 | 9.7 | 0.00 | 0.00 | 0.00 | 98 | 1018.9 |
| 20260905144514 | 19 | 123 | 3.2 | 9.7 | 0.00 | 0.00 | 0.00 | 98 | 1018.9 |
| 20260905144436 | 19 | 123 | 3.2 | 9.7 | 0.00 | 0.00 | 0.00 | 98 | 1018.9 |
| 20260905144319 | 19 | 122 | 3.2 | 9.7 | 0.00 | 0.00 | 0.00 | 98 | 1018.9 |
| 20260905144157 | 19 | 121 | 3.2 | 9.7 | 0.00 | 0.00 | 0.00 | 98 | 1018.9 |
| 20260905144122 | 19 | 122 | 3.2 | 9.7 | 0.00 | 0.00 | 0.00 | 98 | 1018.9 |
| 20260905144003 | 19 | 122 | 3.2 | 9.7 | 0.00 | 0.00 | 0.00 | 98 | 1018.9 |
| 20260905143908 | 19 | 121 | 4.8 | 9.7 | 0.00 | 0.00 | 0.00 | 98 | 1018.9 |
| 20260905143757 | 19 | 121 | 6.4 | 9.7 | 0.00 | 0.00 | 0.00 | 98 | 1018.9 |
| 20260905143722 | 19 | 113 | 4.8 | 9.7 | 0.00 | 0.00 | 0.00 | 98 | 1018.9 |
| 20260905143600 | 19 | 127 | 3.2 | 6.4 | 0.00 | 0.00 | 0.00 | 98 | 1018.9 |
| 20260905143504 | 19 | 124 | 3.2 | 9.7 | 0.00 | 0.00 | 0.00 | 98 | 1018.9 |
| 20260905143429 | 19 | 123 | 4.8 | 9.7 | 0.00 | 0.00 | 0.00 | 98 | 1018.9 |
| 20260905143313 | 19 | 122 | 4.8 | 9.7 | 0.00 | 0.00 | 0.00 | 98 | 1018.9 |
| 20260905143222 | 19 | 110 | 3.2 | 9.7 | 0.00 | 0.00 | 0.00 | 98 | 1018.9 |
| 20260905143106 | 19 | 110 | 3.2 | 9.7 | 0.00 | 0.00 | 0.00 | 98 | 1018.9 |
| 20260905143031 | 19 | 110 | 4.8 | 9.7 | 0.00 | 0.00 | 0.00 | 98 | 1018.8 |
| 20260905142915 | 19 | 110 | 4.8 | 9.7 | 0.00 | 0.00 | 0.00 | 98 | 1018.9 |
| 20260905142800 | 19 | 109 | 4.8 | 9.7 | 0.00 | 0.00 | 0.00 | 98 | 1018.9 |
| 20260905142705 | 19 | 109 | 4.8 | 9.7 | 0.00 | 0.00 | 0.00 | 98 | 1018.9 |
| 20260905142610 | 19 | 109 | 4.8 | 9.7 | 0.00 | 0.00 | 0.00 | 98 | 1018.9 |
| 20260905142520 | 19 | 108 | 4.8 | 9.7 | 0.00 | 0.00 | 0.00 | 98 | 1019.0 |
| 20260905142357 | 19 | 109 | 4.8 | 9.7 | 0.00 | 0.00 | 0.00 | 98 | 1019.0 |
| 20260905142305 | 19 | 109 | 4.8 | 9.7 | 0.00 | 0.00 | 0.00 | 98 | 1019.0 |
| 20260905142207 | 19 | 110 | 4.8 | 9.7 | 0.00 | 0.00 | 0.00 | 98 | 1019.0 |
| 20260905142112 | 19 | 108 | 4.8 | 6.4 | 0.00 | 0.00 | 0.00 | 98 | 1019.0 |
| 20260905142000 | 19 | 108 | 4.8 | 6.4 | 0.00 | 0.00 | 0.00 | 98 | 1019.0 |
| 20260905141925 | 19 | 108 | 4.8 | 6.4 | 0.00 | 0.00 | 0.00 | 98 | 1019.0 |
| 20260905141829 | 19 | 109 | 4.8 | 6.4 | 0.00 | 0.00 | 0.00 | 98 | 1019.0 |
| 20260905141713 | 19 | 109 | 4.8 | 6.4 | 0.00 | 0.00 | 0.00 | 98 | 1018.9 |
| 20260905141618 | 18 | 109 | 4.8 | 6.4 | 0.00 | 0.00 | 0.00 | 98 | 1019.0 |
| 20260905141502 | 18 | 109 | 3.2 | 6.4 | 0.00 | 0.00 | 0.00 | 98 | 1019.0 |
| 20260905141408 | 18 | 109 | 3.2 | 6.4 | 0.00 | 0.00 | 0.00 | 98 | 1019.0 |
| 20260905141332 | 18 | 109 | 3.2 | 6.4 | 0.00 | 0.00 | 0.00 | 98 | 1019.0 |
| 20260905141219 | 18 | 109 | 1.6 | 6.4 | 0.00 | 0.00 | 0.00 | 98 | 1019.0 |
| 20260905141122 | 18 | 109 | 1.6 | 6.4 | 0.00 | 0.00 | 0.00 | 98 | 1019.0 |
| 20260905141000 | 18 | 109 | 3.2 | 6.4 | 0.00 | 0.00 | 0.00 | 98 | 1019.1 |
| 20260905140904 | 18 | 109 | 3.2 | 6.4 | 0.00 | 0.00 | 0.00 | 98 | 1019.1 |
| 20260905140809 | 18 | 109 | 3.2 | 6.4 | 0.00 | 0.00 | 0.00 | 98 | 1019.1 |
| 20260905140714 | 18 | 109 | 3.2 | 6.4 | 0.00 | 0.00 | 0.00 | 98 | 1019.1 |
| 20260905140603 | 18 | 109 | 3.2 | 9.7 | 0.00 | 0.00 | 0.00 | 98 | 1019.1 |
| 20260905140528 | 18 | 109 | 3.2 | 9.7 | 0.00 | 0.00 | 0.00 | 98 | 1019.1 |
| 20260905140411 | 18 | 109 | 3.2 | 9.7 | 0.00 | 0.00 | 0.00 | 98 | 1019.1 |
| 20260905140336 | 18 | 109 | 4.8 | 9.7 | 0.00 | 0.00 | 0.00 | 98 | 1019.1 |
| 20260905140200 | 18 | 109 | 4.8 | 9.7 | 0.00 | 0.00 | 0.00 | 98 | 1019.0 |
| 20260905140105 | 18 | 109 | 3.2 | 9.7 | 0.00 | 0.00 | 0.00 | 98 | 1019.0 |
| 20260905140010 | 18 | 109 | 4.8 | 9.7 | 0.00 | 0.00 | 0.00 | 98 | 1019.0 |
| 20260905135859 | 18 | 109 | 4.8 | 9.7 | 0.00 | 0.00 | 0.00 | 98 | 1019.0 |
| 20260905135824 | 18 | 110 | 4.8 | 9.7 | 0.00 | 0.00 | 0.00 | 98 | 1018.8 |
| 20260905135729 | 18 | 109 | 4.8 | 9.7 | 0.00 | 0.00 | 0.00 | 98 | 1018.8 |
| 20260905135632 | 18 | 109 | 6.4 | 9.7 | 0.00 | 0.00 | 0.00 | 98 | 1019.0 |
| 20260905135515 | 18 | 109 | 4.8 | 9.7 | 0.00 | 0.00 | 0.00 | 98 | 1018.9 |
| 20260905135422 | 18 | 111 | 4.8 | 6.4 | 0.00 | 0.00 | 0.00 | 98 | 1018.9 |
| 20260905135259 | 18 | 111 | 4.8 | 6.4 | 0.00 | 0.00 | 0.00 | 98 | 1018.9 |
| 20260905135208 | 18 | 111 | 4.8 | 6.4 | 0.00 | 0.00 | 0.00 | 98 | 1018.9 |
| 20260905135133 | 18 | 111 | 4.8 | 6.4 | 0.00 | 0.00 | 0.00 | 98 | 1018.8 |
| 20260905135036 | 18 | 111 | 4.8 | 6.4 | 0.00 | 0.00 | 0.00 | 98 | 1018.8 |
| 20260905134900 | 18 | 112 | 4.8 | 6.4 | 0.00 | 0.00 | 0.00 | 98 | 1018.8 |
| 20260905134805 | 18 | 113 | 4.8 | 6.4 | 0.00 | 0.00 | 0.00 | 98 | 1018.8 |
| 20260905134710 | 18 | 112 | 4.8 | 6.4 | 0.00 | 0.00 | 0.00 | 98 | 1018.8 |
| 20260905134615 | 18 | 112 | 4.8 | 6.4 | 0.00 | 0.00 | 0.00 | 98 | 1018.9 |
| 20260905134524 | 18 | 113 | 3.2 | 6.4 | 0.00 | 0.00 | 0.00 | 98 | 1018.9 |
| 20260905134408 | 18 | 113 | 3.2 | 6.4 | 0.00 | 0.00 | 0.00 | 98 | 1018.9 |
| 20260905134314 | 18 | 113 | 3.2 | 6.4 | 0.00 | 0.00 | 0.00 | 98 | 1018.9 |
| 20260905134218 | 18 | 113 | 3.2 | 9.7 | 0.00 | 0.00 | 0.00 | 98 | 1018.7 |
| 20260905134102 | 18 | 113 | 3.2 | 9.7 | 0.00 | 0.00 | 0.00 | 98 | 1018.7 |
| 20260905134007 | 18 | 113 | 3.2 | 9.7 | 0.00 | 0.00 | 0.00 | 98 | 1018.7 |
| 20260905133932 | 18 | 113 | 3.2 | 9.7 | 0.00 | 0.00 | 0.00 | 98 | 1018.7 |
| 20260905133820 | 18 | 113 | 4.8 | 9.7 | 0.00 | 0.00 | 0.00 | 98 | 1018.7 |
| 20260905133657 | 18 | 113 | 4.8 | 9.7 | 0.00 | 0.00 | 0.00 | 98 | 1018.7 |
| 20260905133622 | 18 | 114 | 4.8 | 9.7 | 0.00 | 0.00 | 0.00 | 98 | 1018.7 |
| 20260905133459 | 18 | 98 | 4.8 | 9.7 | 0.00 | 0.00 | 0.00 | 98 | 1018.7 |
| 20260905133404 | 18 | 110 | 4.8 | 9.7 | 0.00 | 0.00 | 0.00 | 98 | 1018.7 |
| 20260905133309 | 18 | 113 | 4.8 | 6.4 | 0.00 | 0.00 | 0.00 | 98 | 1018.7 |
| 20260905133157 | 18 | 113 | 3.2 | 6.4 | 0.00 | 0.00 | 0.00 | 98 | 1018.7 |
| 20260905133122 | 18 | 114 | 3.2 | 6.4 | 0.00 | 0.00 | 0.00 | 98 | 1018.7 |
| 20260905133000 | 18 | 114 | 3.2 | 6.4 | 0.00 | 0.00 | 0.00 | 98 | 1018.6 |
| 20260905132903 | 18 | 113 | 4.8 | 6.4 | 0.00 | 0.00 | 0.00 | 98 | 1018.5 |
| 20260905132828 | 18 | 113 | 4.8 | 6.4 | 0.00 | 0.00 | 0.00 | 98 | 1018.5 |
| 20260905132732 | 18 | 115 | 4.8 | 6.4 | 0.00 | 0.00 | 0.00 | 98 | 1018.4 |
| 20260905132557 | 18 | 115 | 4.8 | 6.4 | 0.00 | 0.00 | 0.00 | 98 | 1018.4 |
| 20260905132505 | 18 | 115 | 4.8 | 6.4 | 0.00 | 0.00 | 0.00 | 98 | 1018.4 |
| 20260905132410 | 18 | 115 | 4.8 | 6.4 | 0.00 | 0.00 | 0.00 | 98 | 1018.4 |
| 20260905132334 | 18 | 115 | 4.8 | 6.4 | 0.00 | 0.00 | 0.00 | 98 | 1018.3 |
| 20260905132218 | 18 | 115 | 4.8 | 6.4 | 0.00 | 0.00 | 0.00 | 98 | 1018.3 |
| 20260905132143 | 18 | 115 | 4.8 | 6.4 | 0.00 | 0.00 | 0.00 | 98 | 1018.3 |
| 20260905131959 | 18 | 115 | 4.8 | 6.4 | 0.00 | 0.00 | 0.00 | 98 | 1018.2 |
| 20260905131904 | 18 | 116 | 3.2 | 6.4 | 0.00 | 0.00 | 0.00 | 98 | 1018.2 |
| 20260905131813 | 18 | 116 | 3.2 | 6.4 | 0.00 | 0.00 | 0.00 | 98 | 1018.2 |
| 20260905131658 | 18 | 116 | 3.2 | 6.4 | 0.00 | 0.00 | 0.00 | 98 | 1018.2 |
| 20260905131602 | 18 | 116 | 3.2 | 6.4 | 0.00 | 0.00 | 0.00 | 98 | 1018.2 |
| 20260905131507 | 18 | 116 | 4.8 | 9.7 | 0.00 | 0.00 | 0.00 | 98 | 1018.2 |
| 20260905131412 | 18 | 116 | 4.8 | 9.7 | 0.00 | 0.00 | 0.00 | 98 | 1018.2 |
| 20260905131301 | 18 | 117 | 4.8 | 9.7 | 0.00 | 0.00 | 0.00 | 98 | 1018.0 |
| 20260905131205 | 18 | 117 | 4.8 | 11.3 | 0.00 | 0.00 | 0.00 | 98 | 1018.0 |
| 20260905131110 | 18 | 117 | 4.8 | 11.3 | 0.00 | 0.00 | 0.00 | 98 | 1018.0 |
| 20260905131015 | 18 | 117 | 3.2 | 11.3 | 0.00 | 0.00 | 0.00 | 98 | 1018.0 |
| 20260905130900 | 18 | 117 | 4.8 | 11.3 | 0.00 | 0.00 | 0.00 | 98 | 1018.0 |
| 20260905130825 | 18 | 118 | 6.4 | 12.9 | 0.00 | 0.00 | 0.00 | 98 | 1018.0 |
| 20260905130708 | 18 | 113 | 6.4 | 14.5 | 0.00 | 0.00 | 0.00 | 98 | 1018.0 |
| 20260905130557 | 18 | 90 | 6.4 | 14.5 | 0.00 | 0.00 | 0.00 | 98 | 1017.9 |
| 20260905130502 | 18 | 99 | 8.0 | 14.5 | 0.00 | 0.00 | 0.00 | 98 | 1017.8 |
| 20260905130406 | 18 | 112 | 8.0 | 14.5 | 0.00 | 0.00 | 0.00 | 98 | 1017.7 |
| 20260905130310 | 18 | 109 | 8.0 | 14.5 | 0.00 | 0.00 | 0.00 | 98 | 1017.7 |
| 20260905130216 | 18 | 114 | 6.4 | 14.5 | 0.00 | 0.00 | 0.00 | 98 | 1017.7 |
| 20260905130104 | 18 | 120 | 8.0 | 14.5 | 0.00 | 0.00 | 0.00 | 98 | 1017.6 |
| 20260905130029 | 18 | 155 | 9.7 | 14.5 | 0.00 | 0.00 | 0.00 | 98 | 1017.6 |
| 20260905125913 | 18 | 111 | 9.7 | 14.5 | 0.00 | 0.00 | 0.00 | 98 | 1017.6 |
| 20260905125758 | 18 | 124 | 9.7 | 12.9 | 0.00 | 0.00 | 0.00 | 98 | 1017.5 |
| 20260905125702 | 18 | 109 | 8.0 | 12.9 | 0.00 | 0.00 | 0.00 | 98 | 1017.5 |
| 20260905125607 | 18 | 116 | 8.0 | 11.3 | 0.00 | 0.00 | 0.00 | 98 | 1017.5 |
| 20260905125512 | 18 | 123 | 8.0 | 11.3 | 0.00 | 0.00 | 0.00 | 98 | 1017.5 |
| 20260905125420 | 18 | 117 | 8.0 | 14.5 | 0.00 | 0.00 | 0.00 | 98 | 1017.6 |
| 20260905125258 | 18 | 117 | 8.0 | 14.5 | 0.00 | 0.00 | 0.00 | 98 | 1017.5 |
| 20260905125222 | 18 | 120 | 8.0 | 14.5 | 0.00 | 0.00 | 0.00 | 98 | 1017.5 |
| 20260905125106 | 18 | 105 | 6.4 | 14.5 | 0.00 | 0.00 | 0.00 | 98 | 1017.4 |
| 20260905125011 | 18 | 112 | 8.0 | 14.5 | 0.00 | 0.00 | 0.00 | 98 | 1017.4 |
| 20260905124915 | 18 | 108 | 8.0 | 14.5 | 0.00 | 0.00 | 0.00 | 98 | 1017.4 |
| 20260905124824 | 18 | 115 | 8.0 | 14.5 | 0.00 | 0.00 | 0.00 | 98 | 1017.3 |
| 20260905124707 | 18 | 107 | 8.0 | 14.5 | 0.00 | 0.00 | 0.00 | 98 | 1017.3 |
| 20260905124612 | 18 | 125 | 6.4 | 12.9 | 0.00 | 0.00 | 0.00 | 98 | 1017.3 |
| 20260905124456 | 18 | 134 | 6.4 | 12.9 | 0.00 | 0.00 | 0.00 | 98 | 1017.2 |
| 20260905124421 | 18 | 121 | 6.4 | 12.9 | 0.00 | 0.00 | 0.00 | 98 | 1017.2 |
| 20260905124259 | 18 | 132 | 6.4 | 12.9 | 0.00 | 0.00 | 0.00 | 97 | 1017.2 |
| 20260905124208 | 18 | 133 | 6.4 | 12.9 | 0.00 | 0.00 | 0.00 | 97 | 1017.2 |
| 20260905124113 | 18 | 130 | 6.4 | 12.9 | 0.00 | 0.00 | 0.00 | 97 | 1017.2 |
| 20260905124019 | 18 | 123 | 8.0 | 12.9 | 0.00 | 0.00 | 0.00 | 97 | 1017.2 |
| 20260905123902 | 18 | 108 | 6.4 | 12.9 | 0.00 | 0.00 | 0.00 | 98 | 1017.2 |
| 20260905123807 | 18 | 118 | 4.8 | 12.9 | 0.00 | 0.00 | 0.00 | 98 | 1017.2 |
| 20260905123732 | 18 | 123 | 4.8 | 12.9 | 0.00 | 0.00 | 0.00 | 98 | 1017.2 |
| 20260905123616 | 18 | 165 | 6.4 | 12.9 | 0.00 | 0.00 | 0.00 | 98 | 1017.3 |
| 20260905123504 | 18 | 175 | 6.4 | 12.9 | 0.00 | 0.00 | 0.00 | 98 | 1017.2 |
| 20260905123410 | 18 | 141 | 4.8 | 9.7 | 0.00 | 0.00 | 0.00 | 98 | 1017.2 |
| 20260905123314 | 18 | 132 | 3.2 | 6.4 | 0.00 | 0.00 | 0.00 | 98 | 1017.2 |
| 20260905123219 | 18 | 133 | 3.2 | 6.4 | 0.00 | 0.00 | 0.00 | 98 | 1017.3 |
| 20260905123103 | 18 | 133 | 3.2 | 6.4 | 0.00 | 0.00 | 0.00 | 98 | 1017.3 |
| 20260905123007 | 18 | 133 | 3.2 | 6.4 | 0.00 | 0.00 | 0.00 | 98 | 1017.3 |
| 20260905122856 | 18 | 148 | 3.2 | 8.0 | 0.00 | 0.00 | 0.00 | 98 | 1017.2 |
| 20260905122822 | 18 | 149 | 4.8 | 8.0 | 0.00 | 0.00 | 0.00 | 98 | 1017.2 |
| 20260905122700 | 18 | 150 | 4.8 | 8.0 | 0.00 | 0.00 | 0.00 | 98 | 1017.3 |
| 20260905122604 | 18 | 118 | 3.2 | 6.4 | 0.00 | 0.00 | 0.00 | 98 | 1017.3 |
| 20260905122509 | 18 | 129 | 3.2 | 6.4 | 0.00 | 0.00 | 0.00 | 98 | 1017.3 |
| 20260905122414 | 18 | 129 | 4.8 | 9.7 | 0.00 | 0.00 | 0.00 | 98 | 1017.3 |
| 20260905122306 | 18 | 129 | 4.8 | 9.7 | 0.00 | 0.00 | 0.00 | 98 | 1017.3 |
| 20260905122206 | 18 | 118 | 3.2 | 9.7 | 0.00 | 0.00 | 0.00 | 98 | 1017.4 |
| 20260905122130 | 18 | 117 | 4.8 | 9.7 | 0.00 | 0.00 | 0.00 | 98 | 1017.4 |
| 20260905122014 | 18 | 116 | 4.8 | 9.7 | 0.00 | 0.00 | 0.00 | 97 | 1017.5 |
| 20260905121919 | 18 | 112 | 4.8 | 9.7 | 0.00 | 0.00 | 0.00 | 97 | 1017.5 |
| 20260905121802 | 18 | 107 | 4.8 | 9.7 | 0.00 | 0.00 | 0.00 | 97 | 1017.6 |
| 20260905121707 | 18 | 106 | 4.8 | 9.7 | 0.00 | 0.00 | 0.00 | 98 | 1017.6 |
| 20260905121615 | 18 | 120 | 4.8 | 8.0 | 0.00 | 0.00 | 0.00 | 98 | 1017.5 |
| 20260905121500 | 18 | 121 | 4.8 | 8.0 | 0.00 | 0.00 | 0.00 | 98 | 1017.5 |
| 20260905121425 | 18 | 134 | 4.8 | 9.7 | 0.00 | 0.00 | 0.00 | 98 | 1017.5 |
| 20260905121309 | 18 | 135 | 4.8 | 11.3 | 0.00 | 0.00 | 0.00 | 98 | 1017.5 |
| 20260905121213 | 18 | 135 | 4.8 | 11.3 | 0.00 | 0.00 | 0.00 | 98 | 1017.5 |
| 20260905121058 | 18 | 136 | 4.8 | 11.3 | 0.00 | 0.00 | 0.00 | 98 | 1017.5 |
| 20260905121026 | 18 | 114 | 4.8 | 11.3 | 0.00 | 0.00 | 0.00 | 98 | 1017.5 |
| 20260905120910 | 18 | 114 | 4.8 | 11.3 | 0.00 | 0.00 | 0.00 | 98 | 1017.5 |
| 20260905120816 | 18 | 113 | 4.8 | 11.3 | 0.00 | 0.00 | 0.00 | 98 | 1017.4 |
| 20260905120700 | 18 | 110 | 4.8 | 11.3 | 0.00 | 0.00 | 0.00 | 98 | 1017.5 |
| 20260905120625 | 18 | 107 | 6.4 | 11.3 | 0.00 | 0.00 | 0.00 | 97 | 1017.5 |
| 20260905120509 | 18 | 109 | 6.4 | 11.3 | 0.00 | 0.00 | 0.00 | 97 | 1017.5 |
| 20260905120358 | 18 | 105 | 6.4 | 11.3 | 0.00 | 0.00 | 0.00 | 97 | 1017.5 |
| 20260905120322 | 18 | 108 | 6.4 | 11.3 | 0.00 | 0.00 | 0.00 | 97 | 1017.5 |
| 20260905120159 | 18 | 99 | 6.4 | 11.3 | 0.00 | 0.00 | 0.00 | 97 | 1017.6 |
| 20260905120104 | 18 | 109 | 6.4 | 11.3 | 0.00 | 0.00 | 0.00 | 97 | 1017.6 |
| 20260905120009 | 18 | 111 | 6.4 | 11.3 | 0.00 | 0.00 | 0.00 | 97 | 1017.6 |
| 20260905115914 | 18 | 102 | 6.4 | 11.3 | 0.00 | 0.00 | 0.00 | 97 | 1017.7 |
| 20260905115802 | 18 | 92 | 6.4 | 11.3 | 0.00 | 0.00 | 0.00 | 97 | 1017.7 |
| 20260905115727 | 18 | 100 | 6.4 | 12.9 | 0.00 | 0.00 | 0.00 | 97 | 1017.7 |
| 20260905115611 | 18 | 103 | 6.4 | 12.9 | 0.00 | 0.00 | 0.00 | 97 | 1017.7 |
| 20260905115536 | 18 | 96 | 6.4 | 12.9 | 0.00 | 0.00 | 0.00 | 97 | 1017.6 |
| 20260905115400 | 18 | 105 | 6.4 | 12.9 | 0.00 | 0.00 | 0.00 | 97 | 1017.6 |
| 20260905115326 | 18 | 103 | 6.4 | 12.9 | 0.00 | 0.00 | 0.00 | 97 | 1017.6 |
| 20260905115209 | 18 | 95 | 8.0 | 12.9 | 0.00 | 0.00 | 0.00 | 97 | 1017.6 |
| 20260905115058 | 18 | 92 | 8.0 | 12.9 | 0.00 | 0.00 | 0.00 | 97 | 1017.5 |
| 20260905115003 | 18 | 94 | 6.4 | 12.9 | 0.00 | 0.00 | 0.00 | 97 | 1017.6 |
| 20260905114906 | 18 | 84 | 6.4 | 12.9 | 0.00 | 0.00 | 0.00 | 97 | 1017.6 |
| 20260905114811 | 18 | 108 | 6.4 | 11.3 | 0.00 | 0.00 | 0.00 | 97 | 1017.5 |
| 20260905114736 | 18 | 94 | 6.4 | 11.3 | 0.00 | 0.00 | 0.00 | 97 | 1017.5 |
| 20260905114600 | 18 | 90 | 6.4 | 9.7 | 0.00 | 0.00 | 0.00 | 97 | 1017.5 |
| 20260905114505 | 18 | 71 | 4.8 | 9.7 | 0.00 | 0.00 | 0.00 | 97 | 1017.6 |
| 20260905114413 | 18 | 80 | 4.8 | 9.7 | 0.00 | 0.00 | 0.00 | 97 | 1017.6 |
| 20260905114258 | 18 | 103 | 4.8 | 9.7 | 0.00 | 0.00 | 0.00 | 97 | 1017.6 |
| 20260905114203 | 18 | 105 | 4.8 | 9.7 | 0.00 | 0.00 | 0.00 | 97 | 1017.6 |
| 20260905114107 | 18 | 105 | 6.4 | 9.7 | 0.00 | 0.00 | 0.00 | 97 | 1017.6 |
| 20260905114012 | 18 | 88 | 6.4 | 9.7 | 0.00 | 0.00 | 0.00 | 97 | 1017.6 |
| 20260905113901 | 18 | 78 | 4.8 | 9.7 | 0.00 | 0.00 | 0.00 | 97 | 1017.5 |
| 20260905113806 | 18 | 68 | 6.4 | 9.7 | 0.00 | 0.00 | 0.00 | 97 | 1017.5 |
| 20260905113710 | 18 | 84 | 6.4 | 9.7 | 0.00 | 0.00 | 0.00 | 97 | 1017.5 |
| 20260905113615 | 18 | 83 | 8.0 | 9.7 | 0.00 | 0.00 | 0.00 | 97 | 1017.4 |
| 20260905113520 | 18 | 77 | 8.0 | 11.3 | 0.00 | 0.00 | 0.00 | 97 | 1017.4 |
| 20260905113358 | 18 | 82 | 8.0 | 11.3 | 0.00 | 0.00 | 0.00 | 97 | 1017.3 |
| 20260905113306 | 18 | 92 | 8.0 | 11.3 | 0.00 | 0.00 | 0.00 | 97 | 1017.3 |
| 20260905113211 | 18 | 91 | 6.4 | 11.3 | 0.00 | 0.00 | 0.00 | 97 | 1017.3 |
| 20260905113056 | 18 | 96 | 8.0 | 11.3 | 0.00 | 0.00 | 0.00 | 97 | 1017.3 |
| 20260905113001 | 18 | 98 | 8.0 | 11.3 | 0.00 | 0.00 | 0.00 | 97 | 1017.3 |
| 20260905112906 | 18 | 107 | 6.4 | 11.3 | 0.00 | 0.00 | 0.00 | 97 | 1017.3 |
| 20260905112811 | 18 | 90 | 4.8 | 9.7 | 0.00 | 0.00 | 0.00 | 97 | 1017.3 |
| 20260905112700 | 18 | 103 | 4.8 | 9.7 | 0.00 | 0.00 | 0.00 | 97 | 1017.3 |
| 20260905112605 | 18 | 103 | 4.8 | 9.7 | 0.00 | 0.00 | 0.00 | 97 | 1017.4 |
| 20260905112510 | 18 | 103 | 3.2 | 9.7 | 0.00 | 0.00 | 0.00 | 97 | 1017.4 |
| 20260905112415 | 18 | 103 | 3.2 | 9.7 | 0.00 | 0.00 | 0.00 | 97 | 1017.3 |
| 20260905112321 | 18 | 71 | 4.8 | 9.7 | 0.00 | 0.00 | 0.00 | 97 | 1017.3 |
| 20260905112204 | 18 | 109 | 4.8 | 9.7 | 0.00 | 0.00 | 0.00 | 97 | 1017.3 |
| 20260905112112 | 18 | 88 | 4.8 | 9.7 | 0.00 | 0.00 | 0.00 | 97 | 1017.3 |
| 20260905112017 | 18 | 86 | 4.8 | 9.7 | 0.00 | 0.00 | 0.00 | 97 | 1017.2 |
| 20260905111921 | 18 | 85 | 4.8 | 9.7 | 0.00 | 0.00 | 0.00 | 97 | 1017.2 |
| 20260905111759 | 18 | 97 | 4.8 | 9.7 | 0.00 | 0.00 | 0.00 | 97 | 1017.2 |
| 20260905111704 | 18 | 98 | 4.8 | 9.7 | 0.00 | 0.00 | 0.00 | 97 | 1017.2 |
| 20260905111628 | 18 | 99 | 4.8 | 9.7 | 0.00 | 0.00 | 0.00 | 97 | 1017.2 |
| 20260905111512 | 18 | 99 | 4.8 | 9.7 | 0.00 | 0.00 | 0.00 | 97 | 1017.1 |
| 20260905111421 | 18 | 101 | 4.8 | 9.7 | 0.00 | 0.00 | 0.00 | 97 | 1017.1 |
| 20260905111305 | 18 | 105 | 4.8 | 9.7 | 0.00 | 0.00 | 0.00 | 97 | 1017.1 |
| 20260905111211 | 18 | 106 | 4.8 | 9.7 | 0.00 | 0.00 | 0.00 | 97 | 1017.1 |
| 20260905111115 | 18 | 106 | 4.8 | 9.7 | 0.00 | 0.00 | 0.00 | 97 | 1017.1 |
| 20260905111000 | 18 | 107 | 3.2 | 9.7 | 0.00 | 0.00 | 0.00 | 97 | 1017.1 |
| 20260905110905 | 18 | 97 | 4.8 | 9.7 | 0.00 | 0.00 | 0.00 | 97 | 1017.1 |
| 20260905110830 | 18 | 97 | 4.8 | 9.7 | 0.00 | 0.00 | 0.00 | 97 | 1017.1 |
| 20260905110718 | 18 | 97 | 6.4 | 9.7 | 0.00 | 0.00 | 0.00 | 97 | 1017.2 |
| 20260905110601 | 18 | 97 | 6.4 | 9.7 | 0.00 | 0.00 | 0.00 | 97 | 1017.2 |
| 20260905110506 | 18 | 97 | 6.4 | 9.7 | 0.00 | 0.00 | 0.00 | 97 | 1017.2 |
| 20260905110432 | 18 | 93 | 4.8 | 9.7 | 0.00 | 0.00 | 0.00 | 97 | 1017.2 |
| 20260905110315 | 18 | 95 | 4.8 | 6.4 | 0.00 | 0.00 | 0.00 | 97 | 1017.2 |
| 20260905110200 | 18 | 96 | 4.8 | 6.4 | 0.00 | 0.00 | 0.00 | 97 | 1017.1 |
| 20260905110109 | 18 | 96 | 3.2 | 6.4 | 0.00 | 0.00 | 0.00 | 97 | 1017.1 |
| 20260905110014 | 18 | 97 | 4.8 | 6.4 | 0.00 | 0.00 | 0.00 | 97 | 1017.1 |
| 20260905105858 | 18 | 97 | 4.8 | 6.4 | 0.00 | 0.00 | 0.00 | 97 | 1017.2 |
| 20260905105802 | 18 | 97 | 4.8 | 6.4 | 0.00 | 0.00 | 0.00 | 97 | 1017.2 |
| 20260905105707 | 18 | 117 | 4.8 | 6.4 | 0.00 | 0.00 | 0.00 | 97 | 1017.2 |
| 20260905105612 | 18 | 117 | 4.8 | 6.4 | 0.00 | 0.00 | 0.00 | 97 | 1017.1 |
| 20260905105501 | 18 | 117 | 4.8 | 6.4 | 0.00 | 0.00 | 0.00 | 97 | 1017.2 |
| 20260905105406 | 18 | 119 | 4.8 | 6.4 | 0.00 | 0.00 | 0.00 | 97 | 1017.2 |
| 20260905105331 | 18 | 120 | 4.8 | 6.4 | 0.00 | 0.00 | 0.00 | 97 | 1017.1 |
| 20260905105215 | 18 | 120 | 4.8 | 6.4 | 0.00 | 0.00 | 0.00 | 97 | 1017.1 |
| 20260905105140 | 18 | 120 | 4.8 | 6.4 | 0.00 | 0.00 | 0.00 | 97 | 1017.1 |
| 20260905104957 | 18 | 120 | 4.8 | 6.4 | 0.00 | 0.00 | 0.00 | 97 | 1017.2 |
| 20260905104902 | 18 | 121 | 3.2 | 6.4 | 0.00 | 0.00 | 0.00 | 97 | 1017.2 |
| 20260905104811 | 18 | 121 | 3.2 | 6.4 | 0.00 | 0.00 | 0.00 | 97 | 1017.2 |
| 20260905104656 | 18 | 121 | 3.2 | 6.4 | 0.00 | 0.00 | 0.00 | 97 | 1017.2 |
| 20260905104621 | 18 | 123 | 3.2 | 6.4 | 0.00 | 0.00 | 0.00 | 97 | 1017.2 |
| 20260905104459 | 18 | 123 | 3.2 | 6.4 | 0.00 | 0.00 | 0.00 | 97 | 1017.1 |
| 20260905104404 | 18 | 123 | 3.2 | 6.4 | 0.00 | 0.00 | 0.00 | 97 | 1017.1 |
| 20260905104329 | 18 | 123 | 3.2 | 6.4 | 0.00 | 0.00 | 0.00 | 97 | 1017.1 |
| 20260905104157 | 18 | 123 | 3.2 | 6.4 | 0.00 | 0.00 | 0.00 | 97 | 1017.0 |
| 20260905104122 | 18 | 123 | 3.2 | 6.4 | 0.00 | 0.00 | 0.00 | 97 | 1017.0 |
| 20260905104026 | 18 | 123 | 3.2 | 6.4 | 0.00 | 0.00 | 0.00 | 97 | 1017.0 |
| 20260905103910 | 18 | 123 | 4.8 | 6.4 | 0.00 | 0.00 | 0.00 | 97 | 1017.0 |
| 20260905103815 | 18 | 123 | 4.8 | 6.4 | 0.00 | 0.00 | 0.00 | 97 | 1016.9 |
| 20260905103656 | 18 | 127 | 3.2 | 4.8 | 0.00 | 0.00 | 0.00 | 97 | 1017.0 |
| 20260905103601 | 18 | 127 | 3.2 | 4.8 | 0.00 | 0.00 | 0.00 | 97 | 1016.9 |
| 20260905103510 | 18 | 127 | 3.2 | 4.8 | 0.00 | 0.00 | 0.00 | 97 | 1016.9 |
| 20260905103415 | 18 | 127 | 3.2 | 4.8 | 0.00 | 0.00 | 0.00 | 97 | 1017.0 |
| 20260905103319 | 18 | 127 | 3.2 | 4.8 | 0.00 | 0.00 | 0.00 | 97 | 1016.9 |
| 20260905103157 | 18 | 127 | 3.2 | 4.8 | 0.00 | 0.00 | 0.00 | 97 | 1017.0 |
| 20260905103102 | 18 | 127 | 3.2 | 4.8 | 0.00 | 0.00 | 0.00 | 97 | 1017.0 |
| 20260905103006 | 18 | 127 | 3.2 | 4.8 | 0.00 | 0.00 | 0.00 | 97 | 1017.0 |
| 20260905102916 | 18 | 127 | 3.2 | 4.8 | 0.00 | 0.00 | 0.00 | 97 | 1017.0 |
| 20260905102800 | 18 | 127 | 1.6 | 4.8 | 0.00 | 0.00 | 0.00 | 97 | 1017.1 |
| 20260905102705 | 18 | 127 | 1.6 | 4.8 | 0.00 | 0.00 | 0.00 | 97 | 1017.2 |
| 20260905102610 | 18 | 127 | 1.6 | 4.8 | 0.00 | 0.00 | 0.00 | 97 | 1017.2 |
| 20260905102534 | 18 | 127 | 1.6 | 4.8 | 0.00 | 0.00 | 0.00 | 97 | 1017.1 |
| 20260905102358 | 18 | 127 | 1.6 | 6.4 | 0.00 | 0.00 | 0.00 | 97 | 1017.0 |
| 20260905102306 | 18 | 127 | 3.2 | 6.4 | 0.00 | 0.00 | 0.00 | 97 | 1017.0 |
| 20260905102211 | 18 | 127 | 3.2 | 6.4 | 0.00 | 0.00 | 0.00 | 97 | 1017.0 |
| 20260905102056 | 18 | 127 | 3.2 | 6.4 | 0.00 | 0.00 | 0.00 | 97 | 1016.8 |
| 20260905102001 | 18 | 127 | 1.6 | 6.4 | 0.00 | 0.00 | 0.00 | 97 | 1016.8 |
| 20260905101926 | 18 | 127 | 1.6 | 6.4 | 0.00 | 0.00 | 0.00 | 97 | 1016.8 |
| 20260905101811 | 18 | 127 | 3.2 | 6.4 | 0.00 | 0.00 | 0.00 | 97 | 1016.8 |
| 20260905101659 | 18 | 127 | 4.8 | 6.4 | 0.00 | 0.00 | 0.00 | 97 | 1016.6 |
| 20260905101603 | 18 | 127 | 3.2 | 4.8 | 0.00 | 0.00 | 0.00 | 97 | 1016.6 |
| 20260905101508 | 18 | 128 | 3.2 | 4.8 | 0.00 | 0.00 | 0.00 | 97 | 1016.6 |
| 20260905101434 | 18 | 128 | 3.2 | 6.4 | 0.00 | 0.00 | 0.00 | 97 | 1016.6 |
| 20260905101317 | 18 | 128 | 3.2 | 6.4 | 0.00 | 0.00 | 0.00 | 97 | 1016.7 |
| 20260905101242 | 18 | 128 | 3.2 | 6.4 | 0.00 | 0.00 | 0.00 | 97 | 1016.6 |
| 20260905101059 | 18 | 128 | 3.2 | 6.4 | 0.00 | 0.00 | 0.00 | 97 | 1016.6 |
| 20260905101009 | 18 | 128 | 3.2 | 6.4 | 0.00 | 0.00 | 0.00 | 97 | 1016.6 |
| 20260905100913 | 18 | 128 | 3.2 | 6.4 | 0.00 | 0.00 | 0.00 | 97 | 1016.6 |
| 20260905100758 | 18 | 128 | 3.2 | 6.4 | 0.00 | 0.00 | 0.00 | 97 | 1016.5 |
| 20260905100722 | 18 | 128 | 3.2 | 6.4 | 0.00 | 0.00 | 0.00 | 97 | 1016.5 |
| 20260905100605 | 18 | 128 | 4.8 | 6.4 | 0.00 | 0.00 | 0.00 | 97 | 1016.5 |
| 20260905100509 | 18 | 128 | 4.8 | 6.4 | 0.00 | 0.00 | 0.00 | 97 | 1016.5 |
| 20260905100418 | 18 | 129 | 4.8 | 8.0 | 0.00 | 0.00 | 0.00 | 97 | 1016.4 |
| 20260905100323 | 18 | 129 | 4.8 | 8.0 | 0.00 | 0.00 | 0.00 | 97 | 1016.4 |
| 20260905100225 | 18 | 130 | 4.8 | 8.0 | 0.00 | 0.00 | 0.00 | 97 | 1016.4 |
| 20260905100108 | 18 | 131 | 4.8 | 8.0 | 0.00 | 0.00 | 0.00 | 97 | 1016.4 |
| 20260905100032 | 18 | 132 | 4.8 | 8.0 | 0.00 | 0.00 | 0.00 | 97 | 1016.4 |
| 20260905095856 | 18 | 134 | 4.8 | 8.0 | 0.00 | 0.00 | 0.00 | 97 | 1016.3 |
| 20260905095801 | 18 | 136 | 4.8 | 8.0 | 0.00 | 0.00 | 0.00 | 97 | 1016.3 |
| 20260905095706 | 18 | 136 | 3.2 | 8.0 | 0.00 | 0.00 | 0.00 | 97 | 1016.3 |
| 20260905095615 | 18 | 137 | 4.8 | 8.0 | 0.00 | 0.00 | 0.00 | 97 | 1016.3 |
| 20260905095500 | 18 | 137 | 4.8 | 9.7 | 0.00 | 0.00 | 0.00 | 97 | 1016.2 |
| 20260905095405 | 18 | 127 | 4.8 | 9.7 | 0.00 | 0.00 | 0.00 | 97 | 1016.3 |
| 20260905095330 | 18 | 127 | 3.2 | 9.7 | 0.00 | 0.00 | 0.00 | 97 | 1016.3 |
| 20260905095214 | 18 | 127 | 3.2 | 9.7 | 0.00 | 0.00 | 0.00 | 97 | 1016.3 |
| 20260905095058 | 18 | 127 | 4.8 | 9.7 | 0.00 | 0.00 | 0.00 | 97 | 1016.3 |
| 20260905095007 | 18 | 130 | 4.8 | 9.7 | 0.00 | 0.00 | 0.00 | 97 | 1016.3 |
| 20260905094912 | 18 | 113 | 4.8 | 9.7 | 0.00 | 0.00 | 0.00 | 97 | 1016.3 |
| 20260905094756 | 18 | 119 | 4.8 | 9.7 | 0.00 | 0.00 | 0.00 | 97 | 1016.3 |
| 20260905094721 | 18 | 119 | 4.8 | 9.7 | 0.00 | 0.00 | 0.00 | 97 | 1016.3 |
| 20260905094605 | 18 | 119 | 4.8 | 9.7 | 0.00 | 0.00 | 0.00 | 97 | 1016.2 |
| 20260905094511 | 18 | 119 | 3.2 | 9.7 | 0.00 | 0.00 | 0.00 | 96 | 1016.2 |
| 20260905094419 | 18 | 119 | 4.8 | 9.7 | 0.00 | 0.00 | 0.00 | 97 | 1016.3 |
| 20260905094257 | 18 | 121 | 4.8 | 9.7 | 0.00 | 0.00 | 0.00 | 97 | 1016.3 |
| 20260905094221 | 18 | 121 | 4.8 | 9.7 | 0.00 | 0.00 | 0.00 | 97 | 1016.3 |
| 20260905094059 | 18 | 126 | 3.2 | 6.4 | 0.00 | 0.00 | 0.00 | 96 | 1016.3 |
| 20260905094004 | 18 | 126 | 3.2 | 6.4 | 0.00 | 0.00 | 0.00 | 97 | 1016.2 |
| 20260905093909 | 18 | 126 | 4.8 | 6.4 | 0.00 | 0.00 | 0.00 | 96 | 1016.2 |
| 20260905093818 | 18 | 126 | 4.8 | 6.4 | 0.00 | 0.00 | 0.00 | 97 | 1016.3 |
| 20260905093742 | 18 | 125 | 4.8 | 6.4 | 0.00 | 0.00 | 0.00 | 97 | 1016.3 |
| 20260905093559 | 18 | 126 | 3.2 | 6.4 | 0.00 | 0.00 | 0.00 | 97 | 1016.3 |
| 20260905093524 | 18 | 126 | 3.2 | 6.4 | 0.00 | 0.00 | 0.00 | 97 | 1016.3 |
| 20260905093408 | 18 | 126 | 4.8 | 6.4 | 0.00 | 0.00 | 0.00 | 97 | 1016.3 |
| 20260905093332 | 18 | 124 | 4.8 | 6.4 | 0.00 | 0.00 | 0.00 | 97 | 1016.3 |
| 20260905093215 | 18 | 124 | 3.2 | 6.4 | 0.00 | 0.00 | 0.00 | 96 | 1016.3 |
| 20260905093104 | 18 | 126 | 3.2 | 6.4 | 0.00 | 0.00 | 0.00 | 96 | 1016.3 |
| 20260905093029 | 18 | 126 | 3.2 | 6.4 | 0.00 | 0.00 | 0.00 | 96 | 1016.3 |
| 20260905092913 | 18 | 126 | 3.2 | 6.4 | 0.00 | 0.00 | 0.00 | 96 | 1016.3 |
| 20260905092758 | 18 | 126 | 3.2 | 11.3 | 0.00 | 0.00 | 0.00 | 96 | 1016.4 |
| 20260905092703 | 18 | 126 | 4.8 | 11.3 | 0.00 | 0.00 | 0.00 | 96 | 1016.4 |
| 20260905092627 | 18 | 126 | 4.8 | 11.3 | 0.00 | 0.00 | 0.00 | 96 | 1016.4 |
| 20260905092531 | 18 | 126 | 4.8 | 11.3 | 0.00 | 0.00 | 0.00 | 96 | 1016.3 |
| 20260905092400 | 18 | 134 | 4.8 | 11.3 | 0.00 | 0.00 | 0.00 | 96 | 1016.3 |
| 20260905092323 | 18 | 134 | 4.8 | 11.3 | 0.00 | 0.00 | 0.00 | 96 | 1016.3 |
| 20260905092207 | 18 | 134 | 4.8 | 11.3 | 0.00 | 0.00 | 0.00 | 96 | 1016.3 |
| 20260905092112 | 18 | 120 | 6.4 | 11.3 | 0.00 | 0.00 | 0.00 | 96 | 1016.3 |
| 20260905092017 | 18 | 118 | 6.4 | 11.3 | 0.00 | 0.00 | 0.00 | 96 | 1016.3 |
| 20260905091942 | 18 | 111 | 6.4 | 11.3 | 0.00 | 0.00 | 0.00 | 96 | 1016.4 |
| 20260905091759 | 18 | 119 | 6.4 | 11.3 | 0.00 | 0.00 | 0.00 | 96 | 1016.4 |
| 20260905091708 | 18 | 130 | 6.4 | 12.9 | 0.00 | 0.00 | 0.00 | 96 | 1016.4 |
| 20260905091613 | 18 | 130 | 6.4 | 12.9 | 0.00 | 0.00 | 0.00 | 96 | 1016.4 |
| 20260905091458 | 18 | 132 | 6.4 | 12.9 | 0.00 | 0.00 | 0.00 | 96 | 1016.4 |
| 20260905091403 | 18 | 111 | 6.4 | 12.9 | 0.00 | 0.00 | 0.00 | 96 | 1016.4 |
| 20260905091308 | 18 | 112 | 6.4 | 12.9 | 0.00 | 0.00 | 0.00 | 96 | 1016.4 |
| 20260905091213 | 18 | 112 | 8.0 | 12.9 | 0.00 | 0.00 | 0.00 | 96 | 1016.5 |
| 20260905091102 | 18 | 109 | 8.0 | 12.9 | 0.00 | 0.00 | 0.00 | 96 | 1016.5 |
| 20260905091007 | 18 | 113 | 8.0 | 12.9 | 0.00 | 0.00 | 0.00 | 96 | 1016.5 |
| 20260905090912 | 18 | 116 | 8.0 | 12.9 | 0.00 | 0.00 | 0.00 | 96 | 1016.6 |
| 20260905090817 | 18 | 109 | 6.4 | 12.9 | 0.00 | 0.00 | 0.00 | 96 | 1016.6 |
| 20260905090742 | 18 | 108 | 4.8 | 12.9 | 0.00 | 0.00 | 0.00 | 96 | 1016.5 |
| 20260905090559 | 18 | 105 | 6.4 | 12.9 | 0.00 | 0.00 | 0.00 | 96 | 1016.6 |
| 20260905090509 | 18 | 100 | 6.4 | 12.9 | 0.00 | 0.00 | 0.00 | 96 | 1016.6 |
| 20260905090413 | 18 | 108 | 4.8 | 14.5 | 0.00 | 0.00 | 0.00 | 96 | 1016.6 |
| 20260905090318 | 18 | 122 | 4.8 | 14.5 | 0.00 | 0.00 | 0.00 | 96 | 1016.7 |
| 20260905090221 | 18 | 102 | 6.4 | 14.5 | 0.00 | 0.00 | 0.00 | 96 | 1016.7 |
| 20260905090059 | 18 | 106 | 8.0 | 14.5 | 0.00 | 0.00 | 0.00 | 96 | 1016.7 |
| 20260905090004 | 18 | 101 | 6.4 | 14.5 | 0.00 | 0.00 | 0.00 | 96 | 1016.8 |
| 20260905085909 | 18 | 111 | 6.4 | 14.5 | 0.00 | 0.00 | 0.00 | 96 | 1016.8 |
| 20260905085758 | 18 | 109 | 8.0 | 14.5 | 0.00 | 0.00 | 0.00 | 96 | 1016.7 |
| 20260905085703 | 18 | 115 | 8.0 | 14.5 | 0.00 | 0.00 | 0.00 | 96 | 1016.8 |
| 20260905085627 | 18 | 106 | 9.7 | 14.5 | 0.00 | 0.00 | 0.00 | 96 | 1016.8 |
| 20260905085511 | 18 | 85 | 8.0 | 14.5 | 0.00 | 0.00 | 0.00 | 96 | 1016.8 |
| 20260905085356 | 18 | 109 | 6.4 | 14.5 | 0.00 | 0.00 | 0.00 | 96 | 1016.9 |
| 20260905085305 | 18 | 99 | 6.4 | 14.5 | 0.00 | 0.00 | 0.00 | 96 | 1016.9 |
| 20260905085210 | 18 | 111 | 4.8 | 14.5 | 0.00 | 0.00 | 0.00 | 96 | 1016.9 |
| 20260905085135 | 18 | 107 | 6.4 | 14.5 | 0.00 | 0.00 | 0.00 | 96 | 1016.9 |
| 20260905084958 | 18 | 133 | 8.0 | 14.5 | 0.00 | 0.00 | 0.00 | 96 | 1016.9 |
| 20260905084904 | 18 | 107 | 8.0 | 14.5 | 0.00 | 0.00 | 0.00 | 96 | 1016.9 |
| 20260905084828 | 18 | 114 | 8.0 | 14.5 | 0.00 | 0.00 | 0.00 | 96 | 1016.9 |
| 20260905084710 | 18 | 127 | 8.0 | 14.5 | 0.00 | 0.00 | 0.00 | 96 | 1016.9 |
| 20260905084616 | 18 | 126 | 8.0 | 11.3 | 0.00 | 0.00 | 0.00 | 96 | 1016.8 |
| 20260905084504 | 18 | 113 | 8.0 | 11.3 | 0.00 | 0.00 | 0.00 | 96 | 1016.8 |
| 20260905084409 | 18 | 123 | 6.4 | 11.3 | 0.00 | 0.00 | 0.00 | 96 | 1016.8 |
| 20260905084313 | 18 | 117 | 6.4 | 11.3 | 0.00 | 0.00 | 0.00 | 96 | 1016.8 |
| 20260905084158 | 18 | 110 | 8.0 | 11.3 | 0.00 | 0.00 | 0.00 | 96 | 1016.9 |
| 20260905084103 | 18 | 121 | 6.4 | 11.3 | 0.00 | 0.00 | 0.00 | 96 | 1016.8 |
| 20260905084028 | 18 | 107 | 6.4 | 11.3 | 0.00 | 0.00 | 0.00 | 96 | 1016.8 |
| 20260905083856 | 18 | 128 | 8.0 | 11.3 | 0.00 | 0.00 | 0.00 | 95 | 1016.8 |
| 20260905083801 | 18 | 107 | 6.4 | 11.3 | 0.00 | 0.00 | 0.00 | 96 | 1016.9 |
| 20260905083706 | 18 | 108 | 4.8 | 11.3 | 0.00 | 0.00 | 0.00 | 95 | 1016.9 |
| 20260905083611 | 18 | 130 | 4.8 | 11.3 | 0.00 | 0.00 | 0.00 | 96 | 1016.8 |
| 20260905083515 | 18 | 131 | 4.8 | 11.3 | 0.00 | 0.00 | 0.00 | 95 | 1016.9 |
| 20260905083400 | 18 | 131 | 4.8 | 11.3 | 0.00 | 0.00 | 0.00 | 95 | 1016.9 |
| 20260905083307 | 18 | 136 | 4.8 | 11.3 | 0.00 | 0.00 | 0.00 | 95 | 1016.9 |
| 20260905083211 | 18 | 136 | 4.8 | 11.3 | 0.00 | 0.00 | 0.00 | 95 | 1016.9 |
| 20260905083056 | 18 | 136 | 4.8 | 11.3 | 0.00 | 0.00 | 0.00 | 96 | 1017.0 |
| 20260905083021 | 18 | 138 | 4.8 | 11.3 | 0.00 | 0.00 | 0.00 | 95 | 1016.9 |
| 20260905082905 | 18 | 123 | 4.8 | 11.3 | 0.00 | 0.00 | 0.00 | 95 | 1016.9 |
| 20260905082830 | 18 | 126 | 4.8 | 11.3 | 0.00 | 0.00 | 0.00 | 96 | 1016.9 |
| 20260905082733 | 18 | 125 | 6.4 | 14.5 | 0.00 | 0.00 | 0.00 | 96 | 1016.9 |
| 20260905082601 | 18 | 123 | 6.4 | 14.5 | 0.00 | 0.00 | 0.00 | 96 | 1016.9 |
| 20260905082506 | 18 | 138 | 6.4 | 14.5 | 0.00 | 0.00 | 0.00 | 96 | 1016.9 |
| 20260905082411 | 18 | 130 | 6.4 | 14.5 | 0.00 | 0.00 | 0.00 | 95 | 1017.0 |
| 20260905082256 | 18 | 125 | 6.4 | 14.5 | 0.00 | 0.00 | 0.00 | 95 | 1017.0 |
| 20260905082201 | 18 | 126 | 6.4 | 14.5 | 0.00 | 0.00 | 0.00 | 95 | 1017.0 |
| 20260905082105 | 18 | 116 | 8.0 | 14.5 | 0.00 | 0.00 | 0.00 | 95 | 1017.0 |
| 20260905082013 | 18 | 127 | 9.7 | 14.5 | 0.00 | 0.00 | 0.00 | 95 | 1017.0 |
| 20260905081918 | 18 | 109 | 8.0 | 14.5 | 0.00 | 0.00 | 0.00 | 95 | 1017.0 |
| 20260905081803 | 18 | 119 | 8.0 | 11.3 | 0.00 | 0.00 | 0.00 | 95 | 1017.0 |
| 20260905081706 | 18 | 117 | 6.4 | 11.3 | 0.00 | 0.00 | 0.00 | 95 | 1017.0 |
| 20260905081611 | 18 | 117 | 6.4 | 11.3 | 0.00 | 0.00 | 0.00 | 95 | 1017.0 |
| 20260905081537 | 18 | 116 | 6.4 | 11.3 | 0.00 | 0.00 | 0.00 | 95 | 1017.0 |
| 20260905081400 | 18 | 125 | 6.4 | 11.3 | 0.00 | 0.00 | 0.00 | 95 | 1017.1 |
| 20260905081309 | 18 | 126 | 8.0 | 11.3 | 0.00 | 0.00 | 0.00 | 95 | 1017.1 |
| 20260905081213 | 18 | 115 | 8.0 | 11.3 | 0.00 | 0.00 | 0.00 | 95 | 1017.1 |
| 20260905081118 | 18 | 104 | 6.4 | 11.3 | 0.00 | 0.00 | 0.00 | 95 | 1017.0 |
| 20260905081043 | 18 | 134 | 4.8 | 11.3 | 0.00 | 0.00 | 0.00 | 95 | 1017.1 |
| 20260905080859 | 18 | 116 | 4.8 | 11.3 | 0.00 | 0.00 | 0.00 | 95 | 1017.0 |
| 20260905080804 | 18 | 116 | 4.8 | 11.3 | 0.00 | 0.00 | 0.00 | 95 | 1017.0 |
| 20260905080728 | 18 | 117 | 4.8 | 11.3 | 0.00 | 0.00 | 0.00 | 95 | 1017.0 |
| 20260905080556 | 18 | 122 | 4.8 | 11.3 | 0.00 | 0.00 | 0.00 | 95 | 1017.0 |
| 20260905080500 | 18 | 122 | 4.8 | 11.3 | 0.00 | 0.00 | 0.00 | 95 | 1017.1 |
| 20260905080404 | 18 | 133 | 4.8 | 11.3 | 0.00 | 0.00 | 0.00 | 95 | 1017.0 |
| 20260905080329 | 18 | 133 | 6.4 | 11.3 | 0.00 | 0.00 | 0.00 | 95 | 1017.0 |
| 20260905080214 | 18 | 132 | 8.0 | 11.3 | 0.00 | 0.00 | 0.00 | 95 | 1017.1 |
| 20260905080058 | 18 | 115 | 6.4 | 11.3 | 0.00 | 0.00 | 0.00 | 95 | 1017.0 |
| 20260905080005 | 18 | 123 | 6.4 | 11.3 | 0.00 | 0.00 | 0.00 | 95 | 1017.1 |
| 20260905075909 | 18 | 132 | 6.4 | 11.3 | 0.00 | 0.00 | 0.00 | 95 | 1017.1 |
| 20260905075813 | 18 | 127 | 6.4 | 11.3 | 0.00 | 0.00 | 0.00 | 95 | 1017.1 |
| 20260905075718 | 18 | 135 | 6.4 | 11.3 | 0.00 | 0.00 | 0.00 | 95 | 1017.2 |
| 20260905075601 | 18 | 137 | 6.4 | 11.3 | 0.00 | 0.00 | 0.00 | 95 | 1017.1 |
| 20260905075505 | 18 | 117 | 6.4 | 14.5 | 0.00 | 0.00 | 0.00 | 95 | 1017.1 |
| 20260905075410 | 18 | 107 | 4.8 | 14.5 | 0.00 | 0.00 | 0.00 | 95 | 1017.1 |
| 20260905075259 | 18 | 109 | 4.8 | 14.5 | 0.00 | 0.00 | 0.00 | 95 | 1017.2 |
| 20260905075203 | 18 | 107 | 6.4 | 14.5 | 0.00 | 0.00 | 0.00 | 95 | 1017.1 |
| 20260905075128 | 18 | 108 | 8.0 | 14.5 | 0.00 | 0.00 | 0.00 | 95 | 1017.1 |
| 20260905075010 | 18 | 106 | 6.4 | 14.5 | 0.00 | 0.00 | 0.00 | 95 | 1017.2 |
| 20260905074915 | 18 | 103 | 4.8 | 14.5 | 0.00 | 0.00 | 0.00 | 95 | 1017.1 |
| 20260905074800 | 18 | 120 | 8.0 | 14.5 | 0.00 | 0.00 | 0.00 | 95 | 1017.2 |
| 20260905074709 | 18 | 103 | 9.7 | 14.5 | 0.00 | 0.00 | 0.00 | 95 | 1017.2 |
| 20260905074614 | 18 | 116 | 8.0 | 12.9 | 0.00 | 0.00 | 0.00 | 95 | 1017.2 |
| 20260905074519 | 18 | 111 | 8.0 | 12.9 | 0.00 | 0.00 | 0.00 | 95 | 1017.2 |
| 20260905074403 | 18 | 105 | 6.4 | 12.9 | 0.00 | 0.00 | 0.00 | 95 | 1017.1 |
| 20260905074327 | 18 | 138 | 6.4 | 12.9 | 0.00 | 0.00 | 0.00 | 95 | 1017.1 |
| 20260905074210 | 18 | 102 | 4.8 | 11.3 | 0.00 | 0.00 | 0.00 | 95 | 1017.1 |
| 20260905074136 | 18 | 136 | 4.8 | 11.3 | 0.00 | 0.00 | 0.00 | 95 | 1017.1 |
| 20260905074023 | 18 | 116 | 4.8 | 11.3 | 0.00 | 0.00 | 0.00 | 95 | 1017.0 |
| 20260905073906 | 18 | 117 | 6.4 | 11.3 | 0.00 | 0.00 | 0.00 | 95 | 1017.0 |
| 20260905073811 | 18 | 115 | 8.0 | 11.3 | 0.00 | 0.00 | 0.00 | 95 | 1017.0 |
| 20260905073736 | 18 | 112 | 8.0 | 11.3 | 0.00 | 0.00 | 0.00 | 95 | 1017.0 |
| 20260905073600 | 18 | 131 | 8.0 | 11.3 | 0.00 | 0.00 | 0.00 | 95 | 1017.0 |
| 20260905073505 | 18 | 118 | 8.0 | 11.3 | 0.00 | 0.00 | 0.00 | 95 | 1017.0 |
| 20260905073409 | 18 | 114 | 4.8 | 11.3 | 0.00 | 0.00 | 0.00 | 95 | 1017.0 |
| 20260905073258 | 18 | 127 | 4.8 | 8.0 | 0.00 | 0.00 | 0.00 | 95 | 1016.9 |
| 20260905073222 | 18 | 127 | 3.2 | 8.0 | 0.00 | 0.00 | 0.00 | 95 | 1017.0 |
| 20260905073105 | 18 | 146 | 1.6 | 8.0 | 0.00 | 0.00 | 0.00 | 95 | 1016.9 |
| 20260905073010 | 18 | 147 | 3.2 | 8.0 | 0.00 | 0.00 | 0.00 | 95 | 1016.9 |
| 20260905072915 | 18 | 147 | 3.2 | 8.0 | 0.00 | 0.00 | 0.00 | 95 | 1016.9 |
| 20260905072820 | 18 | 147 | 4.8 | 8.0 | 0.00 | 0.00 | 0.00 | 95 | 1016.9 |
| 20260905072708 | 18 | 148 | 4.8 | 8.0 | 0.00 | 0.00 | 0.00 | 95 | 1016.9 |
| 20260905072614 | 18 | 131 | 4.8 | 11.3 | 0.00 | 0.00 | 0.00 | 95 | 1016.9 |
| 20260905072518 | 18 | 127 | 4.8 | 11.3 | 0.00 | 0.00 | 0.00 | 95 | 1016.9 |
| 20260905072356 | 18 | 124 | 3.2 | 11.3 | 0.00 | 0.00 | 0.00 | 95 | 1017.0 |
| 20260905072321 | 18 | 124 | 4.8 | 11.3 | 0.00 | 0.00 | 0.00 | 95 | 1017.0 |
| 20260905072159 | 18 | 119 | 6.4 | 11.3 | 0.00 | 0.00 | 0.00 | 95 | 1017.0 |
| 20260905072108 | 18 | 110 | 6.4 | 11.3 | 0.00 | 0.00 | 0.00 | 95 | 1017.0 |
| 20260905072034 | 18 | 107 | 6.4 | 11.3 | 0.00 | 0.00 | 0.00 | 95 | 1017.0 |
| 20260905071917 | 18 | 123 | 6.4 | 11.3 | 0.00 | 0.00 | 0.00 | 95 | 1017.0 |
| 20260905071842 | 18 | 123 | 6.4 | 11.3 | 0.00 | 0.00 | 0.00 | 95 | 1016.9 |
| 20260905071659 | 18 | 128 | 4.8 | 8.0 | 0.00 | 0.00 | 0.00 | 95 | 1016.9 |
| 20260905071604 | 18 | 128 | 4.8 | 6.4 | 0.00 | 0.00 | 0.00 | 95 | 1017.0 |
| 20260905071508 | 18 | 128 | 3.2 | 11.3 | 0.00 | 0.00 | 0.00 | 95 | 1017.0 |
| 20260905071357 | 18 | 117 | 3.2 | 11.3 | 0.00 | 0.00 | 0.00 | 95 | 1016.9 |
| 20260905071302 | 18 | 117 | 3.2 | 11.3 | 0.00 | 0.00 | 0.00 | 95 | 1016.9 |
| 20260905071207 | 18 | 117 | 1.6 | 11.3 | 0.00 | 0.00 | 0.00 | 95 | 1016.9 |
| 20260905071113 | 18 | 117 | 3.2 | 11.3 | 0.00 | 0.00 | 0.00 | 95 | 1016.9 |
| 20260905071017 | 18 | 117 | 4.8 | 11.3 | 0.00 | 0.00 | 0.00 | 95 | 1016.9 |
| 20260905070920 | 18 | 116 | 4.8 | 11.3 | 0.00 | 0.00 | 0.00 | 95 | 1017.0 |
| 20260905070803 | 18 | 115 | 6.4 | 11.3 | 0.00 | 0.00 | 0.00 | 95 | 1016.9 |
| 20260905070711 | 18 | 115 | 6.4 | 11.3 | 0.00 | 0.00 | 0.00 | 95 | 1016.9 |
| 20260905070615 | 18 | 108 | 6.4 | 11.3 | 0.00 | 0.00 | 0.00 | 95 | 1016.8 |
| 20260905070521 | 18 | 119 | 4.8 | 11.3 | 0.00 | 0.00 | 0.00 | 95 | 1016.9 |
| 20260905070358 | 18 | 124 | 4.8 | 11.3 | 0.00 | 0.00 | 0.00 | 95 | 1016.9 |
| 20260905070323 | 18 | 124 | 4.8 | 11.3 | 0.00 | 0.00 | 0.00 | 95 | 1016.9 |
| 20260905070200 | 18 | 124 | 6.4 | 11.3 | 0.00 | 0.00 | 0.00 | 95 | 1016.9 |
| 20260905070109 | 18 | 108 | 8.0 | 11.3 | 0.00 | 0.00 | 0.00 | 95 | 1016.9 |
| 20260905070014 | 18 | 111 | 6.4 | 11.3 | 0.00 | 0.00 | 0.00 | 95 | 1017.0 |
| 20260905065859 | 18 | 119 | 4.8 | 12.9 | 0.00 | 0.00 | 0.00 | 95 | 1017.0 |
| 20260905065804 | 18 | 120 | 6.4 | 12.9 | 0.00 | 0.00 | 0.00 | 95 | 1017.0 |
| 20260905065709 | 18 | 130 | 6.4 | 12.9 | 0.00 | 0.00 | 0.00 | 95 | 1017.0 |
| 20260905065558 | 18 | 134 | 8.0 | 12.9 | 0.00 | 0.00 | 0.00 | 95 | 1017.0 |
| 20260905065504 | 18 | 108 | 6.4 | 12.9 | 0.00 | 0.00 | 0.00 | 95 | 1017.0 |
| 20260905065408 | 18 | 113 | 6.4 | 12.9 | 0.00 | 0.00 | 0.00 | 95 | 1017.0 |
| 20260905065313 | 18 | 117 | 6.4 | 12.9 | 0.00 | 0.00 | 0.00 | 95 | 1017.0 |
| 20260905065219 | 18 | 102 | 9.7 | 12.9 | 0.00 | 0.00 | 0.00 | 95 | 1017.0 |
| 20260905065102 | 18 | 113 | 9.7 | 12.9 | 0.00 | 0.00 | 0.00 | 95 | 1017.0 |
| 20260905065006 | 18 | 113 | 9.7 | 12.9 | 0.00 | 0.00 | 0.00 | 95 | 1017.0 |
| 20260905064915 | 18 | 118 | 8.0 | 12.9 | 0.00 | 0.00 | 0.00 | 95 | 1017.0 |
| 20260905064820 | 18 | 107 | 8.0 | 12.9 | 0.00 | 0.00 | 0.00 | 95 | 1017.0 |
| 20260905064658 | 18 | 113 | 9.7 | 12.9 | 0.00 | 0.00 | 0.00 | 95 | 1017.0 |
| 20260905064602 | 18 | 96 | 9.7 | 12.9 | 0.00 | 0.00 | 0.00 | 95 | 1017.0 |
| 20260905064527 | 18 | 105 | 8.0 | 12.9 | 0.00 | 0.00 | 0.00 | 95 | 1017.0 |
| 20260905064431 | 18 | 88 | 6.4 | 12.9 | 0.00 | 0.00 | 0.00 | 95 | 1016.9 |
| 20260905064259 | 18 | 117 | 8.0 | 12.9 | 0.00 | 0.00 | 0.00 | 95 | 1017.1 |
| 20260905064225 | 18 | 120 | 8.0 | 12.9 | 0.00 | 0.00 | 0.00 | 95 | 1017.0 |
| 20260905064109 | 18 | 88 | 8.0 | 12.9 | 0.00 | 0.00 | 0.00 | 95 | 1017.0 |
| 20260905064014 | 18 | 110 | 6.4 | 12.9 | 0.00 | 0.00 | 0.00 | 95 | 1016.9 |
| 20260905063919 | 18 | 95 | 8.0 | 12.9 | 0.00 | 0.00 | 0.00 | 95 | 1017.0 |
| 20260905063823 | 18 | 100 | 9.7 | 12.9 | 0.00 | 0.00 | 0.00 | 95 | 1017.0 |
| 20260905063705 | 18 | 79 | 9.7 | 14.5 | 0.00 | 0.00 | 0.00 | 94 | 1017.0 |
| 20260905063610 | 18 | 102 | 9.7 | 14.5 | 0.00 | 0.00 | 0.00 | 95 | 1017.1 |
| 20260905063458 | 18 | 92 | 8.0 | 14.5 | 0.00 | 0.00 | 0.00 | 95 | 1017.1 |
| 20260905063422 | 18 | 81 | 8.0 | 14.5 | 0.00 | 0.00 | 0.00 | 95 | 1017.1 |
| 20260905063300 | 18 | 90 | 8.0 | 14.5 | 0.00 | 0.00 | 0.00 | 94 | 1017.0 |
| 20260905063204 | 18 | 74 | 9.7 | 14.5 | 0.00 | 0.00 | 0.00 | 94 | 1017.0 |
| 20260905063108 | 18 | 99 | 8.0 | 14.5 | 0.00 | 0.00 | 0.00 | 94 | 1017.0 |
| 20260905063013 | 18 | 105 | 9.7 | 14.5 | 0.00 | 0.00 | 0.00 | 95 | 1017.0 |
| 20260905062902 | 18 | 103 | 11.3 | 14.5 | 0.00 | 0.00 | 0.00 | 95 | 1017.0 |
| 20260905062806 | 18 | 109 | 9.7 | 12.9 | 0.00 | 0.00 | 0.00 | 95 | 1017.0 |
| 20260905062711 | 18 | 86 | 8.0 | 12.9 | 0.00 | 0.00 | 0.00 | 95 | 1017.1 |
| 20260905062615 | 18 | 94 | 9.7 | 12.9 | 0.00 | 0.00 | 0.00 | 95 | 1017.0 |
| 20260905062459 | 18 | 101 | 8.0 | 14.5 | 0.00 | 0.00 | 0.00 | 95 | 1017.0 |
| 20260905062405 | 18 | 95 | 8.0 | 14.5 | 0.00 | 0.00 | 0.00 | 95 | 1017.0 |
| 20260905062313 | 18 | 85 | 8.0 | 14.5 | 0.00 | 0.00 | 0.00 | 95 | 1017.0 |
| 20260905062218 | 18 | 111 | 8.0 | 14.5 | 0.00 | 0.00 | 0.00 | 95 | 1016.9 |
| 20260905062143 | 18 | 92 | 6.4 | 14.5 | 0.00 | 0.00 | 0.00 | 95 | 1016.9 |
| 20260905062001 | 18 | 131 | 8.0 | 14.5 | 0.00 | 0.00 | 0.00 | 95 | 1016.9 |
| 20260905061905 | 18 | 114 | 8.0 | 14.5 | 0.00 | 0.00 | 0.00 | 95 | 1016.9 |
| 20260905061809 | 18 | 111 | 9.7 | 14.5 | 0.00 | 0.00 | 0.00 | 95 | 1016.9 |
| 20260905061658 | 18 | 110 | 11.3 | 14.5 | 0.00 | 0.00 | 0.00 | 95 | 1016.8 |
| 20260905061602 | 18 | 108 | 9.7 | 17.7 | 0.00 | 0.00 | 0.00 | 95 | 1016.9 |
| 20260905061507 | 18 | 116 | 8.0 | 17.7 | 0.00 | 0.00 | 0.00 | 95 | 1016.9 |
| 20260905061412 | 18 | 132 | 8.0 | 17.7 | 0.00 | 0.00 | 0.00 | 95 | 1016.9 |
| 20260905061337 | 18 | 92 | 9.7 | 17.7 | 0.00 | 0.00 | 0.00 | 95 | 1016.9 |
| 20260905061221 | 18 | 116 | 9.7 | 20.9 | 0.00 | 0.00 | 0.00 | 95 | 1016.9 |
| 20260905061058 | 18 | 108 | 11.3 | 20.9 | 0.00 | 0.00 | 0.00 | 95 | 1016.9 |
| 20260905061005 | 18 | 98 | 9.7 | 20.9 | 0.00 | 0.00 | 0.00 | 95 | 1016.9 |
| 20260905060910 | 18 | 97 | 8.0 | 20.9 | 0.00 | 0.00 | 0.00 | 95 | 1016.9 |
| 20260905060815 | 18 | 137 | 11.3 | 20.9 | 0.00 | 0.00 | 0.00 | 95 | 1016.9 |
| 20260905060741 | 18 | 98 | 12.9 | 20.9 | 0.00 | 0.00 | 0.00 | 95 | 1016.8 |
| 20260905060558 | 18 | 84 | 14.5 | 20.9 | 0.00 | 0.00 | 0.00 | 95 | 1016.8 |
| 20260905060503 | 18 | 101 | 14.5 | 20.9 | 0.00 | 0.00 | 0.00 | 95 | 1016.8 |
| 20260905060428 | 18 | 91 | 14.5 | 20.9 | 0.00 | 0.00 | 0.00 | 95 | 1016.8 |
| 20260905060316 | 18 | 100 | 12.9 | 19.3 | 0.00 | 0.00 | 0.00 | 95 | 1016.7 |
| 20260905060241 | 18 | 106 | 12.9 | 19.3 | 0.00 | 0.00 | 0.00 | 95 | 1016.8 |
| 20260905060058 | 18 | 100 | 12.9 | 19.3 | 0.00 | 0.00 | 0.00 | 95 | 1016.7 |
| 20260905060004 | 18 | 92 | 12.9 | 19.3 | 0.00 | 0.00 | 0.00 | 95 | 1016.8 |
| 20260905055908 | 18 | 82 | 12.9 | 19.3 | 0.00 | 0.00 | 0.00 | 95 | 1016.8 |
| 20260905055833 | 18 | 94 | 12.9 | 19.3 | 0.00 | 0.00 | 0.00 | 95 | 1016.7 |
| 20260905055700 | 18 | 93 | 12.9 | 19.3 | 0.00 | 0.00 | 0.00 | 95 | 1016.7 |
| 20260905055606 | 18 | 100 | 12.9 | 19.3 | 0.00 | 0.00 | 0.00 | 95 | 1016.7 |
| 20260905055510 | 18 | 87 | 12.9 | 17.7 | 0.00 | 0.00 | 0.00 | 95 | 1016.7 |
| 20260905055415 | 18 | 109 | 11.3 | 17.7 | 0.00 | 0.00 | 0.00 | 95 | 1016.7 |
| 20260905055259 | 18 | 81 | 11.3 | 16.1 | 0.00 | 0.00 | 0.00 | 95 | 1016.6 |
| 20260905055204 | 19 | 98 | 11.3 | 16.1 | 0.00 | 0.00 | 0.00 | 95 | 1016.6 |
| 20260905055128 | 18 | 101 | 9.7 | 16.1 | 0.00 | 0.00 | 0.00 | 95 | 1016.6 |
| 20260905055036 | 18 | 101 | 9.7 | 16.1 | 0.00 | 0.00 | 0.00 | 95 | 1016.7 |
| 20260905054859 | 18 | 79 | 11.3 | 16.1 | 0.00 | 0.00 | 0.00 | 95 | 1016.6 |
| 20260905054804 | 18 | 112 | 11.3 | 16.1 | 0.00 | 0.00 | 0.00 | 95 | 1016.6 |
| 20260905054709 | 18 | 104 | 11.3 | 16.1 | 0.00 | 0.00 | 0.00 | 95 | 1016.6 |
| 20260905054614 | 18 | 92 | 9.7 | 14.5 | 0.00 | 0.00 | 0.00 | 95 | 1016.6 |
| 20260905054459 | 18 | 82 | 9.7 | 16.1 | 0.00 | 0.00 | 0.00 | 95 | 1016.6 |
| 20260905054427 | 18 | 114 | 8.0 | 16.1 | 0.00 | 0.00 | 0.00 | 95 | 1016.6 |
| 20260905054311 | 18 | 114 | 8.0 | 16.1 | 0.00 | 0.00 | 0.00 | 95 | 1016.6 |
| 20260905054236 | 18 | 108 | 9.7 | 16.1 | 0.00 | 0.00 | 0.00 | 95 | 1016.5 |
| 20260905054059 | 18 | 105 | 9.7 | 16.1 | 0.00 | 0.00 | 0.00 | 95 | 1016.5 |
| 20260905054003 | 18 | 112 | 9.7 | 16.1 | 0.00 | 0.00 | 0.00 | 95 | 1016.5 |
| 20260905053928 | 18 | 113 | 9.7 | 16.1 | 0.00 | 0.00 | 0.00 | 95 | 1016.5 |
| 20260905053811 | 18 | 105 | 11.3 | 16.1 | 0.00 | 0.00 | 0.00 | 95 | 1016.5 |
| 20260905053701 | 18 | 111 | 11.3 | 16.1 | 0.00 | 0.00 | 0.00 | 95 | 1016.5 |
| 20260905053605 | 18 | 127 | 11.3 | 14.5 | 0.00 | 0.00 | 0.00 | 95 | 1016.5 |
| 20260905053510 | 18 | 111 | 9.7 | 16.1 | 0.00 | 0.00 | 0.00 | 95 | 1016.5 |
| 20260905053435 | 18 | 105 | 9.7 | 16.1 | 0.00 | 0.00 | 0.00 | 95 | 1016.6 |
| 20260905053319 | 18 | 98 | 9.7 | 16.1 | 0.00 | 0.00 | 0.00 | 95 | 1016.5 |
| 20260905053223 | 18 | 110 | 11.3 | 16.1 | 0.00 | 0.00 | 0.00 | 95 | 1016.5 |
| 20260905053100 | 18 | 111 | 9.7 | 16.1 | 0.00 | 0.00 | 0.00 | 95 | 1016.5 |
| 20260905053009 | 18 | 115 | 9.7 | 16.1 | 0.00 | 0.00 | 0.00 | 95 | 1016.5 |
| 20260905052914 | 18 | 108 | 12.9 | 16.1 | 0.00 | 0.00 | 0.00 | 95 | 1016.6 |
| 20260905052819 | 18 | 118 | 11.3 | 16.1 | 0.00 | 0.00 | 0.00 | 95 | 1016.5 |
| 20260905052656 | 18 | 112 | 8.0 | 14.5 | 0.00 | 0.00 | 0.00 | 95 | 1016.5 |
| 20260905052601 | 18 | 117 | 8.0 | 11.3 | 0.00 | 0.00 | 0.00 | 95 | 1016.5 |
| 20260905052526 | 18 | 121 | 8.0 | 11.3 | 0.00 | 0.00 | 0.00 | 95 | 1016.5 |
| 20260905052430 | 18 | 138 | 8.0 | 11.3 | 0.00 | 0.00 | 0.00 | 95 | 1016.5 |
| 20260905052258 | 18 | 101 | 8.0 | 12.9 | 0.00 | 0.00 | 0.00 | 95 | 1016.5 |
| 20260905052203 | 18 | 120 | 8.0 | 12.9 | 0.00 | 0.00 | 0.00 | 95 | 1016.5 |
| 20260905052128 | 18 | 107 | 6.4 | 12.9 | 0.00 | 0.00 | 0.00 | 95 | 1016.4 |
| 20260905052001 | 18 | 97 | 8.0 | 12.9 | 0.00 | 0.00 | 0.00 | 95 | 1016.5 |
| 20260905051856 | 18 | 125 | 8.0 | 12.9 | 0.00 | 0.00 | 0.00 | 95 | 1016.4 |
| 20260905051753 | 18 | 125 | 8.0 | 12.9 | 0.00 | 0.00 | 0.00 | 95 | 1016.4 |
| 20260905051600 | 18 | 103 | 8.0 | 12.9 | 0.00 | 0.00 | 0.00 | 95 | 1016.4 |
| 20260905051505 | 18 | 131 | 9.7 | 12.9 | 0.00 | 0.00 | 0.00 | 95 | 1016.4 |
| 20260905051414 | 18 | 101 | 8.0 | 12.9 | 0.00 | 0.00 | 0.00 | 95 | 1016.5 |
| 20260905051320 | 18 | 114 | 8.0 | 12.9 | 0.00 | 0.00 | 0.00 | 95 | 1016.4 |
| 20260905051158 | 18 | 103 | 8.0 | 12.9 | 0.00 | 0.00 | 0.00 | 95 | 1016.4 |
| 20260905051103 | 18 | 92 | 9.7 | 12.9 | 0.00 | 0.00 | 0.00 | 95 | 1016.5 |
| 20260905051008 | 18 | 87 | 9.7 | 12.9 | 0.00 | 0.00 | 0.00 | 94 | 1016.5 |
| 20260905050857 | 18 | 112 | 9.7 | 12.9 | 0.00 | 0.00 | 0.00 | 94 | 1016.5 |
| 20260905050821 | 18 | 69 | 8.0 | 12.9 | 0.00 | 0.00 | 0.00 | 94 | 1016.5 |
| 20260905050658 | 18 | 106 | 8.0 | 12.9 | 0.00 | 0.00 | 0.00 | 94 | 1016.4 |
| 20260905050623 | 18 | 94 | 8.0 | 12.9 | 0.00 | 0.00 | 0.00 | 94 | 1016.4 |
| 20260905050500 | 18 | 107 | 9.7 | 12.9 | 0.00 | 0.00 | 0.00 | 94 | 1016.4 |
| 20260905050405 | 18 | 90 | 9.7 | 12.9 | 0.00 | 0.00 | 0.00 | 94 | 1016.4 |
| 20260905050310 | 18 | 102 | 8.0 | 12.9 | 0.00 | 0.00 | 0.00 | 94 | 1016.4 |
| 20260905050218 | 18 | 95 | 8.0 | 12.9 | 0.00 | 0.00 | 0.00 | 94 | 1016.4 |
| 20260905050136 | 18 | 98 | 6.4 | 12.9 | 0.00 | 0.00 | 0.00 | 94 | 1016.4 |
| 20260905050020 | 18 | 98 | 6.4 | 11.3 | 0.00 | 0.00 | 0.00 | 94 | 1016.5 |
| 20260905045903 | 18 | 97 | 6.4 | 12.9 | 0.00 | 0.00 | 0.00 | 94 | 1016.4 |
| 20260905045828 | 18 | 98 | 8.0 | 12.9 | 0.00 | 0.00 | 0.00 | 94 | 1016.4 |
| 20260905045712 | 18 | 108 | 8.0 | 12.9 | 0.00 | 0.00 | 0.00 | 94 | 1016.4 |
| 20260905045617 | 18 | 102 | 4.8 | 12.9 | 0.00 | 0.00 | 0.00 | 94 | 1016.4 |
| 20260905045521 | 18 | 116 | 6.4 | 12.9 | 0.00 | 0.00 | 0.00 | 94 | 1016.5 |
| 20260905045408 | 18 | 103 | 6.4 | 12.9 | 0.00 | 0.00 | 0.00 | 94 | 1016.5 |
| 20260905045313 | 18 | 96 | 6.4 | 12.9 | 0.00 | 0.00 | 0.00 | 94 | 1016.5 |
| 20260905045218 | 18 | 101 | 8.0 | 12.9 | 0.00 | 0.00 | 0.00 | 94 | 1016.4 |
| 20260905045102 | 18 | 115 | 8.0 | 12.9 | 0.00 | 0.00 | 0.00 | 94 | 1016.5 |
| 20260905045027 | 18 | 97 | 6.4 | 12.9 | 0.00 | 0.00 | 0.00 | 94 | 1016.5 |
| 20260905044911 | 18 | 116 | 8.0 | 12.9 | 0.00 | 0.00 | 0.00 | 94 | 1016.5 |
| 20260905044800 | 18 | 109 | 6.4 | 12.9 | 0.00 | 0.00 | 0.00 | 94 | 1016.5 |
| 20260905044706 | 18 | 104 | 6.4 | 12.9 | 0.00 | 0.00 | 0.00 | 94 | 1016.5 |
| 20260905044610 | 18 | 124 | 8.0 | 12.9 | 0.00 | 0.00 | 0.00 | 94 | 1016.5 |
| 20260905044515 | 18 | 122 | 6.4 | 12.9 | 0.00 | 0.00 | 0.00 | 94 | 1016.4 |
| 20260905044400 | 18 | 117 | 6.4 | 12.9 | 0.00 | 0.00 | 0.00 | 94 | 1016.4 |
| 20260905044305 | 18 | 136 | 6.4 | 12.9 | 0.00 | 0.00 | 0.00 | 94 | 1016.4 |
| 20260905044230 | 18 | 128 | 6.4 | 12.9 | 0.00 | 0.00 | 0.00 | 94 | 1016.4 |
| 20260905044138 | 18 | 121 | 8.0 | 12.9 | 0.00 | 0.00 | 0.00 | 94 | 1016.5 |
| 20260905043956 | 18 | 119 | 6.4 | 12.9 | 0.00 | 0.00 | 0.00 | 94 | 1016.5 |
| 20260905043901 | 18 | 117 | 4.8 | 12.9 | 0.00 | 0.00 | 0.00 | 94 | 1016.5 |
| 20260905043806 | 18 | 117 | 6.4 | 12.9 | 0.00 | 0.00 | 0.00 | 94 | 1016.5 |
| 20260905043710 | 18 | 123 | 6.4 | 12.9 | 0.00 | 0.00 | 0.00 | 94 | 1016.5 |
| 20260905043635 | 18 | 130 | 6.4 | 12.9 | 0.00 | 0.00 | 0.00 | 93 | 1016.5 |
| 20260905043503 | 18 | 111 | 4.8 | 12.9 | 0.00 | 0.00 | 0.00 | 93 | 1016.5 |
| 20260905043409 | 18 | 119 | 4.8 | 12.9 | 0.00 | 0.00 | 0.00 | 93 | 1016.5 |
| 20260905043313 | 18 | 133 | 6.4 | 12.9 | 0.00 | 0.00 | 0.00 | 93 | 1016.5 |
| 20260905043158 | 18 | 133 | 6.4 | 12.9 | 0.00 | 0.00 | 0.00 | 93 | 1016.5 |
| 20260905043103 | 18 | 119 | 6.4 | 11.3 | 0.00 | 0.00 | 0.00 | 93 | 1016.4 |
| 20260905043008 | 18 | 136 | 6.4 | 11.3 | 0.00 | 0.00 | 0.00 | 93 | 1016.4 |
| 20260905042857 | 18 | 121 | 4.8 | 11.3 | 0.00 | 0.00 | 0.00 | 93 | 1016.6 |
| 20260905042822 | 18 | 114 | 4.8 | 11.3 | 0.00 | 0.00 | 0.00 | 93 | 1016.6 |
| 20260905042659 | 18 | 113 | 4.8 | 11.3 | 0.00 | 0.00 | 0.00 | 93 | 1016.5 |
| 20260905042622 | 18 | 112 | 4.8 | 11.3 | 0.00 | 0.00 | 0.00 | 93 | 1016.5 |
| 20260905042459 | 18 | 114 | 6.4 | 11.3 | 0.00 | 0.00 | 0.00 | 93 | 1016.5 |
| 20260905042404 | 18 | 101 | 6.4 | 11.3 | 0.00 | 0.00 | 0.00 | 92 | 1016.6 |
| 20260905042314 | 18 | 105 | 6.4 | 11.3 | 0.00 | 0.00 | 0.00 | 92 | 1016.6 |
| 20260905042238 | 18 | 78 | 6.4 | 11.3 | 0.00 | 0.00 | 0.00 | 92 | 1016.6 |
| 20260905042141 | 18 | 112 | 6.4 | 11.3 | 0.00 | 0.00 | 0.00 | 92 | 1016.6 |
| 20260905041958 | 18 | 127 | 8.0 | 11.3 | 0.00 | 0.00 | 0.00 | 92 | 1016.5 |
| 20260905041923 | 18 | 108 | 8.0 | 14.5 | 0.00 | 0.00 | 0.00 | 92 | 1016.5 |
| 20260905041806 | 18 | 107 | 8.0 | 14.5 | 0.00 | 0.00 | 0.00 | 92 | 1016.6 |
| 20260905041711 | 18 | 113 | 8.0 | 14.5 | 0.00 | 0.00 | 0.00 | 92 | 1016.6 |
| 20260905041600 | 18 | 136 | 8.0 | 14.5 | 0.00 | 0.00 | 0.00 | 92 | 1016.6 |
| 20260905041505 | 18 | 99 | 8.0 | 14.5 | 0.00 | 0.00 | 0.00 | 92 | 1016.6 |
| 20260905041411 | 18 | 100 | 8.0 | 14.5 | 0.00 | 0.00 | 0.00 | 92 | 1016.6 |
| 20260905041314 | 18 | 106 | 8.0 | 14.5 | 0.00 | 0.00 | 0.00 | 92 | 1016.6 |
| 20260905041220 | 18 | 103 | 8.0 | 14.5 | 0.00 | 0.00 | 0.00 | 92 | 1016.7 |
| 20260905041057 | 18 | 98 | 6.4 | 12.9 | 0.00 | 0.00 | 0.00 | 91 | 1016.7 |
| 20260905041006 | 18 | 102 | 8.0 | 12.9 | 0.00 | 0.00 | 0.00 | 91 | 1016.6 |
| 20260905040911 | 18 | 96 | 6.4 | 12.9 | 0.00 | 0.00 | 0.00 | 91 | 1016.6 |
| 20260905040756 | 18 | 103 | 4.8 | 12.9 | 0.00 | 0.00 | 0.00 | 91 | 1016.6 |
| 20260905040721 | 18 | 103 | 4.8 | 12.9 | 0.00 | 0.00 | 0.00 | 91 | 1016.6 |
| 20260905040559 | 18 | 113 | 6.4 | 12.9 | 0.00 | 0.00 | 0.00 | 91 | 1016.5 |
| 20260905040503 | 18 | 108 | 6.4 | 12.9 | 0.00 | 0.00 | 0.00 | 91 | 1016.5 |
| 20260905040428 | 18 | 114 | 6.4 | 12.9 | 0.00 | 0.00 | 0.00 | 91 | 1016.5 |
| 20260905040256 | 18 | 90 | 9.7 | 12.9 | 0.00 | 0.00 | 0.00 | 91 | 1016.5 |
| 20260905040201 | 18 | 99 | 9.7 | 12.9 | 0.00 | 0.00 | 0.00 | 91 | 1016.5 |
| 20260905040105 | 19 | 96 | 8.0 | 12.9 | 0.00 | 0.00 | 0.00 | 91 | 1016.5 |
| 20260905040030 | 18 | 103 | 8.0 | 12.9 | 0.00 | 0.00 | 0.00 | 91 | 1016.5 |
| 20260905035914 | 19 | 97 | 9.7 | 12.9 | 0.00 | 0.00 | 0.00 | 91 | 1016.5 |
| 20260905035818 | 19 | 94 | 8.0 | 12.9 | 0.00 | 0.00 | 0.00 | 91 | 1016.6 |
| 20260905035706 | 19 | 88 | 8.0 | 12.9 | 0.00 | 0.00 | 0.00 | 91 | 1016.5 |
| 20260905035611 | 19 | 90 | 8.0 | 12.9 | 0.00 | 0.00 | 0.00 | 91 | 1016.5 |
| 20260905035456 | 19 | 101 | 8.0 | 12.9 | 0.00 | 0.00 | 0.00 | 91 | 1016.5 |
| 20260905035421 | 19 | 113 | 8.0 | 12.9 | 0.00 | 0.00 | 0.00 | 91 | 1016.5 |
| 20260905035306 | 19 | 108 | 6.4 | 11.3 | 0.00 | 0.00 | 0.00 | 91 | 1016.5 |
| 20260905035228 | 19 | 113 | 6.4 | 9.7 | 0.00 | 0.00 | 0.00 | 91 | 1016.5 |
| 20260905035112 | 19 | 108 | 4.8 | 9.7 | 0.00 | 0.00 | 0.00 | 91 | 1016.5 |
| 20260905035001 | 19 | 123 | 3.2 | 6.4 | 0.00 | 0.00 | 0.00 | 91 | 1016.4 |
| 20260905034926 | 19 | 126 | 3.2 | 6.4 | 0.00 | 0.00 | 0.00 | 91 | 1016.4 |
| 20260905034810 | 19 | 126 | 1.6 | 6.4 | 0.00 | 0.00 | 0.00 | 91 | 1016.4 |
| 20260905034715 | 19 | 126 | 1.6 | 9.7 | 0.00 | 0.00 | 0.00 | 91 | 1016.3 |
| 20260905034619 | 19 | 126 | 1.6 | 11.3 | 0.00 | 0.00 | 0.00 | 91 | 1016.3 |
| 20260905034457 | 19 | 126 | 3.2 | 11.3 | 0.00 | 0.00 | 0.00 | 91 | 1016.4 |
| 20260905034422 | 19 | 126 | 3.2 | 11.3 | 0.00 | 0.00 | 0.00 | 91 | 1016.4 |
| 20260905034310 | 19 | 126 | 3.2 | 11.3 | 0.00 | 0.00 | 0.00 | 91 | 1016.4 |
| 20260905034215 | 19 | 126 | 3.2 | 12.9 | 0.00 | 0.00 | 0.00 | 91 | 1016.4 |
| 20260905034100 | 19 | 126 | 4.8 | 12.9 | 0.00 | 0.00 | 0.00 | 91 | 1016.4 |
| 20260905034025 | 19 | 124 | 4.8 | 12.9 | 0.00 | 0.00 | 0.00 | 91 | 1016.4 |
| 20260905033909 | 19 | 124 | 6.4 | 12.9 | 0.00 | 0.00 | 0.00 | 91 | 1016.4 |
| 20260905033814 | 19 | 123 | 6.4 | 12.9 | 0.00 | 0.00 | 0.00 | 91 | 1016.5 |
| 20260905033703 | 19 | 136 | 4.8 | 12.9 | 0.00 | 0.00 | 0.00 | 91 | 1016.5 |
| 20260905033608 | 19 | 136 | 4.8 | 12.9 | 0.00 | 0.00 | 0.00 | 90 | 1016.5 |
| 20260905033533 | 19 | 114 | 6.4 | 12.9 | 0.00 | 0.00 | 0.00 | 90 | 1016.4 |
| 20260905033357 | 19 | 107 | 8.0 | 12.9 | 0.00 | 0.00 | 0.00 | 90 | 1016.4 |
| 20260905033320 | 19 | 113 | 8.0 | 12.9 | 0.00 | 0.00 | 0.00 | 90 | 1016.5 |
| 20260905033204 | 19 | 127 | 8.0 | 12.9 | 0.00 | 0.00 | 0.00 | 90 | 1016.4 |
| 20260905033109 | 19 | 126 | 8.0 | 12.9 | 0.00 | 0.00 | 0.00 | 90 | 1016.4 |
| 20260905032957 | 19 | 119 | 8.0 | 12.9 | 0.00 | 0.00 | 0.00 | 90 | 1016.4 |
| 20260905032922 | 19 | 113 | 6.4 | 12.9 | 0.00 | 0.00 | 0.00 | 90 | 1016.4 |
| 20260905032806 | 19 | 113 | 8.0 | 12.9 | 0.00 | 0.00 | 0.00 | 90 | 1016.4 |
| 20260905032711 | 19 | 116 | 9.7 | 12.9 | 0.00 | 0.00 | 0.00 | 90 | 1016.4 |
| 20260905032556 | 20 | 109 | 8.0 | 12.9 | 0.00 | 0.00 | 0.00 | 90 | 1016.5 |
| 20260905032501 | 20 | 113 | 6.4 | 12.9 | 0.00 | 0.00 | 0.00 | 90 | 1016.4 |
| 20260905032409 | 20 | 111 | 6.4 | 12.9 | 0.00 | 0.00 | 0.00 | 89 | 1016.4 |
| 20260905032314 | 20 | 105 | 8.0 | 12.9 | 0.00 | 0.00 | 0.00 | 89 | 1016.5 |
| 20260905032219 | 20 | 117 | 8.0 | 12.9 | 0.00 | 0.00 | 0.00 | 89 | 1016.4 |
| 20260905032057 | 20 | 110 | 8.0 | 12.9 | 0.00 | 0.00 | 0.00 | 89 | 1016.4 |
| 20260905032001 | 20 | 112 | 8.0 | 12.9 | 0.00 | 0.00 | 0.00 | 89 | 1016.4 |
| 20260905031906 | 20 | 87 | 8.0 | 12.9 | 0.00 | 0.00 | 0.00 | 89 | 1016.4 |
| 20260905031815 | 20 | 102 | 8.0 | 12.9 | 0.00 | 0.00 | 0.00 | 89 | 1016.4 |
| 20260905031720 | 20 | 98 | 8.0 | 12.9 | 0.00 | 0.00 | 0.00 | 89 | 1016.4 |
| 20260905031557 | 20 | 92 | 8.0 | 12.9 | 0.00 | 0.00 | 0.00 | 89 | 1016.3 |
| 20260905031521 | 20 | 98 | 8.0 | 14.5 | 0.00 | 0.00 | 0.00 | 89 | 1016.3 |
| 20260905031359 | 20 | 117 | 6.4 | 14.5 | 0.00 | 0.00 | 0.00 | 89 | 1016.3 |
| 20260905031304 | 20 | 105 | 6.4 | 14.5 | 0.00 | 0.00 | 0.00 | 89 | 1016.3 |
| 20260905031228 | 20 | 110 | 6.4 | 14.5 | 0.00 | 0.00 | 0.00 | 89 | 1016.4 |
| 20260905031056 | 20 | 115 | 6.4 | 14.5 | 0.00 | 0.00 | 0.00 | 89 | 1016.4 |
| 20260905031022 | 20 | 125 | 6.4 | 14.5 | 0.00 | 0.00 | 0.00 | 89 | 1016.4 |
| 20260905030859 | 20 | 109 | 9.7 | 14.5 | 0.00 | 0.00 | 0.00 | 89 | 1016.3 |
| 20260905030804 | 20 | 113 | 9.7 | 14.5 | 0.00 | 0.00 | 0.00 | 88 | 1016.3 |
| 20260905030729 | 20 | 130 | 6.4 | 14.5 | 0.00 | 0.00 | 0.00 | 88 | 1016.3 |
| 20260905030632 | 20 | 117 | 4.8 | 14.5 | 0.00 | 0.00 | 0.00 | 88 | 1016.3 |
| 20260905030456 | 20 | 121 | 4.8 | 14.5 | 0.00 | 0.00 | 0.00 | 88 | 1016.3 |
| 20260905030405 | 20 | 122 | 6.4 | 14.5 | 0.00 | 0.00 | 0.00 | 88 | 1016.3 |
| 20260905030308 | 20 | 130 | 9.7 | 14.5 | 0.00 | 0.00 | 0.00 | 88 | 1016.3 |
| 20260905030213 | 20 | 111 | 8.0 | 17.7 | 0.00 | 0.00 | 0.00 | 88 | 1016.3 |
| 20260905030058 | 20 | 111 | 8.0 | 17.7 | 0.00 | 0.00 | 0.00 | 88 | 1016.4 |
| 20260905030004 | 20 | 103 | 9.7 | 17.7 | 0.00 | 0.00 | 0.00 | 88 | 1016.3 |
| 20260905025908 | 20 | 127 | 8.0 | 17.7 | 0.00 | 0.00 | 0.00 | 88 | 1016.3 |
| 20260905025757 | 20 | 137 | 8.0 | 17.7 | 0.00 | 0.00 | 0.00 | 88 | 1016.3 |
| 20260905025721 | 20 | 135 | 9.7 | 17.7 | 0.00 | 0.00 | 0.00 | 88 | 1016.3 |
| 20260905025600 | 20 | 102 | 8.0 | 17.7 | 0.00 | 0.00 | 0.00 | 88 | 1016.3 |
| 20260905025504 | 20 | 132 | 11.3 | 17.7 | 0.00 | 0.00 | 0.00 | 88 | 1016.2 |
| 20260905025429 | 20 | 137 | 9.7 | 17.7 | 0.00 | 0.00 | 0.00 | 88 | 1016.2 |
| 20260905025313 | 20 | 120 | 9.7 | 14.5 | 0.00 | 0.00 | 0.00 | 88 | 1016.2 |
| 20260905025222 | 20 | 117 | 9.7 | 14.5 | 0.00 | 0.00 | 0.00 | 88 | 1016.2 |
| 20260905025059 | 20 | 130 | 8.0 | 14.5 | 0.00 | 0.00 | 0.00 | 88 | 1016.2 |
| 20260905025003 | 20 | 107 | 8.0 | 14.5 | 0.00 | 0.00 | 0.00 | 88 | 1016.3 |
| 20260905024908 | 20 | 86 | 8.0 | 14.5 | 0.00 | 0.00 | 0.00 | 88 | 1016.2 |
| 20260905024831 | 20 | 109 | 8.0 | 14.5 | 0.00 | 0.00 | 0.00 | 88 | 1016.2 |
| 20260905024715 | 20 | 115 | 9.7 | 14.5 | 0.00 | 0.00 | 0.00 | 88 | 1016.2 |
| 20260905024620 | 20 | 107 | 9.7 | 12.9 | 0.00 | 0.00 | 0.00 | 88 | 1016.2 |
| 20260905024528 | 20 | 128 | 8.0 | 16.1 | 0.00 | 0.00 | 0.00 | 87 | 1016.2 |
| 20260905024412 | 21 | 138 | 8.0 | 16.1 | 0.00 | 0.00 | 0.00 | 88 | 1016.2 |
| 20260905024314 | 21 | 116 | 8.0 | 16.1 | 0.00 | 0.00 | 0.00 | 88 | 1016.2 |
| 20260905024219 | 21 | 116 | 9.7 | 16.1 | 0.00 | 0.00 | 0.00 | 88 | 1016.3 |
| 20260905024057 | 21 | 98 | 8.0 | 16.1 | 0.00 | 0.00 | 0.00 | 88 | 1016.2 |
| 20260905024022 | 21 | 125 | 8.0 | 16.1 | 0.00 | 0.00 | 0.00 | 88 | 1016.2 |
| 20260905023906 | 21 | 111 | 8.0 | 16.1 | 0.00 | 0.00 | 0.00 | 88 | 1016.2 |
| 20260905023830 | 21 | 115 | 11.3 | 16.1 | 0.00 | 0.00 | 0.00 | 88 | 1016.2 |
| 20260905023718 | 21 | 114 | 11.3 | 16.1 | 0.00 | 0.00 | 0.00 | 88 | 1016.2 |
| 20260905023603 | 21 | 130 | 9.7 | 16.1 | 0.00 | 0.00 | 0.00 | 87 | 1016.1 |
| 20260905023507 | 21 | 127 | 9.7 | 16.1 | 0.00 | 0.00 | 0.00 | 87 | 1016.2 |
| 20260905023411 | 21 | 115 | 9.7 | 16.1 | 0.00 | 0.00 | 0.00 | 87 | 1016.2 |
| 20260905023336 | 21 | 113 | 9.7 | 14.5 | 0.00 | 0.00 | 0.00 | 87 | 1016.2 |
| 20260905023220 | 21 | 121 | 9.7 | 14.5 | 0.00 | 0.00 | 0.00 | 87 | 1016.2 |
| 20260905023104 | 21 | 118 | 9.7 | 14.5 | 0.00 | 0.00 | 0.00 | 87 | 1016.1 |
| 20260905023013 | 21 | 107 | 9.7 | 14.5 | 0.00 | 0.00 | 0.00 | 87 | 1016.1 |
| 20260905022917 | 21 | 110 | 8.0 | 14.5 | 0.00 | 0.00 | 0.00 | 87 | 1016.1 |
| 20260905022842 | 21 | 116 | 9.7 | 16.1 | 0.00 | 0.00 | 0.00 | 87 | 1016.0 |
| 20260905022659 | 21 | 110 | 9.7 | 16.1 | 0.00 | 0.00 | 0.00 | 87 | 1016.0 |
| 20260905022603 | 21 | 95 | 8.0 | 16.1 | 0.00 | 0.00 | 0.00 | 87 | 1016.0 |
| 20260905022508 | 21 | 116 | 9.7 | 16.1 | 0.00 | 0.00 | 0.00 | 86 | 1016.0 |
| 20260905022357 | 21 | 113 | 9.7 | 16.1 | 0.00 | 0.00 | 0.00 | 86 | 1016.0 |
| 20260905022321 | 21 | 115 | 9.7 | 16.1 | 0.00 | 0.00 | 0.00 | 86 | 1016.0 |
| 20260905022159 | 21 | 117 | 9.7 | 16.1 | 0.00 | 0.00 | 0.00 | 86 | 1016.0 |
| 20260905022104 | 21 | 105 | 9.7 | 16.1 | 0.00 | 0.00 | 0.00 | 86 | 1016.0 |
| 20260905022009 | 21 | 119 | 9.7 | 16.1 | 0.00 | 0.00 | 0.00 | 86 | 1016.0 |
| 20260905021933 | 21 | 108 | 9.7 | 14.5 | 0.00 | 0.00 | 0.00 | 86 | 1016.0 |
| 20260905021802 | 21 | 112 | 9.7 | 12.9 | 0.00 | 0.00 | 0.00 | 86 | 1016.0 |
| 20260905021705 | 21 | 108 | 9.7 | 17.7 | 0.00 | 0.00 | 0.00 | 86 | 1016.0 |
| 20260905021630 | 21 | 109 | 9.7 | 17.7 | 0.00 | 0.00 | 0.00 | 86 | 1016.0 |
| 20260905021514 | 21 | 113 | 8.0 | 17.7 | 0.00 | 0.00 | 0.00 | 86 | 1016.0 |
| 20260905021358 | 21 | 122 | 8.0 | 17.7 | 0.00 | 0.00 | 0.00 | 86 | 1016.0 |
| 20260905021322 | 21 | 134 | 9.7 | 17.7 | 0.00 | 0.00 | 0.00 | 85 | 1016.0 |
| 20260905021159 | 21 | 105 | 9.7 | 17.7 | 0.00 | 0.00 | 0.00 | 86 | 1016.0 |
| 20260905021107 | 21 | 119 | 9.7 | 17.7 | 0.00 | 0.00 | 0.00 | 85 | 1016.0 |
| 20260905021012 | 21 | 117 | 11.3 | 19.3 | 0.00 | 0.00 | 0.00 | 85 | 1016.0 |
| 20260905020915 | 21 | 117 | 11.3 | 19.3 | 0.00 | 0.00 | 0.00 | 85 | 1015.9 |
| 20260905020819 | 21 | 102 | 9.7 | 19.3 | 0.00 | 0.00 | 0.00 | 85 | 1016.0 |
| 20260905020657 | 21 | 137 | 9.7 | 19.3 | 0.00 | 0.00 | 0.00 | 85 | 1015.9 |
| 20260905020602 | 21 | 111 | 11.3 | 19.3 | 0.00 | 0.00 | 0.00 | 85 | 1015.9 |
| 20260905020531 | 21 | 110 | 12.9 | 19.3 | 0.00 | 0.00 | 0.00 | 85 | 1015.9 |
| 20260905020415 | 21 | 115 | 11.3 | 19.3 | 0.00 | 0.00 | 0.00 | 85 | 1015.9 |
| 20260905020320 | 21 | 108 | 12.9 | 19.3 | 0.00 | 0.00 | 0.00 | 85 | 1015.9 |
| 20260905020158 | 21 | 119 | 14.5 | 19.3 | 0.00 | 0.00 | 0.00 | 85 | 1015.9 |
| 20260905020007 | 22 | 109 | 11.3 | 16.1 | 0.00 | 0.00 | 0.00 | 85 | 1015.9 |
| 20260905015915 | 22 | 114 | 12.9 | 16.1 | 0.00 | 0.00 | 0.00 | 85 | 1015.9 |
| 20260905015800 | 22 | 135 | 11.3 | 14.5 | 0.00 | 0.00 | 0.00 | 85 | 1015.8 |
| 20260905015725 | 22 | 102 | 11.3 | 17.7 | 0.00 | 0.00 | 0.00 | 84 | 1015.8 |
| 20260905015609 | 22 | 113 | 9.7 | 17.7 | 0.00 | 0.00 | 0.00 | 84 | 1015.8 |
| 20260905015514 | 22 | 116 | 9.7 | 17.7 | 0.00 | 0.00 | 0.00 | 84 | 1015.8 |
| 20260905015400 | 22 | 117 | 9.7 | 17.7 | 0.00 | 0.00 | 0.00 | 84 | 1015.8 |
| 20260905015308 | 22 | 96 | 8.0 | 17.7 | 0.00 | 0.00 | 0.00 | 84 | 1015.8 |
| 20260905015213 | 22 | 115 | 8.0 | 17.7 | 0.00 | 0.00 | 0.00 | 84 | 1015.8 |
| 20260905015118 | 22 | 114 | 8.0 | 17.7 | 0.00 | 0.00 | 0.00 | 84 | 1015.8 |
| 20260905015022 | 22 | 115 | 11.3 | 17.7 | 0.00 | 0.00 | 0.00 | 84 | 1015.7 |
| 20260905014906 | 22 | 123 | 12.9 | 17.7 | 0.00 | 0.00 | 0.00 | 84 | 1015.7 |
| 20260905014811 | 22 | 115 | 12.9 | 17.7 | 0.00 | 0.00 | 0.00 | 84 | 1015.7 |
| 20260905014736 | 22 | 123 | 12.9 | 17.7 | 0.00 | 0.00 | 0.00 | 84 | 1015.8 |
| 20260905014604 | 22 | 122 | 12.9 | 19.3 | 0.00 | 0.00 | 0.00 | 84 | 1015.7 |
| 20260905014509 | 22 | 117 | 12.9 | 20.9 | 0.00 | 0.00 | 0.00 | 84 | 1015.7 |
| 20260905014430 | 22 | 105 | 12.9 | 20.9 | 0.00 | 0.00 | 0.00 | 84 | 1015.6 |
| 20260905014314 | 22 | 107 | 12.9 | 20.9 | 0.00 | 0.00 | 0.00 | 84 | 1015.7 |
| 20260905014220 | 22 | 144 | 14.5 | 20.9 | 0.00 | 0.00 | 0.00 | 84 | 1015.6 |
| 20260905014057 | 22 | 108 | 12.9 | 20.9 | 0.00 | 0.00 | 0.00 | 84 | 1015.6 |
| 20260905014002 | 22 | 125 | 12.9 | 20.9 | 0.00 | 0.00 | 0.00 | 84 | 1015.6 |
| 20260905013910 | 22 | 117 | 12.9 | 20.9 | 0.00 | 0.00 | 0.00 | 84 | 1015.6 |
| 20260905013815 | 22 | 103 | 14.5 | 20.9 | 0.00 | 0.00 | 0.00 | 84 | 1015.6 |
| 20260905013700 | 22 | 100 | 12.9 | 20.9 | 0.00 | 0.00 | 0.00 | 83 | 1015.6 |
| 20260905013625 | 22 | 102 | 9.7 | 14.5 | 0.00 | 0.00 | 0.00 | 83 | 1015.6 |
| 20260905013508 | 22 | 114 | 9.7 | 14.5 | 0.00 | 0.00 | 0.00 | 83 | 1015.5 |
| 20260905013432 | 22 | 90 | 9.7 | 16.1 | 0.00 | 0.00 | 0.00 | 83 | 1015.5 |
| 20260905013300 | 22 | 80 | 8.0 | 17.7 | 0.00 | 0.00 | 0.00 | 83 | 1015.5 |
| 20260905013205 | 22 | 90 | 9.7 | 17.7 | 0.00 | 0.00 | 0.00 | 83 | 1015.4 |
| 20260905013108 | 22 | 92 | 9.7 | 17.7 | 0.00 | 0.00 | 0.00 | 83 | 1015.4 |
| 20260905013014 | 22 | 96 | 9.7 | 17.7 | 0.00 | 0.00 | 0.00 | 83 | 1015.4 |
| 20260905012858 | 22 | 94 | 9.7 | 17.7 | 0.00 | 0.00 | 0.00 | 83 | 1015.4 |
| 20260905012803 | 22 | 113 | 9.7 | 17.7 | 0.00 | 0.00 | 0.00 | 83 | 1015.4 |
| 20260905012710 | 22 | 84 | 11.3 | 17.7 | 0.00 | 0.00 | 0.00 | 83 | 1015.4 |
| 20260905012615 | 22 | 121 | 12.9 | 17.7 | 0.00 | 0.00 | 0.00 | 82 | 1015.4 |
| 20260905012521 | 22 | 96 | 12.9 | 17.7 | 0.00 | 0.00 | 0.00 | 82 | 1015.4 |
| 20260905012358 | 23 | 107 | 11.3 | 16.1 | 0.00 | 0.00 | 0.00 | 82 | 1015.4 |
| 20260905012323 | 23 | 116 | 9.7 | 16.1 | 0.00 | 0.00 | 0.00 | 82 | 1015.3 |
| 20260905012207 | 23 | 108 | 11.3 | 16.1 | 0.00 | 0.00 | 0.00 | 82 | 1015.4 |
| 20260905012132 | 23 | 111 | 11.3 | 16.1 | 0.00 | 0.00 | 0.00 | 82 | 1015.4 |
| 20260905012000 | 23 | 110 | 11.3 | 16.1 | 0.00 | 0.00 | 0.00 | 82 | 1015.3 |
| 20260905011905 | 23 | 103 | 11.3 | 16.1 | 0.00 | 0.00 | 0.00 | 82 | 1015.3 |
| 20260905011811 | 23 | 79 | 8.0 | 16.1 | 0.00 | 0.00 | 0.00 | 82 | 1015.3 |
| 20260905011735 | 23 | 91 | 6.4 | 12.9 | 0.00 | 0.00 | 0.00 | 82 | 1015.3 |
| 20260905011558 | 23 | 84 | 6.4 | 12.9 | 0.00 | 0.00 | 0.00 | 82 | 1015.2 |
| 20260905011503 | 23 | 105 | 6.4 | 14.5 | 0.00 | 0.00 | 0.00 | 81 | 1015.2 |
| 20260905011411 | 23 | 78 | 8.0 | 14.5 | 0.00 | 0.00 | 0.00 | 81 | 1015.2 |
| 20260905011316 | 23 | 104 | 8.0 | 14.5 | 0.00 | 0.00 | 0.00 | 81 | 1015.2 |
| 20260905011241 | 23 | 97 | 8.0 | 14.5 | 0.00 | 0.00 | 0.00 | 81 | 1015.1 |
| 20260905011057 | 23 | 82 | 8.0 | 14.5 | 0.00 | 0.00 | 0.00 | 80 | 1015.1 |
| 20260905011002 | 23 | 97 | 8.0 | 16.1 | 0.00 | 0.00 | 0.00 | 80 | 1015.1 |
| 20260905010905 | 23 | 107 | 8.0 | 16.1 | 0.00 | 0.00 | 0.00 | 80 | 1015.1 |
| 20260905010810 | 23 | 116 | 9.7 | 16.1 | 0.00 | 0.00 | 0.00 | 80 | 1015.1 |
| 20260905010719 | 23 | 98 | 9.7 | 16.1 | 0.00 | 0.00 | 0.00 | 80 | 1015.1 |
| 20260905010623 | 23 | 107 | 8.0 | 16.1 | 0.00 | 0.00 | 0.00 | 80 | 1015.0 |
| 20260905010526 | 23 | 105 | 9.7 | 17.7 | 0.00 | 0.00 | 0.00 | 80 | 1015.0 |
| 20260905010410 | 23 | 108 | 9.7 | 19.3 | 0.00 | 0.00 | 0.00 | 80 | 1015.0 |
| 20260905010335 | 23 | 106 | 11.3 | 19.3 | 0.00 | 0.00 | 0.00 | 80 | 1015.0 |
| 20260905010218 | 23 | 117 | 11.3 | 19.3 | 0.00 | 0.00 | 0.00 | 80 | 1015.0 |
| 20260905010143 | 23 | 112 | 11.3 | 19.3 | 0.00 | 0.00 | 0.00 | 80 | 1015.0 |
| 20260905005959 | 23 | 116 | 11.3 | 19.3 | 0.00 | 0.00 | 0.00 | 79 | 1014.9 |
| 20260905005905 | 23 | 117 | 11.3 | 19.3 | 0.00 | 0.00 | 0.00 | 80 | 1015.0 |
| 20260905005809 | 23 | 113 | 11.3 | 19.3 | 0.00 | 0.00 | 0.00 | 80 | 1015.0 |
| 20260905005714 | 23 | 113 | 12.9 | 19.3 | 0.00 | 0.00 | 0.00 | 80 | 1014.9 |
| 20260905005619 | 23 | 103 | 11.3 | 19.3 | 0.00 | 0.00 | 0.00 | 79 | 1014.9 |
| 20260905005522 | 24 | 103 | 11.3 | 19.3 | 0.00 | 0.00 | 0.00 | 79 | 1014.9 |
| 20260905005406 | 24 | 121 | 12.9 | 19.3 | 0.00 | 0.00 | 0.00 | 79 | 1014.9 |
| 20260905005311 | 24 | 77 | 12.9 | 17.7 | 0.00 | 0.00 | 0.00 | 79 | 1014.9 |
| 20260905005200 | 24 | 111 | 11.3 | 16.1 | 0.00 | 0.00 | 0.00 | 79 | 1014.9 |
| 20260905005105 | 24 | 98 | 9.7 | 16.1 | 0.00 | 0.00 | 0.00 | 79 | 1015.0 |
| 20260905005010 | 24 | 98 | 9.7 | 16.1 | 0.00 | 0.00 | 0.00 | 79 | 1015.0 |
| 20260905004914 | 24 | 103 | 9.7 | 16.1 | 0.00 | 0.00 | 0.00 | 79 | 1014.9 |
| 20260905004819 | 24 | 84 | 9.7 | 16.1 | 0.00 | 0.00 | 0.00 | 79 | 1014.9 |
| 20260905004703 | 24 | 119 | 9.7 | 16.1 | 0.00 | 0.00 | 0.00 | 79 | 1014.9 |
| 20260905004612 | 24 | 91 | 9.7 | 16.1 | 0.00 | 0.00 | 0.00 | 79 | 1014.9 |
| 20260905004456 | 24 | 100 | 11.3 | 16.1 | 0.00 | 0.00 | 0.00 | 79 | 1014.9 |
| 20260905004401 | 25 | 94 | 9.7 | 17.7 | 0.00 | 0.00 | 0.00 | 79 | 1014.9 |
| 20260905004305 | 25 | 103 | 8.0 | 20.9 | 0.00 | 0.00 | 0.00 | 78 | 1014.8 |
| 20260905004210 | 25 | 95 | 9.7 | 20.9 | 0.00 | 0.00 | 0.00 | 78 | 1014.8 |
| 20260905004115 | 25 | 91 | 9.7 | 20.9 | 0.00 | 0.00 | 0.00 | 78 | 1014.8 |
| 20260905004004 | 25 | 91 | 9.7 | 20.9 | 0.00 | 0.00 | 0.00 | 78 | 1014.9 |
| 20260905003909 | 25 | 110 | 9.7 | 20.9 | 0.00 | 0.00 | 0.00 | 77 | 1014.9 |
| 20260905003814 | 25 | 111 | 11.3 | 20.9 | 0.00 | 0.00 | 0.00 | 77 | 1014.9 |
| 20260905003658 | 25 | 94 | 12.9 | 20.9 | 0.00 | 0.00 | 0.00 | 77 | 1014.9 |
| 20260905003603 | 25 | 103 | 14.5 | 20.9 | 0.00 | 0.00 | 0.00 | 77 | 1014.9 |
| 20260905003508 | 25 | 111 | 12.9 | 20.9 | 0.00 | 0.00 | 0.00 | 77 | 1014.9 |
| 20260905003357 | 25 | 88 | 11.3 | 17.7 | 0.00 | 0.00 | 0.00 | 77 | 1014.8 |
| 20260905003302 | 25 | 87 | 11.3 | 17.7 | 0.00 | 0.00 | 0.00 | 77 | 1014.9 |
| 20260905003206 | 25 | 66 | 11.3 | 17.7 | 0.00 | 0.00 | 0.00 | 77 | 1014.9 |
| 20260905003110 | 25 | 90 | 11.3 | 17.7 | 0.00 | 0.00 | 0.00 | 77 | 1014.9 |
| 20260905003015 | 25 | 98 | 12.9 | 17.7 | 0.00 | 0.00 | 0.00 | 77 | 1014.8 |
| 20260905002900 | 25 | 107 | 12.9 | 17.7 | 0.00 | 0.00 | 0.00 | 77 | 1014.8 |
| 20260905002829 | 25 | 105 | 11.3 | 17.7 | 0.00 | 0.00 | 0.00 | 77 | 1014.8 |
| 20260905002712 | 25 | 101 | 11.3 | 17.7 | 0.00 | 0.00 | 0.00 | 77 | 1014.8 |
| 20260905002556 | 25 | 108 | 11.3 | 17.7 | 0.00 | 0.00 | 0.00 | 77 | 1014.8 |
| 20260905002501 | 25 | 96 | 11.3 | 17.7 | 0.00 | 0.00 | 0.00 | 77 | 1014.7 |
| 20260905002406 | 25 | 95 | 11.3 | 17.7 | 0.00 | 0.00 | 0.00 | 77 | 1014.7 |
| 20260905002310 | 25 | 93 | 11.3 | 19.3 | 0.00 | 0.00 | 0.00 | 77 | 1014.7 |
| 20260905002219 | 26 | 91 | 11.3 | 19.3 | 0.00 | 0.00 | 0.00 | 77 | 1014.7 |
| 20260905002057 | 26 | 93 | 11.3 | 19.3 | 0.00 | 0.00 | 0.00 | 77 | 1014.6 |
| 20260905002022 | 26 | 93 | 12.9 | 19.3 | 0.00 | 0.00 | 0.00 | 76 | 1014.6 |
| 20260905001858 | 26 | 94 | 14.5 | 19.3 | 0.00 | 0.00 | 0.00 | 76 | 1014.6 |
| 20260905001803 | 26 | 94 | 14.5 | 19.3 | 0.00 | 0.00 | 0.00 | 76 | 1014.6 |
| 20260905001707 | 26 | 88 | 12.9 | 19.3 | 0.00 | 0.00 | 0.00 | 76 | 1014.5 |
| 20260905001614 | 26 | 100 | 12.9 | 19.3 | 0.00 | 0.00 | 0.00 | 76 | 1014.5 |
| 20260905001519 | 26 | 101 | 12.9 | 19.3 | 0.00 | 0.00 | 0.00 | 76 | 1014.5 |
| 20260905001357 | 26 | 87 | 12.9 | 19.3 | 0.00 | 0.00 | 0.00 | 76 | 1014.5 |
| 20260905001322 | 26 | 116 | 14.5 | 19.3 | 0.00 | 0.00 | 0.00 | 75 | 1014.5 |
| 20260905001205 | 26 | 87 | 12.9 | 19.3 | 0.00 | 0.00 | 0.00 | 76 | 1014.5 |
| 20260905001130 | 26 | 101 | 9.7 | 19.3 | 0.00 | 0.00 | 0.00 | 76 | 1014.5 |
| 20260905001014 | 26 | 80 | 11.3 | 19.3 | 0.00 | 0.00 | 0.00 | 75 | 1014.5 |
| 20260905000902 | 26 | 92 | 12.9 | 19.3 | 0.00 | 0.00 | 0.00 | 75 | 1014.5 |
| 20260905000808 | 26 | 101 | 11.3 | 19.3 | 0.00 | 0.00 | 0.00 | 75 | 1014.4 |
| 20260905000711 | 26 | 91 | 11.3 | 19.3 | 0.00 | 0.00 | 0.00 | 75 | 1014.4 |
| 20260905000556 | 26 | 86 | 14.5 | 19.3 | 0.00 | 0.00 | 0.00 | 75 | 1014.4 |
| 20260905000501 | 26 | 90 | 14.5 | 19.3 | 0.00 | 0.00 | 0.00 | 75 | 1014.4 |
| 20260905000406 | 26 | 92 | 14.5 | 19.3 | 0.00 | 0.00 | 0.00 | 75 | 1014.4 |
| 20260905000315 | 27 | 98 | 14.5 | 19.3 | 0.00 | 0.00 | 0.00 | 74 | 1014.4 |
| 20260905000219 | 27 | 105 | 11.3 | 19.3 | 0.00 | 0.00 | 0.00 | 75 | 1014.4 |
| 20260905000057 | 27 | 98 | 9.7 | 16.1 | 0.00 | 0.00 | 0.00 | 74 | 1014.4 |
| 20260905000002 | 27 | 104 | 8.0 | 16.1 | 0.00 | 0.00 | 0.00 | 74 | 1014.4 |
| 20260904235907 | 27 | 96 | 6.4 | 16.1 | 0.00 | 0.00 | 0.00 | 74 | 1014.4 |
| 20260904235811 | 27 | 117 | 8.0 | 16.1 | 0.00 | 0.00 | 0.00 | 74 | 1014.4 |
| 20260904235740 | 27 | 92 | 9.7 | 17.7 | 0.00 | 0.00 | 0.00 | 74 | 1014.3 |
| 20260904235557 | 27 | 103 | 9.7 | 17.7 | 0.00 | 0.00 | 0.00 | 73 | 1014.3 |
| 20260904235502 | 27 | 109 | 11.3 | 17.7 | 0.00 | 0.00 | 0.00 | 73 | 1014.3 |
| 20260904235427 | 27 | 114 | 11.3 | 17.7 | 0.00 | 0.00 | 0.00 | 73 | 1014.3 |
| 20260904235311 | 27 | 102 | 9.7 | 17.7 | 0.00 | 0.00 | 0.00 | 73 | 1014.3 |
| 20260904235236 | 27 | 101 | 9.7 | 17.7 | 0.00 | 0.00 | 0.00 | 73 | 1014.3 |
| 20260904235121 | 27 | 109 | 11.3 | 17.7 | 0.00 | 0.00 | 0.00 | 73 | 1014.3 |
| 20260904235025 | 27 | 96 | 12.9 | 17.7 | 0.00 | 0.00 | 0.00 | 73 | 1014.3 |
| 20260904234913 | 27 | 85 | 11.3 | 17.7 | 0.00 | 0.00 | 0.00 | 73 | 1014.3 |
| 20260904234818 | 27 | 98 | 9.7 | 14.5 | 0.00 | 0.00 | 0.00 | 73 | 1014.2 |
| 20260904234702 | 27 | 127 | 11.3 | 14.5 | 0.00 | 0.00 | 0.00 | 73 | 1014.3 |
| 20260904234606 | 27 | 101 | 11.3 | 16.1 | 0.00 | 0.00 | 0.00 | 73 | 1014.3 |
| 20260904234510 | 27 | 100 | 11.3 | 16.1 | 0.00 | 0.00 | 0.00 | 73 | 1014.3 |
| 20260904234415 | 27 | 92 | 9.7 | 17.7 | 0.00 | 0.00 | 0.00 | 73 | 1014.2 |
| 20260904234304 | 27 | 105 | 11.3 | 17.7 | 0.00 | 0.00 | 0.00 | 72 | 1014.3 |
| 20260904234209 | 27 | 126 | 11.3 | 17.7 | 0.00 | 0.00 | 0.00 | 73 | 1014.3 |
| 20260904234112 | 27 | 80 | 11.3 | 17.7 | 0.00 | 0.00 | 0.00 | 73 | 1014.3 |
| 20260904233956 | 27 | 93 | 11.3 | 17.7 | 0.00 | 0.00 | 0.00 | 72 | 1014.3 |
| 20260904233901 | 27 | 95 | 12.9 | 17.7 | 0.00 | 0.00 | 0.00 | 72 | 1014.3 |
| 20260904233806 | 27 | 125 | 12.9 | 17.7 | 0.00 | 0.00 | 0.00 | 72 | 1014.3 |
| 20260904233715 | 27 | 117 | 14.5 | 17.7 | 0.00 | 0.00 | 0.00 | 72 | 1014.3 |
| 20260904233600 | 27 | 117 | 12.9 | 19.3 | 0.00 | 0.00 | 0.00 | 72 | 1014.3 |
| 20260904233524 | 27 | 112 | 9.7 | 19.3 | 0.00 | 0.00 | 0.00 | 72 | 1014.3 |
| 20260904233408 | 27 | 122 | 9.7 | 20.9 | 0.00 | 0.00 | 0.00 | 72 | 1014.3 |
| 20260904233313 | 27 | 101 | 11.3 | 20.9 | 0.00 | 0.00 | 0.00 | 72 | 1014.4 |
| 20260904233157 | 27 | 111 | 11.3 | 20.9 | 0.00 | 0.00 | 0.00 | 72 | 1014.3 |
| 20260904233105 | 27 | 109 | 12.9 | 20.9 | 0.00 | 0.00 | 0.00 | 72 | 1014.4 |
| 20260904233010 | 27 | 92 | 14.5 | 20.9 | 0.00 | 0.00 | 0.00 | 72 | 1014.4 |
| 20260904232935 | 27 | 86 | 14.5 | 20.9 | 0.00 | 0.00 | 0.00 | 72 | 1014.3 |
| 20260904232819 | 27 | 86 | 12.9 | 20.9 | 0.00 | 0.00 | 0.00 | 72 | 1014.3 |
| 20260904232656 | 27 | 72 | 14.5 | 20.9 | 0.00 | 0.00 | 0.00 | 72 | 1014.3 |
| 20260904232621 | 27 | 107 | 14.5 | 20.9 | 0.00 | 0.00 | 0.00 | 72 | 1014.2 |
| 20260904232505 | 27 | 80 | 12.9 | 19.3 | 0.00 | 0.00 | 0.00 | 72 | 1014.2 |
| 20260904232414 | 27 | 90 | 14.5 | 19.3 | 0.00 | 0.00 | 0.00 | 72 | 1014.2 |
| 20260904232259 | 27 | 82 | 16.1 | 19.3 | 0.00 | 0.00 | 0.00 | 71 | 1014.2 |
| 20260904232204 | 27 | 109 | 14.5 | 19.3 | 0.00 | 0.00 | 0.00 | 72 | 1014.1 |
| 20260904232109 | 27 | 88 | 12.9 | 19.3 | 0.00 | 0.00 | 0.00 | 72 | 1014.1 |
| 20260904232034 | 27 | 103 | 12.9 | 19.3 | 0.00 | 0.00 | 0.00 | 71 | 1014.2 |
| 20260904231858 | 27 | 92 | 14.5 | 19.3 | 0.00 | 0.00 | 0.00 | 71 | 1014.2 |
| 20260904231807 | 27 | 88 | 14.5 | 19.3 | 0.00 | 0.00 | 0.00 | 71 | 1014.3 |
| 20260904231711 | 27 | 84 | 12.9 | 19.3 | 0.00 | 0.00 | 0.00 | 71 | 1014.3 |
| 20260904231615 | 28 | 112 | 14.5 | 19.3 | 0.00 | 0.00 | 0.00 | 71 | 1014.3 |
| 20260904231500 | 28 | 89 | 16.1 | 19.3 | 0.00 | 0.00 | 0.00 | 71 | 1014.2 |
| 20260904231425 | 28 | 91 | 14.5 | 19.3 | 0.00 | 0.00 | 0.00 | 71 | 1014.2 |
| 20260904231309 | 28 | 93 | 12.9 | 19.3 | 0.00 | 0.00 | 0.00 | 71 | 1014.2 |
| 20260904231158 | 28 | 95 | 12.9 | 19.3 | 0.00 | 0.00 | 0.00 | 71 | 1014.3 |
| 20260904231103 | 28 | 71 | 14.5 | 19.3 | 0.00 | 0.00 | 0.00 | 71 | 1014.2 |
| 20260904231008 | 28 | 96 | 12.9 | 19.3 | 0.00 | 0.00 | 0.00 | 71 | 1014.2 |
| 20260904230913 | 28 | 94 | 11.3 | 19.3 | 0.00 | 0.00 | 0.00 | 71 | 1014.2 |
| 20260904230758 | 28 | 78 | 12.9 | 19.3 | 0.00 | 0.00 | 0.00 | 71 | 1014.2 |
| 20260904230703 | 28 | 42 | 14.5 | 19.3 | 0.00 | 0.00 | 0.00 | 71 | 1014.2 |
| 20260904230612 | 28 | 96 | 14.5 | 19.3 | 0.00 | 0.00 | 0.00 | 71 | 1014.2 |
| 20260904230517 | 28 | 84 | 14.5 | 20.9 | 0.00 | 0.00 | 0.00 | 70 | 1014.1 |
| 20260904230421 | 28 | 90 | 16.1 | 20.9 | 0.00 | 0.00 | 0.00 | 71 | 1014.1 |
| 20260904230305 | 28 | 92 | 16.1 | 20.9 | 0.00 | 0.00 | 0.00 | 70 | 1014.1 |
| 20260904230230 | 28 | 90 | 12.9 | 20.9 | 0.00 | 0.00 | 0.00 | 71 | 1014.1 |
| 20260904230112 | 28 | 90 | 11.3 | 20.9 | 0.00 | 0.00 | 0.00 | 71 | 1014.1 |
| 20260904230018 | 28 | 82 | 11.3 | 20.9 | 0.00 | 0.00 | 0.00 | 71 | 1014.2 |
| 20260904225901 | 28 | 88 | 12.9 | 20.9 | 0.00 | 0.00 | 0.00 | 71 | 1014.2 |
| 20260904225810 | 28 | 111 | 14.5 | 20.9 | 0.00 | 0.00 | 0.00 | 71 | 1014.2 |
| 20260904225715 | 28 | 94 | 12.9 | 20.9 | 0.00 | 0.00 | 0.00 | 70 | 1014.2 |
| 20260904225600 | 28 | 115 | 12.9 | 19.3 | 0.00 | 0.00 | 0.00 | 70 | 1014.2 |
| 20260904225505 | 28 | 121 | 12.9 | 19.3 | 0.00 | 0.00 | 0.00 | 71 | 1014.2 |
| 20260904225410 | 28 | 84 | 12.9 | 19.3 | 0.00 | 0.00 | 0.00 | 70 | 1014.2 |
| 20260904225300 | 28 | 94 | 12.9 | 19.3 | 0.00 | 0.00 | 0.00 | 70 | 1014.3 |
| 20260904225204 | 28 | 103 | 12.9 | 19.3 | 0.00 | 0.00 | 0.00 | 70 | 1014.2 |
| 20260904225109 | 28 | 117 | 12.9 | 19.3 | 0.00 | 0.00 | 0.00 | 70 | 1014.2 |
| 20260904225014 | 28 | 86 | 12.9 | 19.3 | 0.00 | 0.00 | 0.00 | 70 | 1014.3 |
| 20260904224919 | 28 | 84 | 12.9 | 19.3 | 0.00 | 0.00 | 0.00 | 70 | 1014.2 |
| 20260904224802 | 28 | 99 | 14.5 | 19.3 | 0.00 | 0.00 | 0.00 | 70 | 1014.2 |
| 20260904224708 | 28 | 90 | 12.9 | 19.3 | 0.00 | 0.00 | 0.00 | 70 | 1014.1 |
| 20260904224615 | 28 | 91 | 11.3 | 19.3 | 0.00 | 0.00 | 0.00 | 70 | 1014.1 |
| 20260904224500 | 28 | 92 | 12.9 | 19.3 | 0.00 | 0.00 | 0.00 | 70 | 1014.2 |
| 20260904224425 | 28 | 101 | 12.9 | 19.3 | 0.00 | 0.00 | 0.00 | 70 | 1014.2 |
| 20260904224308 | 28 | 96 | 11.3 | 19.3 | 0.00 | 0.00 | 0.00 | 70 | 1014.2 |
| 20260904224213 | 28 | 98 | 11.3 | 19.3 | 0.00 | 0.00 | 0.00 | 70 | 1014.2 |
| 20260904224058 | 28 | 117 | 11.3 | 19.3 | 0.00 | 0.00 | 0.00 | 70 | 1014.3 |
| 20260904224007 | 28 | 95 | 11.3 | 19.3 | 0.00 | 0.00 | 0.00 | 70 | 1014.2 |
| 20260904223911 | 28 | 119 | 14.5 | 19.3 | 0.00 | 0.00 | 0.00 | 70 | 1014.2 |
| 20260904223835 | 28 | 104 | 14.5 | 19.3 | 0.00 | 0.00 | 0.00 | 70 | 1014.3 |
| 20260904223719 | 28 | 115 | 9.7 | 17.7 | 0.00 | 0.00 | 0.00 | 70 | 1014.2 |
| 20260904223602 | 28 | 123 | 9.7 | 17.7 | 0.00 | 0.00 | 0.00 | 70 | 1014.1 |
| 20260904223507 | 28 | 113 | 12.9 | 17.7 | 0.00 | 0.00 | 0.00 | 70 | 1014.1 |
| 20260904223412 | 28 | 103 | 12.9 | 17.7 | 0.00 | 0.00 | 0.00 | 70 | 1014.1 |
| 20260904223300 | 28 | 81 | 12.9 | 17.7 | 0.00 | 0.00 | 0.00 | 70 | 1014.1 |
| 20260904223225 | 28 | 76 | 14.5 | 17.7 | 0.00 | 0.00 | 0.00 | 70 | 1014.1 |
| 20260904223109 | 28 | 94 | 11.3 | 19.3 | 0.00 | 0.00 | 0.00 | 70 | 1014.1 |
| 20260904223034 | 28 | 65 | 11.3 | 19.3 | 0.00 | 0.00 | 0.00 | 69 | 1014.1 |
| 20260904222857 | 28 | 108 | 12.9 | 19.3 | 0.00 | 0.00 | 0.00 | 70 | 1014.0 |
| 20260904222802 | 28 | 87 | 11.3 | 19.3 | 0.00 | 0.00 | 0.00 | 70 | 1014.0 |
| 20260904222707 | 28 | 92 | 11.3 | 19.3 | 0.00 | 0.00 | 0.00 | 70 | 1014.1 |
| 20260904222557 | 28 | 107 | 11.3 | 19.3 | 0.00 | 0.00 | 0.00 | 70 | 1014.0 |
| 20260904222500 | 28 | 113 | 11.3 | 19.3 | 0.00 | 0.00 | 0.00 | 70 | 1014.0 |
| 20260904222425 | 28 | 91 | 12.9 | 19.3 | 0.00 | 0.00 | 0.00 | 70 | 1013.9 |
| 20260904222309 | 28 | 104 | 16.1 | 19.3 | 0.00 | 0.00 | 0.00 | 70 | 1013.9 |
| 20260904222234 | 28 | 115 | 14.5 | 19.3 | 0.00 | 0.00 | 0.00 | 70 | 1014.0 |
| 20260904222058 | 28 | 129 | 11.3 | 17.7 | 0.00 | 0.00 | 0.00 | 70 | 1014.0 |
| 20260904222006 | 28 | 119 | 9.7 | 17.7 | 0.00 | 0.00 | 0.00 | 70 | 1014.0 |
| 20260904221910 | 28 | 101 | 8.0 | 17.7 | 0.00 | 0.00 | 0.00 | 70 | 1014.0 |
| 20260904221815 | 28 | 135 | 8.0 | 17.7 | 0.00 | 0.00 | 0.00 | 71 | 1014.0 |
| 20260904221700 | 28 | 117 | 9.7 | 17.7 | 0.00 | 0.00 | 0.00 | 70 | 1013.9 |
| 20260904221625 | 28 | 132 | 12.9 | 17.7 | 0.00 | 0.00 | 0.00 | 70 | 1013.9 |
| 20260904221529 | 28 | 92 | 12.9 | 17.7 | 0.00 | 0.00 | 0.00 | 71 | 1013.9 |
| 20260904221413 | 28 | 97 | 11.3 | 20.9 | 0.00 | 0.00 | 0.00 | 71 | 1013.9 |
| 20260904221302 | 28 | 84 | 9.7 | 20.9 | 0.00 | 0.00 | 0.00 | 71 | 1013.8 |
| 20260904221206 | 28 | 105 | 9.7 | 20.9 | 0.00 | 0.00 | 0.00 | 71 | 1013.8 |
| 20260904221130 | 28 | 99 | 9.7 | 20.9 | 0.00 | 0.00 | 0.00 | 71 | 1013.8 |
| 20260904221014 | 28 | 126 | 11.3 | 20.9 | 0.00 | 0.00 | 0.00 | 71 | 1013.8 |
| 20260904220859 | 28 | 103 | 14.5 | 20.9 | 0.00 | 0.00 | 0.00 | 71 | 1013.8 |
| 20260904220803 | 28 | 114 | 11.3 | 20.9 | 0.00 | 0.00 | 0.00 | 71 | 1013.8 |
| 20260904220708 | 28 | 106 | 11.3 | 20.9 | 0.00 | 0.00 | 0.00 | 71 | 1013.8 |
| 20260904220557 | 28 | 99 | 14.5 | 20.9 | 0.00 | 0.00 | 0.00 | 71 | 1013.8 |
| 20260904220501 | 28 | 119 | 11.3 | 17.7 | 0.00 | 0.00 | 0.00 | 71 | 1013.7 |
| 20260904220425 | 28 | 103 | 8.0 | 17.7 | 0.00 | 0.00 | 0.00 | 71 | 1013.7 |
| 20260904220329 | 28 | 127 | 8.0 | 17.7 | 0.00 | 0.00 | 0.00 | 70 | 1013.7 |
| 20260904220232 | 28 | 107 | 11.3 | 17.7 | 0.00 | 0.00 | 0.00 | 71 | 1013.7 |
| 20260904220056 | 28 | 109 | 8.0 | 17.7 | 0.00 | 0.00 | 0.00 | 71 | 1013.7 |
| 20260904220001 | 28 | 114 | 9.7 | 17.7 | 0.00 | 0.00 | 0.00 | 71 | 1013.7 |
| 20260904215910 | 28 | 87 | 11.3 | 17.7 | 0.00 | 0.00 | 0.00 | 71 | 1013.7 |
| 20260904215815 | 28 | 111 | 9.7 | 17.7 | 0.00 | 0.00 | 0.00 | 71 | 1013.8 |
| 20260904215700 | 28 | 139 | 9.7 | 17.7 | 0.00 | 0.00 | 0.00 | 71 | 1013.7 |
| 20260904215605 | 28 | 113 | 11.3 | 17.7 | 0.00 | 0.00 | 0.00 | 71 | 1013.7 |
| 20260904215510 | 28 | 107 | 12.9 | 17.7 | 0.00 | 0.00 | 0.00 | 71 | 1013.7 |
| 20260904215434 | 28 | 121 | 12.9 | 17.7 | 0.00 | 0.00 | 0.00 | 71 | 1013.7 |
| 20260904215305 | 28 | 106 | 11.3 | 17.7 | 0.00 | 0.00 | 0.00 | 71 | 1013.6 |
| 20260904215206 | 28 | 92 | 8.0 | 17.7 | 0.00 | 0.00 | 0.00 | 72 | 1013.6 |
| 20260904215131 | 28 | 51 | 8.0 | 17.7 | 0.00 | 0.00 | 0.00 | 72 | 1013.6 |
| 20260904215015 | 28 | 53 | 8.0 | 17.7 | 0.00 | 0.00 | 0.00 | 72 | 1013.6 |
| 20260904214900 | 28 | 90 | 9.7 | 17.7 | 0.00 | 0.00 | 0.00 | 71 | 1013.6 |
| 20260904214805 | 28 | 83 | 11.3 | 17.7 | 0.00 | 0.00 | 0.00 | 71 | 1013.7 |
| 20260904214710 | 28 | 86 | 11.3 | 17.7 | 0.00 | 0.00 | 0.00 | 72 | 1013.7 |
| 20260904214616 | 28 | 95 | 9.7 | 17.7 | 0.00 | 0.00 | 0.00 | 71 | 1013.7 |
| 20260904214520 | 28 | 107 | 8.0 | 17.7 | 0.00 | 0.00 | 0.00 | 72 | 1013.7 |
| 20260904214424 | 28 | 105 | 11.3 | 17.7 | 0.00 | 0.00 | 0.00 | 71 | 1013.6 |
| 20260904214308 | 28 | 86 | 12.9 | 17.7 | 0.00 | 0.00 | 0.00 | 71 | 1013.6 |
| 20260904214213 | 28 | 96 | 12.9 | 17.7 | 0.00 | 0.00 | 0.00 | 71 | 1013.6 |
| 20260904214118 | 28 | 98 | 11.3 | 17.7 | 0.00 | 0.00 | 0.00 | 71 | 1013.7 |
| 20260904214022 | 28 | 86 | 8.0 | 17.7 | 0.00 | 0.00 | 0.00 | 71 | 1013.7 |
| 20260904213910 | 28 | 109 | 8.0 | 17.7 | 0.00 | 0.00 | 0.00 | 71 | 1013.7 |
| 20260904213815 | 28 | 115 | 9.7 | 17.7 | 0.00 | 0.00 | 0.00 | 71 | 1013.7 |
| 20260904213720 | 28 | 121 | 11.3 | 17.7 | 0.00 | 0.00 | 0.00 | 71 | 1013.6 |
| 20260904213604 | 28 | 98 | 12.9 | 17.7 | 0.00 | 0.00 | 0.00 | 71 | 1013.6 |
| 20260904213509 | 28 | 94 | 11.3 | 16.1 | 0.00 | 0.00 | 0.00 | 71 | 1013.6 |
| 20260904213414 | 28 | 103 | 9.7 | 16.1 | 0.00 | 0.00 | 0.00 | 71 | 1013.6 |
| 20260904213303 | 28 | 88 | 11.3 | 16.1 | 0.00 | 0.00 | 0.00 | 71 | 1013.6 |
| 20260904213206 | 28 | 98 | 11.3 | 16.1 | 0.00 | 0.00 | 0.00 | 71 | 1013.7 |
| 20260904213111 | 28 | 121 | 9.7 | 16.1 | 0.00 | 0.00 | 0.00 | 70 | 1013.7 |
| 20260904213035 | 28 | 117 | 11.3 | 16.1 | 0.00 | 0.00 | 0.00 | 71 | 1013.6 |
| 20260904212859 | 28 | 153 | 11.3 | 16.1 | 0.00 | 0.00 | 0.00 | 71 | 1013.7 |
| 20260904212804 | 28 | 99 | 11.3 | 16.1 | 0.00 | 0.00 | 0.00 | 71 | 1013.7 |
| 20260904212728 | 28 | 105 | 11.3 | 14.5 | 0.00 | 0.00 | 0.00 | 71 | 1013.6 |
| 20260904212632 | 28 | 115 | 9.7 | 14.5 | 0.00 | 0.00 | 0.00 | 71 | 1013.6 |
| 20260904212520 | 28 | 104 | 9.7 | 17.7 | 0.00 | 0.00 | 0.00 | 71 | 1013.6 |
| 20260904212404 | 28 | 95 | 8.0 | 17.7 | 0.00 | 0.00 | 0.00 | 71 | 1013.7 |
| 20260904212329 | 28 | 130 | 8.0 | 17.7 | 0.00 | 0.00 | 0.00 | 70 | 1013.7 |
| 20260904212213 | 28 | 115 | 8.0 | 17.7 | 0.00 | 0.00 | 0.00 | 71 | 1013.7 |
| 20260904212058 | 28 | 120 | 6.4 | 17.7 | 0.00 | 0.00 | 0.00 | 71 | 1013.7 |
| 20260904212002 | 28 | 118 | 8.0 | 17.7 | 0.00 | 0.00 | 0.00 | 71 | 1013.8 |
| 20260904211906 | 28 | 136 | 9.7 | 17.7 | 0.00 | 0.00 | 0.00 | 71 | 1013.8 |
| 20260904211814 | 28 | 130 | 11.3 | 17.7 | 0.00 | 0.00 | 0.00 | 71 | 1013.8 |
| 20260904211659 | 28 | 111 | 9.7 | 17.7 | 0.00 | 0.00 | 0.00 | 71 | 1013.8 |
| 20260904211603 | 28 | 113 | 8.0 | 16.1 | 0.00 | 0.00 | 0.00 | 72 | 1013.8 |
| 20260904211506 | 28 | 85 | 8.0 | 17.7 | 0.00 | 0.00 | 0.00 | 71 | 1013.8 |
| 20260904211411 | 28 | 120 | 9.7 | 17.7 | 0.00 | 0.00 | 0.00 | 71 | 1013.8 |
| 20260904211259 | 28 | 107 | 9.7 | 17.7 | 0.00 | 0.00 | 0.00 | 71 | 1013.8 |
| 20260904211204 | 28 | 83 | 8.0 | 17.7 | 0.00 | 0.00 | 0.00 | 71 | 1013.8 |
| 20260904211127 | 28 | 91 | 9.7 | 17.7 | 0.00 | 0.00 | 0.00 | 71 | 1013.8 |
| 20260904211011 | 28 | 91 | 11.3 | 17.7 | 0.00 | 0.00 | 0.00 | 71 | 1013.8 |
| 20260904210915 | 28 | 109 | 11.3 | 17.7 | 0.00 | 0.00 | 0.00 | 71 | 1013.8 |
| 20260904210800 | 28 | 105 | 12.9 | 17.7 | 0.00 | 0.00 | 0.00 | 71 | 1013.8 |
| 20260904210705 | 28 | 105 | 12.9 | 17.7 | 0.00 | 0.00 | 0.00 | 71 | 1013.7 |
| 20260904210634 | 28 | 57 | 11.3 | 17.7 | 0.00 | 0.00 | 0.00 | 71 | 1013.7 |
| 20260904210457 | 28 | 84 | 8.0 | 17.7 | 0.00 | 0.00 | 0.00 | 71 | 1013.8 |
| 20260904210421 | 28 | 84 | 8.0 | 17.7 | 0.00 | 0.00 | 0.00 | 72 | 1013.8 |
| 20260904210258 | 28 | 115 | 8.0 | 17.7 | 0.00 | 0.00 | 0.00 | 72 | 1013.8 |
| 20260904210203 | 28 | 96 | 9.7 | 17.7 | 0.00 | 0.00 | 0.00 | 71 | 1013.8 |
| 20260904210107 | 28 | 72 | 9.7 | 19.3 | 0.00 | 0.00 | 0.00 | 72 | 1013.9 |
| 20260904210015 | 28 | 115 | 8.0 | 19.3 | 0.00 | 0.00 | 0.00 | 72 | 1013.9 |
| 20260904205900 | 28 | 79 | 11.3 | 19.3 | 0.00 | 0.00 | 0.00 | 71 | 1013.8 |
| 20260904205805 | 28 | 84 | 11.3 | 19.3 | 0.00 | 0.00 | 0.00 | 71 | 1013.8 |
| 20260904205710 | 28 | 109 | 9.7 | 19.3 | 0.00 | 0.00 | 0.00 | 72 | 1013.8 |
| 20260904205615 | 28 | 79 | 9.7 | 19.3 | 0.00 | 0.00 | 0.00 | 72 | 1013.8 |
| 20260904205500 | 28 | 87 | 9.7 | 19.3 | 0.00 | 0.00 | 0.00 | 72 | 1013.8 |
| 20260904205407 | 28 | 100 | 12.9 | 22.5 | 0.00 | 0.00 | 0.00 | 71 | 1013.8 |
| 20260904205332 | 28 | 105 | 12.9 | 22.5 | 0.00 | 0.00 | 0.00 | 71 | 1013.8 |
| 20260904205215 | 28 | 115 | 11.3 | 22.5 | 0.00 | 0.00 | 0.00 | 72 | 1013.8 |
| 20260904205101 | 28 | 92 | 11.3 | 22.5 | 0.00 | 0.00 | 0.00 | 71 | 1013.9 |
| 20260904205005 | 28 | 116 | 9.7 | 22.5 | 0.00 | 0.00 | 0.00 | 71 | 1013.9 |
| 20260904204930 | 28 | 117 | 9.7 | 22.5 | 0.00 | 0.00 | 0.00 | 71 | 1013.9 |
| 20260904204758 | 28 | 163 | 12.9 | 22.5 | 0.00 | 0.00 | 0.00 | 70 | 1013.9 |
| 20260904204723 | 28 | 119 | 12.9 | 22.5 | 0.00 | 0.00 | 0.00 | 71 | 1013.8 |
| 20260904204626 | 28 | 107 | 12.9 | 22.5 | 0.00 | 0.00 | 0.00 | 72 | 1013.8 |
| 20260904204510 | 28 | 135 | 12.9 | 22.5 | 0.00 | 0.00 | 0.00 | 72 | 1013.8 |
| 20260904204415 | 28 | 110 | 16.1 | 22.5 | 0.00 | 0.00 | 0.00 | 72 | 1013.8 |
| 20260904204300 | 28 | 105 | 14.5 | 22.5 | 0.00 | 0.00 | 0.00 | 72 | 1013.7 |
| 20260904204224 | 28 | 105 | 12.9 | 22.5 | 0.00 | 0.00 | 0.00 | 72 | 1013.8 |
| 20260904204108 | 28 | 84 | 14.5 | 22.5 | 0.00 | 0.00 | 0.00 | 72 | 1013.7 |
| 20260904203956 | 28 | 90 | 14.5 | 22.5 | 0.00 | 0.00 | 0.00 | 72 | 1013.7 |
| 20260904203901 | 28 | 85 | 12.9 | 22.5 | 0.00 | 0.00 | 0.00 | 72 | 1013.7 |
| 20260904203805 | 28 | 69 | 12.9 | 22.5 | 0.00 | 0.00 | 0.00 | 73 | 1013.7 |
| 20260904203710 | 28 | 86 | 12.9 | 22.5 | 0.00 | 0.00 | 0.00 | 73 | 1013.7 |
| 20260904203614 | 28 | 119 | 12.9 | 22.5 | 0.00 | 0.00 | 0.00 | 74 | 1013.7 |
| 20260904203503 | 28 | 94 | 11.3 | 22.5 | 0.00 | 0.00 | 0.00 | 74 | 1013.7 |
| 20260904203408 | 28 | 90 | 12.9 | 22.5 | 0.00 | 0.00 | 0.00 | 74 | 1013.7 |
| 20260904203313 | 28 | 91 | 14.5 | 22.5 | 0.00 | 0.00 | 0.00 | 74 | 1013.8 |
| 20260904203158 | 27 | 105 | 11.3 | 22.5 | 0.00 | 0.00 | 0.00 | 75 | 1013.8 |
| 20260904203123 | 27 | 87 | 8.0 | 14.5 | 0.00 | 0.00 | 0.00 | 75 | 1013.7 |
| 20260904203028 | 27 | 157 | 9.7 | 17.7 | 0.00 | 0.00 | 0.00 | 75 | 1013.7 |
| 20260904202911 | 28 | 140 | 11.3 | 17.7 | 0.00 | 0.00 | 0.00 | 75 | 1013.7 |
| 20260904202759 | 28 | 92 | 11.3 | 17.7 | 0.00 | 0.00 | 0.00 | 75 | 1013.7 |
| 20260904202724 | 28 | 116 | 9.7 | 17.7 | 0.00 | 0.00 | 0.00 | 75 | 1013.7 |
| 20260904202608 | 27 | 117 | 9.7 | 17.7 | 0.00 | 0.00 | 0.00 | 74 | 1013.7 |
| 20260904202533 | 27 | 113 | 9.7 | 17.7 | 0.00 | 0.00 | 0.00 | 75 | 1013.7 |
| 20260904202417 | 28 | 123 | 9.7 | 17.7 | 0.00 | 0.00 | 0.00 | 76 | 1013.7 |
| 20260904202300 | 27 | 84 | 11.3 | 17.7 | 0.00 | 0.00 | 0.00 | 75 | 1013.6 |
| 20260904202204 | 27 | 80 | 14.5 | 17.7 | 0.00 | 0.00 | 0.00 | 75 | 1013.7 |
| 20260904202108 | 27 | 89 | 12.9 | 17.7 | 0.00 | 0.00 | 0.00 | 74 | 1013.6 |
| 20260904202016 | 27 | 109 | 12.9 | 17.7 | 0.00 | 0.00 | 0.00 | 74 | 1013.6 |
| 20260904201939 | 27 | 98 | 12.9 | 17.7 | 0.00 | 0.00 | 0.00 | 75 | 1013.7 |
| 20260904201756 | 27 | 117 | 6.4 | 17.7 | 0.00 | 0.00 | 0.00 | 76 | 1013.7 |
| 20260904201701 | 27 | 83 | 8.0 | 17.7 | 0.00 | 0.00 | 0.00 | 76 | 1013.6 |
| 20260904201626 | 27 | 93 | 9.7 | 17.7 | 0.00 | 0.00 | 0.00 | 76 | 1013.7 |
| 20260904201510 | 27 | 106 | 6.4 | 16.1 | 0.00 | 0.00 | 0.00 | 77 | 1013.7 |
| 20260904201358 | 27 | 123 | 4.8 | 20.9 | 0.00 | 0.00 | 0.00 | 76 | 1013.7 |
| 20260904201303 | 27 | 124 | 4.8 | 20.9 | 0.00 | 0.00 | 0.00 | 76 | 1013.8 |
| 20260904201207 | 27 | 130 | 8.0 | 20.9 | 0.00 | 0.00 | 0.00 | 75 | 1013.8 |
| 20260904201112 | 27 | 133 | 9.7 | 20.9 | 0.00 | 0.00 | 0.00 | 75 | 1013.8 |
| 20260904201017 | 27 | 131 | 11.3 | 20.9 | 0.00 | 0.00 | 0.00 | 76 | 1013.8 |
| 20260904200901 | 27 | 111 | 11.3 | 20.9 | 0.00 | 0.00 | 0.00 | 76 | 1013.8 |
| 20260904200805 | 27 | 121 | 8.0 | 20.9 | 0.00 | 0.00 | 0.00 | 77 | 1013.7 |
| 20260904200714 | 27 | 95 | 9.7 | 20.9 | 0.00 | 0.00 | 0.00 | 78 | 1013.7 |
| 20260904200619 | 27 | 146 | 12.9 | 20.9 | 0.00 | 0.00 | 0.00 | 77 | 1013.7 |
| 20260904200503 | 27 | 103 | 11.3 | 17.7 | 0.00 | 0.00 | 0.00 | 77 | 1013.8 |
| 20260904200408 | 27 | 130 | 11.3 | 17.7 | 0.00 | 0.00 | 0.00 | 78 | 1013.8 |
| 20260904200312 | 27 | 93 | 9.7 | 17.7 | 0.00 | 0.00 | 0.00 | 78 | 1013.8 |
| 20260904200157 | 27 | 113 | 4.8 | 17.7 | 0.00 | 0.00 | 0.00 | 80 | 1013.8 |
| 20260904200105 | 27 | 121 | 4.8 | 24.1 | 0.00 | 0.00 | 0.00 | 79 | 1013.7 |
| 20260904200030 | 27 | 123 | 8.0 | 24.1 | 0.00 | 0.00 | 0.00 | 79 | 1013.7 |
| 20260904195914 | 27 | 121 | 9.7 | 24.1 | 0.00 | 0.00 | 0.00 | 79 | 1013.8 |
| 20260904195759 | 27 | 103 | 9.7 | 24.1 | 0.00 | 0.00 | 0.00 | 79 | 1013.7 |
| 20260904195704 | 27 | 121 | 11.3 | 24.1 | 0.00 | 0.00 | 0.00 | 79 | 1013.7 |
| 20260904195628 | 27 | 117 | 9.7 | 24.1 | 0.00 | 0.00 | 0.00 | 79 | 1013.7 |
| 20260904195456 | 27 | 108 | 11.3 | 24.1 | 0.00 | 0.00 | 0.00 | 79 | 1013.8 |
| 20260904195421 | 27 | 103 | 14.5 | 24.1 | 0.00 | 0.00 | 0.00 | 79 | 1013.7 |
| 20260904195325 | 27 | 94 | 14.5 | 24.1 | 0.00 | 0.00 | 0.00 | 80 | 1013.7 |
| 20260904195209 | 27 | 98 | 11.3 | 20.9 | 0.00 | 0.00 | 0.00 | 80 | 1013.7 |
| 20260904195114 | 27 | 114 | 8.0 | 20.9 | 0.00 | 0.00 | 0.00 | 81 | 1013.7 |
| 20260904194959 | 27 | 138 | 8.0 | 17.7 | 0.00 | 0.00 | 0.00 | 80 | 1013.7 |
| 20260904194904 | 27 | 137 | 8.0 | 17.7 | 0.00 | 0.00 | 0.00 | 81 | 1013.7 |
| 20260904194829 | 27 | 155 | 3.2 | 16.1 | 0.00 | 0.00 | 0.00 | 82 | 1013.7 |
| 20260904194737 | 27 | 108 | 3.2 | 22.5 | 0.00 | 0.00 | 0.00 | 81 | 1013.7 |
| 20260904194639 | 27 | 94 | 4.8 | 22.5 | 0.00 | 0.00 | 0.00 | 82 | 1013.6 |
| 20260904194456 | 27 | 109 | 6.4 | 22.5 | 0.00 | 0.00 | 0.00 | 82 | 1013.7 |
| 20260904194401 | 27 | 112 | 8.0 | 22.5 | 0.00 | 0.00 | 0.00 | 82 | 1013.8 |
| 20260904194306 | 26 | 168 | 8.0 | 22.5 | 0.00 | 0.00 | 0.00 | 81 | 1013.7 |
| 20260904194211 | 26 | 165 | 9.7 | 22.5 | 0.00 | 0.00 | 0.00 | 81 | 1013.7 |